<?xml version="1.0" encoding="UTF-8" standalone="no" ?>
<gpx xmlns="http://www.topografix.com/GPX/1/1" xmlns:xsi="http://www.w3.org/2001/XMLSchema-instance" xsi:schemaLocation="http://www.topografix.com/GPX/1/1 http://www.topografix.com/GPX/1/1/gpx.xsd" version="1.1" creator="VisuGPX - https://www.visugpx.com">
  <metadata>
    <name>Champagnat Cyclisme sur route</name>
  </metadata>
  <trk>
    <name><![CDATA[Champagnat Cyclisme sur route_1]]></name>
    <trkseg>
      <trkpt lat="46.48271" lon="5.36836">
        <ele>266</ele>
        <time>2021-11-04T13:16:53Z</time>
      </trkpt>
      <trkpt lat="46.48262" lon="5.36824">
        <ele>265.8</ele>
        <time>2021-11-04T13:16:54Z</time>
      </trkpt>
      <trkpt lat="46.48252" lon="5.36813">
        <ele>264.6</ele>
        <time>2021-11-04T13:16:55Z</time>
      </trkpt>
      <trkpt lat="46.48231" lon="5.36795">
        <ele>262.6</ele>
        <time>2021-11-04T13:16:57Z</time>
      </trkpt>
      <trkpt lat="46.4822" lon="5.36787">
        <ele>261.2</ele>
        <time>2021-11-04T13:16:58Z</time>
      </trkpt>
      <trkpt lat="46.482" lon="5.3677">
        <ele>259.8</ele>
        <time>2021-11-04T13:17:00Z</time>
      </trkpt>
      <trkpt lat="46.48189" lon="5.36761">
        <ele>259.2</ele>
        <time>2021-11-04T13:17:01Z</time>
      </trkpt>
      <trkpt lat="46.48179" lon="5.36752">
        <ele>258.2</ele>
        <time>2021-11-04T13:17:02Z</time>
      </trkpt>
      <trkpt lat="46.48159" lon="5.36736">
        <ele>256.6</ele>
        <time>2021-11-04T13:17:04Z</time>
      </trkpt>
      <trkpt lat="46.4814" lon="5.3672">
        <ele>255.2</ele>
        <time>2021-11-04T13:17:06Z</time>
      </trkpt>
      <trkpt lat="46.48131" lon="5.36713">
        <ele>254.4</ele>
        <time>2021-11-04T13:17:07Z</time>
      </trkpt>
      <trkpt lat="46.48123" lon="5.36707">
        <ele>254.2</ele>
        <time>2021-11-04T13:17:08Z</time>
      </trkpt>
      <trkpt lat="46.48111" lon="5.36696">
        <ele>253.4</ele>
        <time>2021-11-04T13:17:10Z</time>
      </trkpt>
      <trkpt lat="46.48109" lon="5.3669">
        <ele>252.8</ele>
        <time>2021-11-04T13:17:11Z</time>
      </trkpt>
      <trkpt lat="46.48109" lon="5.36683">
        <ele>252.4</ele>
        <time>2021-11-04T13:17:12Z</time>
      </trkpt>
      <trkpt lat="46.48112" lon="5.36676">
        <ele>251.8</ele>
        <time>2021-11-04T13:17:13Z</time>
      </trkpt>
      <trkpt lat="46.48118" lon="5.36668">
        <ele>251.2</ele>
        <time>2021-11-04T13:17:14Z</time>
      </trkpt>
      <trkpt lat="46.48141" lon="5.36644">
        <ele>250</ele>
        <time>2021-11-04T13:17:18Z</time>
      </trkpt>
      <trkpt lat="46.48161" lon="5.36621">
        <ele>249</ele>
        <time>2021-11-04T13:17:21Z</time>
      </trkpt>
      <trkpt lat="46.48169" lon="5.36614">
        <ele>248.8</ele>
        <time>2021-11-04T13:17:22Z</time>
      </trkpt>
      <trkpt lat="46.48177" lon="5.36609">
        <ele>248.6</ele>
        <time>2021-11-04T13:17:23Z</time>
      </trkpt>
      <trkpt lat="46.48194" lon="5.36602">
        <ele>248.4</ele>
        <time>2021-11-04T13:17:25Z</time>
      </trkpt>
      <trkpt lat="46.48202" lon="5.366">
        <ele>248.2</ele>
        <time>2021-11-04T13:17:26Z</time>
      </trkpt>
      <trkpt lat="46.48209" lon="5.36594">
        <ele>248</ele>
        <time>2021-11-04T13:17:27Z</time>
      </trkpt>
      <trkpt lat="46.48213" lon="5.36588">
        <ele>247.8</ele>
        <time>2021-11-04T13:17:28Z</time>
      </trkpt>
      <trkpt lat="46.48218" lon="5.36579">
        <ele>247.6</ele>
        <time>2021-11-04T13:17:29Z</time>
      </trkpt>
      <trkpt lat="46.48227" lon="5.36558">
        <ele>247.2</ele>
        <time>2021-11-04T13:17:31Z</time>
      </trkpt>
      <trkpt lat="46.48244" lon="5.36537">
        <ele>247.2</ele>
        <time>2021-11-04T13:17:34Z</time>
      </trkpt>
      <trkpt lat="46.48265" lon="5.36515">
        <ele>246.4</ele>
        <time>2021-11-04T13:17:37Z</time>
      </trkpt>
      <trkpt lat="46.48306" lon="5.36471">
        <ele>245.4</ele>
        <time>2021-11-04T13:17:43Z</time>
      </trkpt>
      <trkpt lat="46.48327" lon="5.36448">
        <ele>244.6</ele>
        <time>2021-11-04T13:17:46Z</time>
      </trkpt>
      <trkpt lat="46.48341" lon="5.36432">
        <ele>244.2</ele>
        <time>2021-11-04T13:17:48Z</time>
      </trkpt>
      <trkpt lat="46.48362" lon="5.36408">
        <ele>243</ele>
        <time>2021-11-04T13:17:51Z</time>
      </trkpt>
      <trkpt lat="46.4839" lon="5.36378">
        <ele>241.6</ele>
        <time>2021-11-04T13:17:55Z</time>
      </trkpt>
      <trkpt lat="46.48428" lon="5.36351">
        <ele>240.8</ele>
        <time>2021-11-04T13:18:00Z</time>
      </trkpt>
      <trkpt lat="46.48437" lon="5.36348">
        <ele>240.4</ele>
        <time>2021-11-04T13:18:01Z</time>
      </trkpt>
      <trkpt lat="46.48467" lon="5.36343">
        <ele>239.8</ele>
        <time>2021-11-04T13:18:05Z</time>
      </trkpt>
      <trkpt lat="46.48521" lon="5.36334">
        <ele>240</ele>
        <time>2021-11-04T13:18:12Z</time>
      </trkpt>
      <trkpt lat="46.4853" lon="5.36333">
        <ele>240</ele>
        <time>2021-11-04T13:18:13Z</time>
      </trkpt>
      <trkpt lat="46.48536" lon="5.36332">
        <ele>240</ele>
        <time>2021-11-04T13:18:14Z</time>
      </trkpt>
      <trkpt lat="46.48593" lon="5.36323">
        <ele>239.6</ele>
        <time>2021-11-04T13:18:21Z</time>
      </trkpt>
      <trkpt lat="46.48601" lon="5.36322">
        <ele>239.2</ele>
        <time>2021-11-04T13:18:22Z</time>
      </trkpt>
      <trkpt lat="46.48612" lon="5.36319">
        <ele>239</ele>
        <time>2021-11-04T13:18:23Z</time>
      </trkpt>
      <trkpt lat="46.48618" lon="5.36315">
        <ele>238.4</ele>
        <time>2021-11-04T13:18:24Z</time>
      </trkpt>
      <trkpt lat="46.48626" lon="5.36306">
        <ele>237.8</ele>
        <time>2021-11-04T13:18:25Z</time>
      </trkpt>
      <trkpt lat="46.48635" lon="5.36282">
        <ele>237.2</ele>
        <time>2021-11-04T13:18:27Z</time>
      </trkpt>
      <trkpt lat="46.48638" lon="5.36255">
        <ele>236.2</ele>
        <time>2021-11-04T13:18:29Z</time>
      </trkpt>
      <trkpt lat="46.4864" lon="5.36227">
        <ele>235</ele>
        <time>2021-11-04T13:18:31Z</time>
      </trkpt>
      <trkpt lat="46.48644" lon="5.36186">
        <ele>233.4</ele>
        <time>2021-11-04T13:18:34Z</time>
      </trkpt>
      <trkpt lat="46.48652" lon="5.3612">
        <ele>232.6</ele>
        <time>2021-11-04T13:18:39Z</time>
      </trkpt>
      <trkpt lat="46.48655" lon="5.36107">
        <ele>232.4</ele>
        <time>2021-11-04T13:18:40Z</time>
      </trkpt>
      <trkpt lat="46.48668" lon="5.36049">
        <ele>231.8</ele>
        <time>2021-11-04T13:18:45Z</time>
      </trkpt>
      <trkpt lat="46.4867" lon="5.36039">
        <ele>231.8</ele>
        <time>2021-11-04T13:18:46Z</time>
      </trkpt>
      <trkpt lat="46.48679" lon="5.35992">
        <ele>232.6</ele>
        <time>2021-11-04T13:18:51Z</time>
      </trkpt>
      <trkpt lat="46.48685" lon="5.35942">
        <ele>233.6</ele>
        <time>2021-11-04T13:18:56Z</time>
      </trkpt>
      <trkpt lat="46.48688" lon="5.35923">
        <ele>233.8</ele>
        <time>2021-11-04T13:18:58Z</time>
      </trkpt>
      <trkpt lat="46.48707" lon="5.35869">
        <ele>233.8</ele>
        <time>2021-11-04T13:19:03Z</time>
      </trkpt>
      <trkpt lat="46.48737" lon="5.35799">
        <ele>232.4</ele>
        <time>2021-11-04T13:19:10Z</time>
      </trkpt>
      <trkpt lat="46.48762" lon="5.35741">
        <ele>231.4</ele>
        <time>2021-11-04T13:19:16Z</time>
      </trkpt>
      <trkpt lat="46.48775" lon="5.35713">
        <ele>231.2</ele>
        <time>2021-11-04T13:19:19Z</time>
      </trkpt>
      <trkpt lat="46.48788" lon="5.35686">
        <ele>231</ele>
        <time>2021-11-04T13:19:22Z</time>
      </trkpt>
      <trkpt lat="46.48803" lon="5.35651">
        <ele>230.8</ele>
        <time>2021-11-04T13:19:26Z</time>
      </trkpt>
      <trkpt lat="46.48833" lon="5.35585">
        <ele>230.8</ele>
        <time>2021-11-04T13:19:34Z</time>
      </trkpt>
      <trkpt lat="46.48836" lon="5.35577">
        <ele>230.8</ele>
        <time>2021-11-04T13:19:35Z</time>
      </trkpt>
      <trkpt lat="46.48841" lon="5.35569">
        <ele>231</ele>
        <time>2021-11-04T13:19:36Z</time>
      </trkpt>
      <trkpt lat="46.48852" lon="5.35559">
        <ele>231</ele>
        <time>2021-11-04T13:19:38Z</time>
      </trkpt>
      <trkpt lat="46.48865" lon="5.35558">
        <ele>231</ele>
        <time>2021-11-04T13:19:40Z</time>
      </trkpt>
      <trkpt lat="46.4887" lon="5.35558">
        <ele>231</ele>
        <time>2021-11-04T13:19:41Z</time>
      </trkpt>
      <trkpt lat="46.48908" lon="5.35557">
        <ele>230.6</ele>
        <time>2021-11-04T13:19:46Z</time>
      </trkpt>
      <trkpt lat="46.48918" lon="5.35557">
        <ele>230.2</ele>
        <time>2021-11-04T13:19:47Z</time>
      </trkpt>
      <trkpt lat="46.48959" lon="5.35554">
        <ele>229</ele>
        <time>2021-11-04T13:19:52Z</time>
      </trkpt>
      <trkpt lat="46.48968" lon="5.35554">
        <ele>229</ele>
        <time>2021-11-04T13:19:53Z</time>
      </trkpt>
      <trkpt lat="46.49001" lon="5.35552">
        <ele>227.8</ele>
        <time>2021-11-04T13:19:57Z</time>
      </trkpt>
      <trkpt lat="46.49032" lon="5.35551">
        <ele>227.4</ele>
        <time>2021-11-04T13:20:01Z</time>
      </trkpt>
      <trkpt lat="46.49047" lon="5.3555">
        <ele>227.2</ele>
        <time>2021-11-04T13:20:03Z</time>
      </trkpt>
      <trkpt lat="46.49092" lon="5.35548">
        <ele>228.2</ele>
        <time>2021-11-04T13:20:10Z</time>
      </trkpt>
      <trkpt lat="46.49116" lon="5.35547">
        <ele>228.8</ele>
        <time>2021-11-04T13:20:14Z</time>
      </trkpt>
      <trkpt lat="46.49122" lon="5.35547">
        <ele>229</ele>
        <time>2021-11-04T13:20:15Z</time>
      </trkpt>
      <trkpt lat="46.49156" lon="5.35545">
        <ele>230</ele>
        <time>2021-11-04T13:20:21Z</time>
      </trkpt>
      <trkpt lat="46.49161" lon="5.35544">
        <ele>230</ele>
        <time>2021-11-04T13:20:22Z</time>
      </trkpt>
      <trkpt lat="46.49166" lon="5.35544">
        <ele>230.2</ele>
        <time>2021-11-04T13:20:23Z</time>
      </trkpt>
      <trkpt lat="46.49188" lon="5.35543">
        <ele>230.8</ele>
        <time>2021-11-04T13:20:27Z</time>
      </trkpt>
      <trkpt lat="46.49194" lon="5.35543">
        <ele>231.2</ele>
        <time>2021-11-04T13:20:28Z</time>
      </trkpt>
      <trkpt lat="46.49238" lon="5.3554">
        <ele>232</ele>
        <time>2021-11-04T13:20:34Z</time>
      </trkpt>
      <trkpt lat="46.49275" lon="5.35537">
        <ele>232.2</ele>
        <time>2021-11-04T13:20:39Z</time>
      </trkpt>
      <trkpt lat="46.4929" lon="5.35536">
        <ele>232.2</ele>
        <time>2021-11-04T13:20:41Z</time>
      </trkpt>
      <trkpt lat="46.49345" lon="5.35533">
        <ele>231.4</ele>
        <time>2021-11-04T13:20:49Z</time>
      </trkpt>
      <trkpt lat="46.49353" lon="5.35533">
        <ele>231.4</ele>
        <time>2021-11-04T13:20:50Z</time>
      </trkpt>
      <trkpt lat="46.49376" lon="5.35534">
        <ele>231.2</ele>
        <time>2021-11-04T13:20:53Z</time>
      </trkpt>
      <trkpt lat="46.49392" lon="5.35537">
        <ele>230.8</ele>
        <time>2021-11-04T13:20:55Z</time>
      </trkpt>
      <trkpt lat="46.49415" lon="5.35545">
        <ele>229.8</ele>
        <time>2021-11-04T13:20:58Z</time>
      </trkpt>
      <trkpt lat="46.49452" lon="5.3556">
        <ele>229.2</ele>
        <time>2021-11-04T13:21:03Z</time>
      </trkpt>
      <trkpt lat="46.49495" lon="5.35578">
        <ele>228.8</ele>
        <time>2021-11-04T13:21:09Z</time>
      </trkpt>
      <trkpt lat="46.49517" lon="5.35588">
        <ele>228.8</ele>
        <time>2021-11-04T13:21:12Z</time>
      </trkpt>
      <trkpt lat="46.49571" lon="5.35608">
        <ele>228</ele>
        <time>2021-11-04T13:21:19Z</time>
      </trkpt>
      <trkpt lat="46.49587" lon="5.35613">
        <ele>228</ele>
        <time>2021-11-04T13:21:21Z</time>
      </trkpt>
      <trkpt lat="46.49595" lon="5.35616">
        <ele>227.8</ele>
        <time>2021-11-04T13:21:22Z</time>
      </trkpt>
      <trkpt lat="46.49641" lon="5.35629">
        <ele>226.8</ele>
        <time>2021-11-04T13:21:28Z</time>
      </trkpt>
      <trkpt lat="46.49656" lon="5.35633">
        <ele>226.6</ele>
        <time>2021-11-04T13:21:30Z</time>
      </trkpt>
      <trkpt lat="46.49692" lon="5.35644">
        <ele>225.8</ele>
        <time>2021-11-04T13:21:36Z</time>
      </trkpt>
      <trkpt lat="46.49696" lon="5.35643">
        <ele>225.6</ele>
        <time>2021-11-04T13:21:37Z</time>
      </trkpt>
      <trkpt lat="46.49702" lon="5.35635">
        <ele>225.4</ele>
        <time>2021-11-04T13:21:39Z</time>
      </trkpt>
      <trkpt lat="46.49706" lon="5.35619">
        <ele>225.2</ele>
        <time>2021-11-04T13:21:41Z</time>
      </trkpt>
      <trkpt lat="46.49707" lon="5.35612">
        <ele>225.2</ele>
        <time>2021-11-04T13:21:42Z</time>
      </trkpt>
      <trkpt lat="46.4971" lon="5.35582">
        <ele>224.6</ele>
        <time>2021-11-04T13:21:45Z</time>
      </trkpt>
      <trkpt lat="46.49711" lon="5.35572">
        <ele>224.4</ele>
        <time>2021-11-04T13:21:46Z</time>
      </trkpt>
      <trkpt lat="46.49713" lon="5.35561">
        <ele>224.4</ele>
        <time>2021-11-04T13:21:47Z</time>
      </trkpt>
      <trkpt lat="46.49718" lon="5.35519">
        <ele>223.6</ele>
        <time>2021-11-04T13:21:51Z</time>
      </trkpt>
      <trkpt lat="46.49723" lon="5.35488">
        <ele>223.4</ele>
        <time>2021-11-04T13:21:54Z</time>
      </trkpt>
      <trkpt lat="46.4973" lon="5.35435">
        <ele>223</ele>
        <time>2021-11-04T13:21:59Z</time>
      </trkpt>
      <trkpt lat="46.49737" lon="5.35358">
        <ele>222.2</ele>
        <time>2021-11-04T13:22:06Z</time>
      </trkpt>
      <trkpt lat="46.49737" lon="5.35346">
        <ele>222</ele>
        <time>2021-11-04T13:22:07Z</time>
      </trkpt>
      <trkpt lat="46.4973" lon="5.35296">
        <ele>221.2</ele>
        <time>2021-11-04T13:22:12Z</time>
      </trkpt>
      <trkpt lat="46.49724" lon="5.35267">
        <ele>221.6</ele>
        <time>2021-11-04T13:22:15Z</time>
      </trkpt>
      <trkpt lat="46.49722" lon="5.35251">
        <ele>221.8</ele>
        <time>2021-11-04T13:22:17Z</time>
      </trkpt>
      <trkpt lat="46.49714" lon="5.35216">
        <ele>222.4</ele>
        <time>2021-11-04T13:22:21Z</time>
      </trkpt>
      <trkpt lat="46.49706" lon="5.35181">
        <ele>222.8</ele>
        <time>2021-11-04T13:22:25Z</time>
      </trkpt>
      <trkpt lat="46.49689" lon="5.35093">
        <ele>222.4</ele>
        <time>2021-11-04T13:22:34Z</time>
      </trkpt>
      <trkpt lat="46.49687" lon="5.35083">
        <ele>222.2</ele>
        <time>2021-11-04T13:22:35Z</time>
      </trkpt>
      <trkpt lat="46.49673" lon="5.35013">
        <ele>222.2</ele>
        <time>2021-11-04T13:22:43Z</time>
      </trkpt>
      <trkpt lat="46.49662" lon="5.34959">
        <ele>223.4</ele>
        <time>2021-11-04T13:22:50Z</time>
      </trkpt>
      <trkpt lat="46.49661" lon="5.34951">
        <ele>223.6</ele>
        <time>2021-11-04T13:22:51Z</time>
      </trkpt>
      <trkpt lat="46.49655" lon="5.34925">
        <ele>224</ele>
        <time>2021-11-04T13:22:54Z</time>
      </trkpt>
      <trkpt lat="46.49651" lon="5.34901">
        <ele>224.2</ele>
        <time>2021-11-04T13:22:57Z</time>
      </trkpt>
      <trkpt lat="46.49649" lon="5.3489">
        <ele>224.2</ele>
        <time>2021-11-04T13:22:58Z</time>
      </trkpt>
      <trkpt lat="46.49637" lon="5.34831">
        <ele>224.4</ele>
        <time>2021-11-04T13:23:05Z</time>
      </trkpt>
      <trkpt lat="46.49633" lon="5.348">
        <ele>224.2</ele>
        <time>2021-11-04T13:23:08Z</time>
      </trkpt>
      <trkpt lat="46.4963" lon="5.34766">
        <ele>223.6</ele>
        <time>2021-11-04T13:23:11Z</time>
      </trkpt>
      <trkpt lat="46.4963" lon="5.34744">
        <ele>223.2</ele>
        <time>2021-11-04T13:23:13Z</time>
      </trkpt>
      <trkpt lat="46.49631" lon="5.34717">
        <ele>222.4</ele>
        <time>2021-11-04T13:23:15Z</time>
      </trkpt>
      <trkpt lat="46.49632" lon="5.34704">
        <ele>222.2</ele>
        <time>2021-11-04T13:23:16Z</time>
      </trkpt>
      <trkpt lat="46.49633" lon="5.34691">
        <ele>221.6</ele>
        <time>2021-11-04T13:23:17Z</time>
      </trkpt>
      <trkpt lat="46.49638" lon="5.34651">
        <ele>220.4</ele>
        <time>2021-11-04T13:23:20Z</time>
      </trkpt>
      <trkpt lat="46.49641" lon="5.34626">
        <ele>219.6</ele>
        <time>2021-11-04T13:23:22Z</time>
      </trkpt>
      <trkpt lat="46.49643" lon="5.34612">
        <ele>219.2</ele>
        <time>2021-11-04T13:23:23Z</time>
      </trkpt>
      <trkpt lat="46.49649" lon="5.34571">
        <ele>217.8</ele>
        <time>2021-11-04T13:23:26Z</time>
      </trkpt>
      <trkpt lat="46.49656" lon="5.34529">
        <ele>216.6</ele>
        <time>2021-11-04T13:23:29Z</time>
      </trkpt>
      <trkpt lat="46.49672" lon="5.34466">
        <ele>216.6</ele>
        <time>2021-11-04T13:23:35Z</time>
      </trkpt>
      <trkpt lat="46.49686" lon="5.34414">
        <ele>217.8</ele>
        <time>2021-11-04T13:23:41Z</time>
      </trkpt>
      <trkpt lat="46.49697" lon="5.34376">
        <ele>219</ele>
        <time>2021-11-04T13:23:46Z</time>
      </trkpt>
      <trkpt lat="46.49699" lon="5.34369">
        <ele>219</ele>
        <time>2021-11-04T13:23:47Z</time>
      </trkpt>
      <trkpt lat="46.49702" lon="5.34359">
        <ele>219.2</ele>
        <time>2021-11-04T13:23:48Z</time>
      </trkpt>
      <trkpt lat="46.49708" lon="5.34339">
        <ele>220.2</ele>
        <time>2021-11-04T13:23:51Z</time>
      </trkpt>
      <trkpt lat="46.49711" lon="5.34332">
        <ele>220.4</ele>
        <time>2021-11-04T13:23:52Z</time>
      </trkpt>
      <trkpt lat="46.49713" lon="5.34326">
        <ele>220.6</ele>
        <time>2021-11-04T13:23:53Z</time>
      </trkpt>
      <trkpt lat="46.49716" lon="5.34317">
        <ele>221</ele>
        <time>2021-11-04T13:23:54Z</time>
      </trkpt>
      <trkpt lat="46.49723" lon="5.34304">
        <ele>221.4</ele>
        <time>2021-11-04T13:23:56Z</time>
      </trkpt>
      <trkpt lat="46.49727" lon="5.34295">
        <ele>221.4</ele>
        <time>2021-11-04T13:23:57Z</time>
      </trkpt>
      <trkpt lat="46.4973" lon="5.34289">
        <ele>221.6</ele>
        <time>2021-11-04T13:23:58Z</time>
      </trkpt>
      <trkpt lat="46.49748" lon="5.34258">
        <ele>221.8</ele>
        <time>2021-11-04T13:24:02Z</time>
      </trkpt>
      <trkpt lat="46.49781" lon="5.34202">
        <ele>221.8</ele>
        <time>2021-11-04T13:24:10Z</time>
      </trkpt>
      <trkpt lat="46.49814" lon="5.34146">
        <ele>222.2</ele>
        <time>2021-11-04T13:24:18Z</time>
      </trkpt>
      <trkpt lat="46.49817" lon="5.3414">
        <ele>222.2</ele>
        <time>2021-11-04T13:24:19Z</time>
      </trkpt>
      <trkpt lat="46.49846" lon="5.34091">
        <ele>222.4</ele>
        <time>2021-11-04T13:24:26Z</time>
      </trkpt>
      <trkpt lat="46.49877" lon="5.34049">
        <ele>222</ele>
        <time>2021-11-04T13:24:32Z</time>
      </trkpt>
      <trkpt lat="46.49921" lon="5.33999">
        <ele>222.2</ele>
        <time>2021-11-04T13:24:41Z</time>
      </trkpt>
      <trkpt lat="46.49929" lon="5.3399">
        <ele>222.4</ele>
        <time>2021-11-04T13:24:43Z</time>
      </trkpt>
      <trkpt lat="46.49948" lon="5.33971">
        <ele>223</ele>
        <time>2021-11-04T13:24:47Z</time>
      </trkpt>
      <trkpt lat="46.49968" lon="5.33951">
        <ele>223.8</ele>
        <time>2021-11-04T13:24:51Z</time>
      </trkpt>
      <trkpt lat="46.49976" lon="5.33942">
        <ele>224</ele>
        <time>2021-11-04T13:24:53Z</time>
      </trkpt>
      <trkpt lat="46.49992" lon="5.33928">
        <ele>224.4</ele>
        <time>2021-11-04T13:24:56Z</time>
      </trkpt>
      <trkpt lat="46.49997" lon="5.33922">
        <ele>224.4</ele>
        <time>2021-11-04T13:24:57Z</time>
      </trkpt>
      <trkpt lat="46.50036" lon="5.33877">
        <ele>224.6</ele>
        <time>2021-11-04T13:25:04Z</time>
      </trkpt>
      <trkpt lat="46.50082" lon="5.33824">
        <ele>223.8</ele>
        <time>2021-11-04T13:25:12Z</time>
      </trkpt>
      <trkpt lat="46.50108" lon="5.33797">
        <ele>222.6</ele>
        <time>2021-11-04T13:25:16Z</time>
      </trkpt>
      <trkpt lat="46.50121" lon="5.33783">
        <ele>222.2</ele>
        <time>2021-11-04T13:25:18Z</time>
      </trkpt>
      <trkpt lat="46.50157" lon="5.33743">
        <ele>221.6</ele>
        <time>2021-11-04T13:25:24Z</time>
      </trkpt>
      <trkpt lat="46.50173" lon="5.33726">
        <ele>221.6</ele>
        <time>2021-11-04T13:25:27Z</time>
      </trkpt>
      <trkpt lat="46.50215" lon="5.33679">
        <ele>222.4</ele>
        <time>2021-11-04T13:25:35Z</time>
      </trkpt>
      <trkpt lat="46.5026" lon="5.33632">
        <ele>222.4</ele>
        <time>2021-11-04T13:25:43Z</time>
      </trkpt>
      <trkpt lat="46.50271" lon="5.3362">
        <ele>222.2</ele>
        <time>2021-11-04T13:25:45Z</time>
      </trkpt>
      <trkpt lat="46.50316" lon="5.33571">
        <ele>221.8</ele>
        <time>2021-11-04T13:25:53Z</time>
      </trkpt>
      <trkpt lat="46.50322" lon="5.33564">
        <ele>221.8</ele>
        <time>2021-11-04T13:25:54Z</time>
      </trkpt>
      <trkpt lat="46.50368" lon="5.33514">
        <ele>220.8</ele>
        <time>2021-11-04T13:26:02Z</time>
      </trkpt>
      <trkpt lat="46.50374" lon="5.33508">
        <ele>220.8</ele>
        <time>2021-11-04T13:26:03Z</time>
      </trkpt>
      <trkpt lat="46.50404" lon="5.33475">
        <ele>220.4</ele>
        <time>2021-11-04T13:26:08Z</time>
      </trkpt>
      <trkpt lat="46.50434" lon="5.33442">
        <ele>219.8</ele>
        <time>2021-11-04T13:26:13Z</time>
      </trkpt>
      <trkpt lat="46.50449" lon="5.33416">
        <ele>219.4</ele>
        <time>2021-11-04T13:26:16Z</time>
      </trkpt>
      <trkpt lat="46.50456" lon="5.33399">
        <ele>219</ele>
        <time>2021-11-04T13:26:18Z</time>
      </trkpt>
      <trkpt lat="46.50459" lon="5.33388">
        <ele>218.8</ele>
        <time>2021-11-04T13:26:19Z</time>
      </trkpt>
      <trkpt lat="46.50466" lon="5.33356">
        <ele>218.2</ele>
        <time>2021-11-04T13:26:22Z</time>
      </trkpt>
      <trkpt lat="46.50467" lon="5.33346">
        <ele>218</ele>
        <time>2021-11-04T13:26:23Z</time>
      </trkpt>
      <trkpt lat="46.50469" lon="5.33281">
        <ele>217.6</ele>
        <time>2021-11-04T13:26:29Z</time>
      </trkpt>
      <trkpt lat="46.5047" lon="5.33226">
        <ele>218</ele>
        <time>2021-11-04T13:26:35Z</time>
      </trkpt>
      <trkpt lat="46.50472" lon="5.33146">
        <ele>218.4</ele>
        <time>2021-11-04T13:26:43Z</time>
      </trkpt>
      <trkpt lat="46.50473" lon="5.33087">
        <ele>217.8</ele>
        <time>2021-11-04T13:26:48Z</time>
      </trkpt>
      <trkpt lat="46.50473" lon="5.3306">
        <ele>216.8</ele>
        <time>2021-11-04T13:26:50Z</time>
      </trkpt>
      <trkpt lat="46.50473" lon="5.33023">
        <ele>215.6</ele>
        <time>2021-11-04T13:26:53Z</time>
      </trkpt>
      <trkpt lat="46.50474" lon="5.32992">
        <ele>214.4</ele>
        <time>2021-11-04T13:26:55Z</time>
      </trkpt>
      <trkpt lat="46.50475" lon="5.32966">
        <ele>213</ele>
        <time>2021-11-04T13:26:57Z</time>
      </trkpt>
      <trkpt lat="46.50475" lon="5.32922">
        <ele>211.8</ele>
        <time>2021-11-04T13:27:00Z</time>
      </trkpt>
      <trkpt lat="46.50476" lon="5.32892">
        <ele>211</ele>
        <time>2021-11-04T13:27:02Z</time>
      </trkpt>
      <trkpt lat="46.50476" lon="5.32876">
        <ele>210.4</ele>
        <time>2021-11-04T13:27:03Z</time>
      </trkpt>
      <trkpt lat="46.50477" lon="5.3283">
        <ele>208.6</ele>
        <time>2021-11-04T13:27:06Z</time>
      </trkpt>
      <trkpt lat="46.50477" lon="5.32785">
        <ele>207.2</ele>
        <time>2021-11-04T13:27:09Z</time>
      </trkpt>
      <trkpt lat="46.50477" lon="5.32771">
        <ele>206.4</ele>
        <time>2021-11-04T13:27:10Z</time>
      </trkpt>
      <trkpt lat="46.50478" lon="5.32757">
        <ele>206.2</ele>
        <time>2021-11-04T13:27:11Z</time>
      </trkpt>
      <trkpt lat="46.50479" lon="5.32701">
        <ele>205</ele>
        <time>2021-11-04T13:27:15Z</time>
      </trkpt>
      <trkpt lat="46.5048" lon="5.32615">
        <ele>204.2</ele>
        <time>2021-11-04T13:27:22Z</time>
      </trkpt>
      <trkpt lat="46.50479" lon="5.32591">
        <ele>203.8</ele>
        <time>2021-11-04T13:27:24Z</time>
      </trkpt>
      <trkpt lat="46.50474" lon="5.32506">
        <ele>203</ele>
        <time>2021-11-04T13:27:31Z</time>
      </trkpt>
      <trkpt lat="46.50474" lon="5.32491">
        <ele>203</ele>
        <time>2021-11-04T13:27:32Z</time>
      </trkpt>
      <trkpt lat="46.50473" lon="5.32482">
        <ele>202.6</ele>
        <time>2021-11-04T13:27:33Z</time>
      </trkpt>
      <trkpt lat="46.50463" lon="5.3241">
        <ele>202.2</ele>
        <time>2021-11-04T13:27:39Z</time>
      </trkpt>
      <trkpt lat="46.50457" lon="5.32379">
        <ele>201.6</ele>
        <time>2021-11-04T13:27:42Z</time>
      </trkpt>
      <trkpt lat="46.50448" lon="5.32337">
        <ele>201.4</ele>
        <time>2021-11-04T13:27:46Z</time>
      </trkpt>
      <trkpt lat="46.50436" lon="5.3227">
        <ele>201.4</ele>
        <time>2021-11-04T13:27:53Z</time>
      </trkpt>
      <trkpt lat="46.50434" lon="5.32198">
        <ele>201.6</ele>
        <time>2021-11-04T13:28:00Z</time>
      </trkpt>
      <trkpt lat="46.50436" lon="5.32111">
        <ele>200.8</ele>
        <time>2021-11-04T13:28:08Z</time>
      </trkpt>
      <trkpt lat="46.50436" lon="5.321">
        <ele>200.6</ele>
        <time>2021-11-04T13:28:09Z</time>
      </trkpt>
      <trkpt lat="46.50436" lon="5.32089">
        <ele>200.4</ele>
        <time>2021-11-04T13:28:10Z</time>
      </trkpt>
      <trkpt lat="46.50438" lon="5.32022">
        <ele>199.6</ele>
        <time>2021-11-04T13:28:16Z</time>
      </trkpt>
      <trkpt lat="46.50438" lon="5.31999">
        <ele>199.2</ele>
        <time>2021-11-04T13:28:18Z</time>
      </trkpt>
      <trkpt lat="46.50439" lon="5.31922">
        <ele>198.8</ele>
        <time>2021-11-04T13:28:25Z</time>
      </trkpt>
      <trkpt lat="46.50439" lon="5.3189">
        <ele>198.4</ele>
        <time>2021-11-04T13:28:28Z</time>
      </trkpt>
      <trkpt lat="46.50434" lon="5.31848">
        <ele>198.4</ele>
        <time>2021-11-04T13:28:32Z</time>
      </trkpt>
      <trkpt lat="46.50416" lon="5.3177">
        <ele>198.4</ele>
        <time>2021-11-04T13:28:40Z</time>
      </trkpt>
      <trkpt lat="46.50396" lon="5.31716">
        <ele>198.4</ele>
        <time>2021-11-04T13:28:46Z</time>
      </trkpt>
      <trkpt lat="46.5036" lon="5.31659">
        <ele>197.8</ele>
        <time>2021-11-04T13:28:53Z</time>
      </trkpt>
      <trkpt lat="46.50354" lon="5.31653">
        <ele>197.8</ele>
        <time>2021-11-04T13:28:54Z</time>
      </trkpt>
      <trkpt lat="46.50343" lon="5.31643">
        <ele>197.4</ele>
        <time>2021-11-04T13:28:56Z</time>
      </trkpt>
      <trkpt lat="46.5033" lon="5.31634">
        <ele>197.2</ele>
        <time>2021-11-04T13:28:58Z</time>
      </trkpt>
      <trkpt lat="46.50279" lon="5.31596">
        <ele>197</ele>
        <time>2021-11-04T13:29:06Z</time>
      </trkpt>
      <trkpt lat="46.50242" lon="5.31556">
        <ele>196.8</ele>
        <time>2021-11-04T13:29:13Z</time>
      </trkpt>
      <trkpt lat="46.50218" lon="5.31516">
        <ele>197.4</ele>
        <time>2021-11-04T13:29:19Z</time>
      </trkpt>
      <trkpt lat="46.50203" lon="5.31476">
        <ele>198.6</ele>
        <time>2021-11-04T13:29:25Z</time>
      </trkpt>
      <trkpt lat="46.50193" lon="5.31444">
        <ele>199.8</ele>
        <time>2021-11-04T13:29:30Z</time>
      </trkpt>
      <trkpt lat="46.50183" lon="5.31413">
        <ele>201</ele>
        <time>2021-11-04T13:29:35Z</time>
      </trkpt>
      <trkpt lat="46.50176" lon="5.3139">
        <ele>202.2</ele>
        <time>2021-11-04T13:29:39Z</time>
      </trkpt>
      <trkpt lat="46.50164" lon="5.31356">
        <ele>203.4</ele>
        <time>2021-11-04T13:29:45Z</time>
      </trkpt>
      <trkpt lat="46.50152" lon="5.3132">
        <ele>204.4</ele>
        <time>2021-11-04T13:29:51Z</time>
      </trkpt>
      <trkpt lat="46.5015" lon="5.31314">
        <ele>204.6</ele>
        <time>2021-11-04T13:29:52Z</time>
      </trkpt>
      <trkpt lat="46.50127" lon="5.31246">
        <ele>205.2</ele>
        <time>2021-11-04T13:30:02Z</time>
      </trkpt>
      <trkpt lat="46.50105" lon="5.31185">
        <ele>204.4</ele>
        <time>2021-11-04T13:30:09Z</time>
      </trkpt>
      <trkpt lat="46.50085" lon="5.31128">
        <ele>203.4</ele>
        <time>2021-11-04T13:30:15Z</time>
      </trkpt>
      <trkpt lat="46.50082" lon="5.31118">
        <ele>203</ele>
        <time>2021-11-04T13:30:16Z</time>
      </trkpt>
      <trkpt lat="46.50065" lon="5.31069">
        <ele>202.2</ele>
        <time>2021-11-04T13:30:22Z</time>
      </trkpt>
      <trkpt lat="46.50048" lon="5.31021">
        <ele>204</ele>
        <time>2021-11-04T13:30:29Z</time>
      </trkpt>
      <trkpt lat="46.50046" lon="5.31015">
        <ele>204.4</ele>
        <time>2021-11-04T13:30:30Z</time>
      </trkpt>
      <trkpt lat="46.50038" lon="5.30994">
        <ele>205.4</ele>
        <time>2021-11-04T13:30:34Z</time>
      </trkpt>
      <trkpt lat="46.50036" lon="5.30989">
        <ele>205.6</ele>
        <time>2021-11-04T13:30:35Z</time>
      </trkpt>
      <trkpt lat="46.5003" lon="5.30972">
        <ele>206.4</ele>
        <time>2021-11-04T13:30:38Z</time>
      </trkpt>
      <trkpt lat="46.50023" lon="5.30949">
        <ele>207.2</ele>
        <time>2021-11-04T13:30:42Z</time>
      </trkpt>
      <trkpt lat="46.50021" lon="5.30943">
        <ele>207.6</ele>
        <time>2021-11-04T13:30:43Z</time>
      </trkpt>
      <trkpt lat="46.50017" lon="5.30932">
        <ele>208.6</ele>
        <time>2021-11-04T13:30:45Z</time>
      </trkpt>
      <trkpt lat="46.50008" lon="5.30906">
        <ele>209.6</ele>
        <time>2021-11-04T13:30:50Z</time>
      </trkpt>
      <trkpt lat="46.50006" lon="5.30901">
        <ele>209.8</ele>
        <time>2021-11-04T13:30:51Z</time>
      </trkpt>
      <trkpt lat="46.5" lon="5.30886">
        <ele>210.8</ele>
        <time>2021-11-04T13:30:54Z</time>
      </trkpt>
      <trkpt lat="46.49991" lon="5.30859">
        <ele>212</ele>
        <time>2021-11-04T13:30:59Z</time>
      </trkpt>
      <trkpt lat="46.49987" lon="5.30848">
        <ele>212.4</ele>
        <time>2021-11-04T13:31:01Z</time>
      </trkpt>
      <trkpt lat="46.49983" lon="5.30836">
        <ele>213</ele>
        <time>2021-11-04T13:31:03Z</time>
      </trkpt>
      <trkpt lat="46.4997" lon="5.30793">
        <ele>214.2</ele>
        <time>2021-11-04T13:31:10Z</time>
      </trkpt>
      <trkpt lat="46.49965" lon="5.3077">
        <ele>214.6</ele>
        <time>2021-11-04T13:31:14Z</time>
      </trkpt>
      <trkpt lat="46.49961" lon="5.30756">
        <ele>214.8</ele>
        <time>2021-11-04T13:31:16Z</time>
      </trkpt>
      <trkpt lat="46.4996" lon="5.3075">
        <ele>215</ele>
        <time>2021-11-04T13:31:17Z</time>
      </trkpt>
      <trkpt lat="46.49956" lon="5.30722">
        <ele>215.2</ele>
        <time>2021-11-04T13:31:21Z</time>
      </trkpt>
      <trkpt lat="46.4995" lon="5.30684">
        <ele>215.2</ele>
        <time>2021-11-04T13:31:26Z</time>
      </trkpt>
      <trkpt lat="46.4994" lon="5.3063">
        <ele>214.6</ele>
        <time>2021-11-04T13:31:32Z</time>
      </trkpt>
      <trkpt lat="46.49937" lon="5.30611">
        <ele>214</ele>
        <time>2021-11-04T13:31:34Z</time>
      </trkpt>
      <trkpt lat="46.49936" lon="5.30601">
        <ele>213.8</ele>
        <time>2021-11-04T13:31:35Z</time>
      </trkpt>
      <trkpt lat="46.49935" lon="5.30582">
        <ele>213.2</ele>
        <time>2021-11-04T13:31:37Z</time>
      </trkpt>
      <trkpt lat="46.49935" lon="5.30557">
        <ele>212.8</ele>
        <time>2021-11-04T13:31:39Z</time>
      </trkpt>
      <trkpt lat="46.49936" lon="5.30546">
        <ele>212.6</ele>
        <time>2021-11-04T13:31:40Z</time>
      </trkpt>
      <trkpt lat="46.49937" lon="5.30535">
        <ele>212</ele>
        <time>2021-11-04T13:31:41Z</time>
      </trkpt>
      <trkpt lat="46.49939" lon="5.30524">
        <ele>211.6</ele>
        <time>2021-11-04T13:31:42Z</time>
      </trkpt>
      <trkpt lat="46.49942" lon="5.30513">
        <ele>211.4</ele>
        <time>2021-11-04T13:31:43Z</time>
      </trkpt>
      <trkpt lat="46.49949" lon="5.30492">
        <ele>210.8</ele>
        <time>2021-11-04T13:31:45Z</time>
      </trkpt>
      <trkpt lat="46.49953" lon="5.30482">
        <ele>210.4</ele>
        <time>2021-11-04T13:31:46Z</time>
      </trkpt>
      <trkpt lat="46.49968" lon="5.30456">
        <ele>209.4</ele>
        <time>2021-11-04T13:31:49Z</time>
      </trkpt>
      <trkpt lat="46.49974" lon="5.30448">
        <ele>209.2</ele>
        <time>2021-11-04T13:31:50Z</time>
      </trkpt>
      <trkpt lat="46.50012" lon="5.30417">
        <ele>207.8</ele>
        <time>2021-11-04T13:31:55Z</time>
      </trkpt>
      <trkpt lat="46.50035" lon="5.30398">
        <ele>206.4</ele>
        <time>2021-11-04T13:31:58Z</time>
      </trkpt>
      <trkpt lat="46.50054" lon="5.30376">
        <ele>206</ele>
        <time>2021-11-04T13:32:01Z</time>
      </trkpt>
      <trkpt lat="46.50077" lon="5.30335">
        <ele>205.8</ele>
        <time>2021-11-04T13:32:06Z</time>
      </trkpt>
      <trkpt lat="46.50087" lon="5.30322">
        <ele>205.8</ele>
        <time>2021-11-04T13:32:08Z</time>
      </trkpt>
      <trkpt lat="46.50093" lon="5.30317">
        <ele>206.2</ele>
        <time>2021-11-04T13:32:09Z</time>
      </trkpt>
      <trkpt lat="46.50099" lon="5.30315">
        <ele>206.4</ele>
        <time>2021-11-04T13:32:10Z</time>
      </trkpt>
      <trkpt lat="46.50124" lon="5.30308">
        <ele>207.4</ele>
        <time>2021-11-04T13:32:14Z</time>
      </trkpt>
      <trkpt lat="46.5013" lon="5.30306">
        <ele>207.6</ele>
        <time>2021-11-04T13:32:15Z</time>
      </trkpt>
      <trkpt lat="46.50175" lon="5.30295">
        <ele>208.6</ele>
        <time>2021-11-04T13:32:22Z</time>
      </trkpt>
      <trkpt lat="46.50228" lon="5.3027">
        <ele>209.8</ele>
        <time>2021-11-04T13:32:31Z</time>
      </trkpt>
      <trkpt lat="46.50248" lon="5.3026">
        <ele>211</ele>
        <time>2021-11-04T13:32:35Z</time>
      </trkpt>
      <trkpt lat="46.50254" lon="5.30257">
        <ele>211.2</ele>
        <time>2021-11-04T13:32:36Z</time>
      </trkpt>
      <trkpt lat="46.5028" lon="5.30248">
        <ele>212</ele>
        <time>2021-11-04T13:32:41Z</time>
      </trkpt>
      <trkpt lat="46.50296" lon="5.30245">
        <ele>212.4</ele>
        <time>2021-11-04T13:32:44Z</time>
      </trkpt>
      <trkpt lat="46.50318" lon="5.3024">
        <ele>213.2</ele>
        <time>2021-11-04T13:32:48Z</time>
      </trkpt>
      <trkpt lat="46.50348" lon="5.30235">
        <ele>213.8</ele>
        <time>2021-11-04T13:32:54Z</time>
      </trkpt>
      <trkpt lat="46.50359" lon="5.30233">
        <ele>214.2</ele>
        <time>2021-11-04T13:32:56Z</time>
      </trkpt>
      <trkpt lat="46.5041" lon="5.30226">
        <ele>214.8</ele>
        <time>2021-11-04T13:33:05Z</time>
      </trkpt>
      <trkpt lat="46.50459" lon="5.30213">
        <ele>215</ele>
        <time>2021-11-04T13:33:13Z</time>
      </trkpt>
      <trkpt lat="46.50499" lon="5.30193">
        <ele>214.6</ele>
        <time>2021-11-04T13:33:19Z</time>
      </trkpt>
      <trkpt lat="46.5055" lon="5.30166">
        <ele>213</ele>
        <time>2021-11-04T13:33:26Z</time>
      </trkpt>
      <trkpt lat="46.50563" lon="5.30159">
        <ele>213</ele>
        <time>2021-11-04T13:33:28Z</time>
      </trkpt>
      <trkpt lat="46.50616" lon="5.30131">
        <ele>213</ele>
        <time>2021-11-04T13:33:36Z</time>
      </trkpt>
      <trkpt lat="46.50672" lon="5.30109">
        <ele>213</ele>
        <time>2021-11-04T13:33:44Z</time>
      </trkpt>
      <trkpt lat="46.50729" lon="5.30095">
        <ele>212.8</ele>
        <time>2021-11-04T13:33:52Z</time>
      </trkpt>
      <trkpt lat="46.50744" lon="5.30093">
        <ele>212.8</ele>
        <time>2021-11-04T13:33:54Z</time>
      </trkpt>
      <trkpt lat="46.50774" lon="5.30093">
        <ele>212.2</ele>
        <time>2021-11-04T13:33:58Z</time>
      </trkpt>
      <trkpt lat="46.50796" lon="5.30095">
        <ele>212</ele>
        <time>2021-11-04T13:34:01Z</time>
      </trkpt>
      <trkpt lat="46.50854" lon="5.30101">
        <ele>211.8</ele>
        <time>2021-11-04T13:34:09Z</time>
      </trkpt>
      <trkpt lat="46.50902" lon="5.30122">
        <ele>212</ele>
        <time>2021-11-04T13:34:16Z</time>
      </trkpt>
      <trkpt lat="46.50957" lon="5.3015">
        <ele>211.8</ele>
        <time>2021-11-04T13:34:24Z</time>
      </trkpt>
      <trkpt lat="46.50994" lon="5.30171">
        <ele>211.4</ele>
        <time>2021-11-04T13:34:29Z</time>
      </trkpt>
      <trkpt lat="46.51019" lon="5.30189">
        <ele>210.8</ele>
        <time>2021-11-04T13:34:32Z</time>
      </trkpt>
      <trkpt lat="46.51037" lon="5.30204">
        <ele>209.2</ele>
        <time>2021-11-04T13:34:34Z</time>
      </trkpt>
      <trkpt lat="46.51055" lon="5.30221">
        <ele>208</ele>
        <time>2021-11-04T13:34:36Z</time>
      </trkpt>
      <trkpt lat="46.51073" lon="5.3024">
        <ele>206.8</ele>
        <time>2021-11-04T13:34:38Z</time>
      </trkpt>
      <trkpt lat="46.51089" lon="5.30259">
        <ele>205.4</ele>
        <time>2021-11-04T13:34:40Z</time>
      </trkpt>
      <trkpt lat="46.51106" lon="5.30279">
        <ele>204.2</ele>
        <time>2021-11-04T13:34:42Z</time>
      </trkpt>
      <trkpt lat="46.51114" lon="5.30289">
        <ele>203</ele>
        <time>2021-11-04T13:34:43Z</time>
      </trkpt>
      <trkpt lat="46.51133" lon="5.30307">
        <ele>202</ele>
        <time>2021-11-04T13:34:45Z</time>
      </trkpt>
      <trkpt lat="46.51153" lon="5.30321">
        <ele>201.2</ele>
        <time>2021-11-04T13:34:47Z</time>
      </trkpt>
      <trkpt lat="46.51164" lon="5.30326">
        <ele>200.2</ele>
        <time>2021-11-04T13:34:48Z</time>
      </trkpt>
      <trkpt lat="46.51175" lon="5.3033">
        <ele>200</ele>
        <time>2021-11-04T13:34:49Z</time>
      </trkpt>
      <trkpt lat="46.51186" lon="5.30333">
        <ele>198.8</ele>
        <time>2021-11-04T13:34:50Z</time>
      </trkpt>
      <trkpt lat="46.51209" lon="5.30335">
        <ele>197</ele>
        <time>2021-11-04T13:34:52Z</time>
      </trkpt>
      <trkpt lat="46.51219" lon="5.30333">
        <ele>196.2</ele>
        <time>2021-11-04T13:34:53Z</time>
      </trkpt>
      <trkpt lat="46.5123" lon="5.30331">
        <ele>195.8</ele>
        <time>2021-11-04T13:34:54Z</time>
      </trkpt>
      <trkpt lat="46.51269" lon="5.30318">
        <ele>194.8</ele>
        <time>2021-11-04T13:34:58Z</time>
      </trkpt>
      <trkpt lat="46.51322" lon="5.30296">
        <ele>194.4</ele>
        <time>2021-11-04T13:35:04Z</time>
      </trkpt>
      <trkpt lat="46.5133" lon="5.30291">
        <ele>194.4</ele>
        <time>2021-11-04T13:35:05Z</time>
      </trkpt>
      <trkpt lat="46.5136" lon="5.30268">
        <ele>194.4</ele>
        <time>2021-11-04T13:35:09Z</time>
      </trkpt>
      <trkpt lat="46.51368" lon="5.30264">
        <ele>194.4</ele>
        <time>2021-11-04T13:35:10Z</time>
      </trkpt>
      <trkpt lat="46.51376" lon="5.30263">
        <ele>194.4</ele>
        <time>2021-11-04T13:35:11Z</time>
      </trkpt>
      <trkpt lat="46.51387" lon="5.30261">
        <ele>194.4</ele>
        <time>2021-11-04T13:35:13Z</time>
      </trkpt>
      <trkpt lat="46.51391" lon="5.30249">
        <ele>194.4</ele>
        <time>2021-11-04T13:35:15Z</time>
      </trkpt>
      <trkpt lat="46.51394" lon="5.30235">
        <ele>194.4</ele>
        <time>2021-11-04T13:35:17Z</time>
      </trkpt>
      <trkpt lat="46.51399" lon="5.3022">
        <ele>194.4</ele>
        <time>2021-11-04T13:35:19Z</time>
      </trkpt>
      <trkpt lat="46.51421" lon="5.30166">
        <ele>195.2</ele>
        <time>2021-11-04T13:35:27Z</time>
      </trkpt>
      <trkpt lat="46.51424" lon="5.30153">
        <ele>196</ele>
        <time>2021-11-04T13:35:29Z</time>
      </trkpt>
      <trkpt lat="46.51432" lon="5.30128">
        <ele>197.2</ele>
        <time>2021-11-04T13:35:33Z</time>
      </trkpt>
      <trkpt lat="46.51435" lon="5.30117">
        <ele>197.8</ele>
        <time>2021-11-04T13:35:35Z</time>
      </trkpt>
      <trkpt lat="46.51437" lon="5.30111">
        <ele>198.4</ele>
        <time>2021-11-04T13:35:36Z</time>
      </trkpt>
      <trkpt lat="46.51444" lon="5.3009">
        <ele>199.6</ele>
        <time>2021-11-04T13:35:40Z</time>
      </trkpt>
      <trkpt lat="46.51449" lon="5.30072">
        <ele>200.4</ele>
        <time>2021-11-04T13:35:43Z</time>
      </trkpt>
      <trkpt lat="46.5145" lon="5.30067">
        <ele>200.6</ele>
        <time>2021-11-04T13:35:44Z</time>
      </trkpt>
      <trkpt lat="46.51456" lon="5.30044">
        <ele>201.8</ele>
        <time>2021-11-04T13:35:48Z</time>
      </trkpt>
      <trkpt lat="46.5146" lon="5.30026">
        <ele>202.8</ele>
        <time>2021-11-04T13:35:51Z</time>
      </trkpt>
      <trkpt lat="46.51465" lon="5.30008">
        <ele>203.6</ele>
        <time>2021-11-04T13:35:54Z</time>
      </trkpt>
      <trkpt lat="46.5147" lon="5.29996">
        <ele>204</ele>
        <time>2021-11-04T13:35:56Z</time>
      </trkpt>
      <trkpt lat="46.5148" lon="5.29965">
        <ele>204.4</ele>
        <time>2021-11-04T13:36:01Z</time>
      </trkpt>
      <trkpt lat="46.51491" lon="5.29933">
        <ele>205</ele>
        <time>2021-11-04T13:36:06Z</time>
      </trkpt>
      <trkpt lat="46.51503" lon="5.29897">
        <ele>205.2</ele>
        <time>2021-11-04T13:36:11Z</time>
      </trkpt>
      <trkpt lat="46.51519" lon="5.29856">
        <ele>205</ele>
        <time>2021-11-04T13:36:16Z</time>
      </trkpt>
      <trkpt lat="46.51521" lon="5.29847">
        <ele>205</ele>
        <time>2021-11-04T13:36:17Z</time>
      </trkpt>
      <trkpt lat="46.51537" lon="5.29796">
        <ele>204.4</ele>
        <time>2021-11-04T13:36:23Z</time>
      </trkpt>
      <trkpt lat="46.51549" lon="5.29752">
        <ele>203.8</ele>
        <time>2021-11-04T13:36:27Z</time>
      </trkpt>
      <trkpt lat="46.51559" lon="5.29717">
        <ele>202.6</ele>
        <time>2021-11-04T13:36:30Z</time>
      </trkpt>
      <trkpt lat="46.51573" lon="5.29666">
        <ele>201.6</ele>
        <time>2021-11-04T13:36:35Z</time>
      </trkpt>
      <trkpt lat="46.51574" lon="5.29657">
        <ele>201.6</ele>
        <time>2021-11-04T13:36:36Z</time>
      </trkpt>
      <trkpt lat="46.51575" lon="5.29633">
        <ele>202</ele>
        <time>2021-11-04T13:36:39Z</time>
      </trkpt>
      <trkpt lat="46.51576" lon="5.29603">
        <ele>203.8</ele>
        <time>2021-11-04T13:36:43Z</time>
      </trkpt>
      <trkpt lat="46.51579" lon="5.29581">
        <ele>205</ele>
        <time>2021-11-04T13:36:46Z</time>
      </trkpt>
      <trkpt lat="46.5159" lon="5.29544">
        <ele>206.2</ele>
        <time>2021-11-04T13:36:51Z</time>
      </trkpt>
      <trkpt lat="46.51598" lon="5.29514">
        <ele>206.8</ele>
        <time>2021-11-04T13:36:55Z</time>
      </trkpt>
      <trkpt lat="46.51599" lon="5.29507">
        <ele>206.8</ele>
        <time>2021-11-04T13:36:56Z</time>
      </trkpt>
      <trkpt lat="46.51601" lon="5.29491">
        <ele>207.4</ele>
        <time>2021-11-04T13:36:58Z</time>
      </trkpt>
      <trkpt lat="46.51602" lon="5.29483">
        <ele>207.4</ele>
        <time>2021-11-04T13:36:59Z</time>
      </trkpt>
      <trkpt lat="46.51602" lon="5.29475">
        <ele>207.6</ele>
        <time>2021-11-04T13:37:00Z</time>
      </trkpt>
      <trkpt lat="46.516" lon="5.29418">
        <ele>208.4</ele>
        <time>2021-11-04T13:37:07Z</time>
      </trkpt>
      <trkpt lat="46.516" lon="5.2941">
        <ele>208.6</ele>
        <time>2021-11-04T13:37:08Z</time>
      </trkpt>
      <trkpt lat="46.516" lon="5.2936">
        <ele>209.4</ele>
        <time>2021-11-04T13:37:14Z</time>
      </trkpt>
      <trkpt lat="46.51607" lon="5.2929">
        <ele>209.4</ele>
        <time>2021-11-04T13:37:22Z</time>
      </trkpt>
      <trkpt lat="46.51615" lon="5.29217">
        <ele>208</ele>
        <time>2021-11-04T13:37:29Z</time>
      </trkpt>
      <trkpt lat="46.51614" lon="5.29183">
        <ele>207.4</ele>
        <time>2021-11-04T13:37:32Z</time>
      </trkpt>
      <trkpt lat="46.51612" lon="5.29172">
        <ele>207.2</ele>
        <time>2021-11-04T13:37:33Z</time>
      </trkpt>
      <trkpt lat="46.51605" lon="5.29136">
        <ele>206</ele>
        <time>2021-11-04T13:37:36Z</time>
      </trkpt>
      <trkpt lat="46.51604" lon="5.29125">
        <ele>205.6</ele>
        <time>2021-11-04T13:37:37Z</time>
      </trkpt>
      <trkpt lat="46.51604" lon="5.29113">
        <ele>205</ele>
        <time>2021-11-04T13:37:38Z</time>
      </trkpt>
      <trkpt lat="46.51605" lon="5.29101">
        <ele>204.6</ele>
        <time>2021-11-04T13:37:39Z</time>
      </trkpt>
      <trkpt lat="46.51611" lon="5.29078">
        <ele>204.4</ele>
        <time>2021-11-04T13:37:41Z</time>
      </trkpt>
      <trkpt lat="46.51628" lon="5.29041">
        <ele>203.8</ele>
        <time>2021-11-04T13:37:45Z</time>
      </trkpt>
      <trkpt lat="46.51638" lon="5.29012">
        <ele>203.8</ele>
        <time>2021-11-04T13:37:48Z</time>
      </trkpt>
      <trkpt lat="46.5164" lon="5.29001">
        <ele>203.8</ele>
        <time>2021-11-04T13:37:49Z</time>
      </trkpt>
      <trkpt lat="46.51643" lon="5.28933">
        <ele>205</ele>
        <time>2021-11-04T13:37:55Z</time>
      </trkpt>
      <trkpt lat="46.51647" lon="5.28904">
        <ele>205.6</ele>
        <time>2021-11-04T13:37:58Z</time>
      </trkpt>
      <trkpt lat="46.51649" lon="5.28895">
        <ele>206</ele>
        <time>2021-11-04T13:37:59Z</time>
      </trkpt>
      <trkpt lat="46.51652" lon="5.28886">
        <ele>206.2</ele>
        <time>2021-11-04T13:38:00Z</time>
      </trkpt>
      <trkpt lat="46.51667" lon="5.28843">
        <ele>207</ele>
        <time>2021-11-04T13:38:05Z</time>
      </trkpt>
      <trkpt lat="46.51672" lon="5.28834">
        <ele>207</ele>
        <time>2021-11-04T13:38:06Z</time>
      </trkpt>
      <trkpt lat="46.51701" lon="5.28773">
        <ele>205.4</ele>
        <time>2021-11-04T13:38:12Z</time>
      </trkpt>
      <trkpt lat="46.51705" lon="5.28763">
        <ele>204.6</ele>
        <time>2021-11-04T13:38:13Z</time>
      </trkpt>
      <trkpt lat="46.51715" lon="5.28742">
        <ele>204</ele>
        <time>2021-11-04T13:38:15Z</time>
      </trkpt>
      <trkpt lat="46.51722" lon="5.28733">
        <ele>203.6</ele>
        <time>2021-11-04T13:38:16Z</time>
      </trkpt>
      <trkpt lat="46.51729" lon="5.28724">
        <ele>202.2</ele>
        <time>2021-11-04T13:38:17Z</time>
      </trkpt>
      <trkpt lat="46.51747" lon="5.28712">
        <ele>200.2</ele>
        <time>2021-11-04T13:38:19Z</time>
      </trkpt>
      <trkpt lat="46.51765" lon="5.28702">
        <ele>199</ele>
        <time>2021-11-04T13:38:21Z</time>
      </trkpt>
      <trkpt lat="46.51774" lon="5.28698">
        <ele>197.8</ele>
        <time>2021-11-04T13:38:22Z</time>
      </trkpt>
      <trkpt lat="46.51792" lon="5.28693">
        <ele>196.2</ele>
        <time>2021-11-04T13:38:24Z</time>
      </trkpt>
      <trkpt lat="46.51809" lon="5.28691">
        <ele>195</ele>
        <time>2021-11-04T13:38:26Z</time>
      </trkpt>
      <trkpt lat="46.51818" lon="5.28692">
        <ele>194.8</ele>
        <time>2021-11-04T13:38:27Z</time>
      </trkpt>
      <trkpt lat="46.51827" lon="5.28693">
        <ele>194.4</ele>
        <time>2021-11-04T13:38:28Z</time>
      </trkpt>
      <trkpt lat="46.51836" lon="5.28695">
        <ele>194</ele>
        <time>2021-11-04T13:38:29Z</time>
      </trkpt>
      <trkpt lat="46.51861" lon="5.28707">
        <ele>193.2</ele>
        <time>2021-11-04T13:38:32Z</time>
      </trkpt>
      <trkpt lat="46.51869" lon="5.28713">
        <ele>193</ele>
        <time>2021-11-04T13:38:33Z</time>
      </trkpt>
      <trkpt lat="46.51899" lon="5.28739">
        <ele>192.2</ele>
        <time>2021-11-04T13:38:37Z</time>
      </trkpt>
      <trkpt lat="46.51915" lon="5.28745">
        <ele>192</ele>
        <time>2021-11-04T13:38:39Z</time>
      </trkpt>
      <trkpt lat="46.51924" lon="5.28747">
        <ele>191.8</ele>
        <time>2021-11-04T13:38:40Z</time>
      </trkpt>
      <trkpt lat="46.51933" lon="5.28748">
        <ele>191.6</ele>
        <time>2021-11-04T13:38:41Z</time>
      </trkpt>
      <trkpt lat="46.51976" lon="5.2875">
        <ele>191</ele>
        <time>2021-11-04T13:38:46Z</time>
      </trkpt>
      <trkpt lat="46.51985" lon="5.28747">
        <ele>190.8</ele>
        <time>2021-11-04T13:38:47Z</time>
      </trkpt>
      <trkpt lat="46.52003" lon="5.28741">
        <ele>190.4</ele>
        <time>2021-11-04T13:38:49Z</time>
      </trkpt>
      <trkpt lat="46.5202" lon="5.2873">
        <ele>189.6</ele>
        <time>2021-11-04T13:38:51Z</time>
      </trkpt>
      <trkpt lat="46.52054" lon="5.28717">
        <ele>188.8</ele>
        <time>2021-11-04T13:38:55Z</time>
      </trkpt>
      <trkpt lat="46.52063" lon="5.28715">
        <ele>188.6</ele>
        <time>2021-11-04T13:38:56Z</time>
      </trkpt>
      <trkpt lat="46.52106" lon="5.28706">
        <ele>188.2</ele>
        <time>2021-11-04T13:39:01Z</time>
      </trkpt>
      <trkpt lat="46.52163" lon="5.28686">
        <ele>187.8</ele>
        <time>2021-11-04T13:39:08Z</time>
      </trkpt>
      <trkpt lat="46.52179" lon="5.2868">
        <ele>187.8</ele>
        <time>2021-11-04T13:39:10Z</time>
      </trkpt>
      <trkpt lat="46.52224" lon="5.28663">
        <ele>187.6</ele>
        <time>2021-11-04T13:39:16Z</time>
      </trkpt>
      <trkpt lat="46.52238" lon="5.2866">
        <ele>187.4</ele>
        <time>2021-11-04T13:39:18Z</time>
      </trkpt>
      <trkpt lat="46.52277" lon="5.28657">
        <ele>188</ele>
        <time>2021-11-04T13:39:24Z</time>
      </trkpt>
      <trkpt lat="46.52294" lon="5.28656">
        <ele>188.6</ele>
        <time>2021-11-04T13:39:27Z</time>
      </trkpt>
      <trkpt lat="46.523" lon="5.28655">
        <ele>189</ele>
        <time>2021-11-04T13:39:28Z</time>
      </trkpt>
      <trkpt lat="46.52311" lon="5.28655">
        <ele>189.4</ele>
        <time>2021-11-04T13:39:30Z</time>
      </trkpt>
      <trkpt lat="46.52323" lon="5.28653">
        <ele>189.8</ele>
        <time>2021-11-04T13:39:32Z</time>
      </trkpt>
      <trkpt lat="46.5235" lon="5.28649">
        <ele>190.6</ele>
        <time>2021-11-04T13:39:37Z</time>
      </trkpt>
      <trkpt lat="46.5236" lon="5.28648">
        <ele>191</ele>
        <time>2021-11-04T13:39:39Z</time>
      </trkpt>
      <trkpt lat="46.52378" lon="5.28644">
        <ele>192</ele>
        <time>2021-11-04T13:39:43Z</time>
      </trkpt>
      <trkpt lat="46.52387" lon="5.28642">
        <ele>192.4</ele>
        <time>2021-11-04T13:39:45Z</time>
      </trkpt>
      <trkpt lat="46.52401" lon="5.28638">
        <ele>193</ele>
        <time>2021-11-04T13:39:48Z</time>
      </trkpt>
      <trkpt lat="46.52419" lon="5.28634">
        <ele>194.2</ele>
        <time>2021-11-04T13:39:52Z</time>
      </trkpt>
      <trkpt lat="46.52437" lon="5.28631">
        <ele>195.2</ele>
        <time>2021-11-04T13:39:56Z</time>
      </trkpt>
      <trkpt lat="46.52441" lon="5.2863">
        <ele>195.6</ele>
        <time>2021-11-04T13:39:57Z</time>
      </trkpt>
      <trkpt lat="46.52463" lon="5.28626">
        <ele>197</ele>
        <time>2021-11-04T13:40:02Z</time>
      </trkpt>
      <trkpt lat="46.52471" lon="5.28625">
        <ele>197.4</ele>
        <time>2021-11-04T13:40:04Z</time>
      </trkpt>
      <trkpt lat="46.5248" lon="5.28624">
        <ele>197.8</ele>
        <time>2021-11-04T13:40:06Z</time>
      </trkpt>
      <trkpt lat="46.52488" lon="5.28622">
        <ele>198.2</ele>
        <time>2021-11-04T13:40:08Z</time>
      </trkpt>
      <trkpt lat="46.52496" lon="5.28622">
        <ele>198.8</ele>
        <time>2021-11-04T13:40:10Z</time>
      </trkpt>
      <trkpt lat="46.52508" lon="5.28619">
        <ele>199.4</ele>
        <time>2021-11-04T13:40:13Z</time>
      </trkpt>
      <trkpt lat="46.52523" lon="5.28617">
        <ele>200.4</ele>
        <time>2021-11-04T13:40:17Z</time>
      </trkpt>
      <trkpt lat="46.52535" lon="5.28615">
        <ele>201</ele>
        <time>2021-11-04T13:40:20Z</time>
      </trkpt>
      <trkpt lat="46.52543" lon="5.28614">
        <ele>201.4</ele>
        <time>2021-11-04T13:40:22Z</time>
      </trkpt>
      <trkpt lat="46.52573" lon="5.28609">
        <ele>202.6</ele>
        <time>2021-11-04T13:40:29Z</time>
      </trkpt>
      <trkpt lat="46.52581" lon="5.28607">
        <ele>202.8</ele>
        <time>2021-11-04T13:40:31Z</time>
      </trkpt>
      <trkpt lat="46.52611" lon="5.28608">
        <ele>203.6</ele>
        <time>2021-11-04T13:40:38Z</time>
      </trkpt>
      <trkpt lat="46.52615" lon="5.28609">
        <ele>203.6</ele>
        <time>2021-11-04T13:40:39Z</time>
      </trkpt>
      <trkpt lat="46.5264" lon="5.28617">
        <ele>204.8</ele>
        <time>2021-11-04T13:40:45Z</time>
      </trkpt>
      <trkpt lat="46.52649" lon="5.2862">
        <ele>205</ele>
        <time>2021-11-04T13:40:47Z</time>
      </trkpt>
      <trkpt lat="46.52663" lon="5.28624">
        <ele>205.4</ele>
        <time>2021-11-04T13:40:50Z</time>
      </trkpt>
      <trkpt lat="46.52673" lon="5.28625">
        <ele>205.8</ele>
        <time>2021-11-04T13:40:52Z</time>
      </trkpt>
      <trkpt lat="46.52678" lon="5.28625">
        <ele>205.8</ele>
        <time>2021-11-04T13:40:53Z</time>
      </trkpt>
      <trkpt lat="46.52683" lon="5.28625">
        <ele>205.8</ele>
        <time>2021-11-04T13:40:54Z</time>
      </trkpt>
      <trkpt lat="46.52714" lon="5.2862">
        <ele>206</ele>
        <time>2021-11-04T13:41:00Z</time>
      </trkpt>
      <trkpt lat="46.52743" lon="5.28615">
        <ele>206.2</ele>
        <time>2021-11-04T13:41:05Z</time>
      </trkpt>
      <trkpt lat="46.52787" lon="5.28607">
        <ele>206.8</ele>
        <time>2021-11-04T13:41:13Z</time>
      </trkpt>
      <trkpt lat="46.52834" lon="5.28599">
        <ele>207.8</ele>
        <time>2021-11-04T13:41:22Z</time>
      </trkpt>
      <trkpt lat="46.52845" lon="5.28597">
        <ele>207.8</ele>
        <time>2021-11-04T13:41:24Z</time>
      </trkpt>
      <trkpt lat="46.52886" lon="5.28589">
        <ele>208.2</ele>
        <time>2021-11-04T13:41:31Z</time>
      </trkpt>
      <trkpt lat="46.52938" lon="5.28578">
        <ele>208.2</ele>
        <time>2021-11-04T13:41:40Z</time>
      </trkpt>
      <trkpt lat="46.52984" lon="5.2857">
        <ele>208</ele>
        <time>2021-11-04T13:41:47Z</time>
      </trkpt>
      <trkpt lat="46.53041" lon="5.2856">
        <ele>206.8</ele>
        <time>2021-11-04T13:41:55Z</time>
      </trkpt>
      <trkpt lat="46.53057" lon="5.28557">
        <ele>206.4</ele>
        <time>2021-11-04T13:41:57Z</time>
      </trkpt>
      <trkpt lat="46.53081" lon="5.28552">
        <ele>205.4</ele>
        <time>2021-11-04T13:42:00Z</time>
      </trkpt>
      <trkpt lat="46.53097" lon="5.28548">
        <ele>205</ele>
        <time>2021-11-04T13:42:02Z</time>
      </trkpt>
      <trkpt lat="46.53144" lon="5.28537">
        <ele>204</ele>
        <time>2021-11-04T13:42:08Z</time>
      </trkpt>
      <trkpt lat="46.5316" lon="5.28534">
        <ele>203.6</ele>
        <time>2021-11-04T13:42:10Z</time>
      </trkpt>
      <trkpt lat="46.53185" lon="5.28529">
        <ele>202.8</ele>
        <time>2021-11-04T13:42:13Z</time>
      </trkpt>
      <trkpt lat="46.53221" lon="5.28524">
        <ele>201.6</ele>
        <time>2021-11-04T13:42:17Z</time>
      </trkpt>
      <trkpt lat="46.5325" lon="5.28522">
        <ele>200.2</ele>
        <time>2021-11-04T13:42:20Z</time>
      </trkpt>
      <trkpt lat="46.53279" lon="5.28522">
        <ele>198.8</ele>
        <time>2021-11-04T13:42:23Z</time>
      </trkpt>
      <trkpt lat="46.53289" lon="5.28522">
        <ele>198</ele>
        <time>2021-11-04T13:42:24Z</time>
      </trkpt>
      <trkpt lat="46.53299" lon="5.28523">
        <ele>197.4</ele>
        <time>2021-11-04T13:42:25Z</time>
      </trkpt>
      <trkpt lat="46.53327" lon="5.28527">
        <ele>196.4</ele>
        <time>2021-11-04T13:42:28Z</time>
      </trkpt>
      <trkpt lat="46.53335" lon="5.2853">
        <ele>196</ele>
        <time>2021-11-04T13:42:29Z</time>
      </trkpt>
      <trkpt lat="46.53364" lon="5.28547">
        <ele>195.8</ele>
        <time>2021-11-04T13:42:33Z</time>
      </trkpt>
      <trkpt lat="46.53394" lon="5.28567">
        <ele>197.2</ele>
        <time>2021-11-04T13:42:38Z</time>
      </trkpt>
      <trkpt lat="46.53399" lon="5.2857">
        <ele>197.6</ele>
        <time>2021-11-04T13:42:39Z</time>
      </trkpt>
      <trkpt lat="46.53413" lon="5.2858">
        <ele>198.8</ele>
        <time>2021-11-04T13:42:42Z</time>
      </trkpt>
      <trkpt lat="46.53427" lon="5.28588">
        <ele>199.8</ele>
        <time>2021-11-04T13:42:45Z</time>
      </trkpt>
      <trkpt lat="46.53445" lon="5.28595">
        <ele>201</ele>
        <time>2021-11-04T13:42:49Z</time>
      </trkpt>
      <trkpt lat="46.53454" lon="5.28597">
        <ele>201.8</ele>
        <time>2021-11-04T13:42:51Z</time>
      </trkpt>
      <trkpt lat="46.53458" lon="5.28597">
        <ele>202.2</ele>
        <time>2021-11-04T13:42:52Z</time>
      </trkpt>
      <trkpt lat="46.53475" lon="5.28601">
        <ele>203.4</ele>
        <time>2021-11-04T13:42:56Z</time>
      </trkpt>
      <trkpt lat="46.53486" lon="5.28602">
        <ele>204</ele>
        <time>2021-11-04T13:42:58Z</time>
      </trkpt>
      <trkpt lat="46.53498" lon="5.28603">
        <ele>204.8</ele>
        <time>2021-11-04T13:43:01Z</time>
      </trkpt>
      <trkpt lat="46.53521" lon="5.28605">
        <ele>205.8</ele>
        <time>2021-11-04T13:43:06Z</time>
      </trkpt>
      <trkpt lat="46.53563" lon="5.28608">
        <ele>206.8</ele>
        <time>2021-11-04T13:43:14Z</time>
      </trkpt>
      <trkpt lat="46.53599" lon="5.2861">
        <ele>207.6</ele>
        <time>2021-11-04T13:43:21Z</time>
      </trkpt>
      <trkpt lat="46.5362" lon="5.28612">
        <ele>208</ele>
        <time>2021-11-04T13:43:25Z</time>
      </trkpt>
      <trkpt lat="46.53653" lon="5.28615">
        <ele>208.6</ele>
        <time>2021-11-04T13:43:31Z</time>
      </trkpt>
      <trkpt lat="46.53685" lon="5.28615">
        <ele>209</ele>
        <time>2021-11-04T13:43:37Z</time>
      </trkpt>
      <trkpt lat="46.53702" lon="5.28617">
        <ele>209.2</ele>
        <time>2021-11-04T13:43:40Z</time>
      </trkpt>
      <trkpt lat="46.53751" lon="5.28621">
        <ele>209.6</ele>
        <time>2021-11-04T13:43:48Z</time>
      </trkpt>
      <trkpt lat="46.5378" lon="5.28621">
        <ele>209.8</ele>
        <time>2021-11-04T13:43:53Z</time>
      </trkpt>
      <trkpt lat="46.53804" lon="5.28623">
        <ele>209.8</ele>
        <time>2021-11-04T13:43:57Z</time>
      </trkpt>
      <trkpt lat="46.5386" lon="5.28628">
        <ele>209.8</ele>
        <time>2021-11-04T13:44:06Z</time>
      </trkpt>
      <trkpt lat="46.53866" lon="5.28629">
        <ele>209.8</ele>
        <time>2021-11-04T13:44:07Z</time>
      </trkpt>
      <trkpt lat="46.53922" lon="5.28633">
        <ele>209.6</ele>
        <time>2021-11-04T13:44:16Z</time>
      </trkpt>
      <trkpt lat="46.53966" lon="5.28635">
        <ele>208.8</ele>
        <time>2021-11-04T13:44:22Z</time>
      </trkpt>
      <trkpt lat="46.53988" lon="5.28635">
        <ele>208</ele>
        <time>2021-11-04T13:44:25Z</time>
      </trkpt>
      <trkpt lat="46.54003" lon="5.28637">
        <ele>207.8</ele>
        <time>2021-11-04T13:44:27Z</time>
      </trkpt>
      <trkpt lat="46.54011" lon="5.28638">
        <ele>207.8</ele>
        <time>2021-11-04T13:44:28Z</time>
      </trkpt>
      <trkpt lat="46.54071" lon="5.28644">
        <ele>207</ele>
        <time>2021-11-04T13:44:36Z</time>
      </trkpt>
      <trkpt lat="46.54077" lon="5.28644">
        <ele>207</ele>
        <time>2021-11-04T13:44:37Z</time>
      </trkpt>
      <trkpt lat="46.5412" lon="5.28648">
        <ele>206.6</ele>
        <time>2021-11-04T13:44:43Z</time>
      </trkpt>
      <trkpt lat="46.54143" lon="5.28648">
        <ele>206.4</ele>
        <time>2021-11-04T13:44:46Z</time>
      </trkpt>
      <trkpt lat="46.54177" lon="5.2864">
        <ele>207.8</ele>
        <time>2021-11-04T13:44:50Z</time>
      </trkpt>
      <trkpt lat="46.54185" lon="5.28637">
        <ele>205.4</ele>
        <time>2021-11-04T13:44:51Z</time>
      </trkpt>
      <trkpt lat="46.54213" lon="5.28623">
        <ele>204.4</ele>
        <time>2021-11-04T13:44:54Z</time>
      </trkpt>
      <trkpt lat="46.54232" lon="5.28611">
        <ele>203.2</ele>
        <time>2021-11-04T13:44:56Z</time>
      </trkpt>
      <trkpt lat="46.54241" lon="5.28605">
        <ele>202.2</ele>
        <time>2021-11-04T13:44:57Z</time>
      </trkpt>
      <trkpt lat="46.54259" lon="5.28592">
        <ele>200.8</ele>
        <time>2021-11-04T13:44:59Z</time>
      </trkpt>
      <trkpt lat="46.54277" lon="5.28578">
        <ele>199.4</ele>
        <time>2021-11-04T13:45:01Z</time>
      </trkpt>
      <trkpt lat="46.54314" lon="5.28552">
        <ele>198</ele>
        <time>2021-11-04T13:45:05Z</time>
      </trkpt>
      <trkpt lat="46.54332" lon="5.28538">
        <ele>197</ele>
        <time>2021-11-04T13:45:07Z</time>
      </trkpt>
      <trkpt lat="46.54341" lon="5.28531">
        <ele>196.4</ele>
        <time>2021-11-04T13:45:08Z</time>
      </trkpt>
      <trkpt lat="46.54368" lon="5.28509">
        <ele>195.2</ele>
        <time>2021-11-04T13:45:11Z</time>
      </trkpt>
      <trkpt lat="46.54395" lon="5.28488">
        <ele>193.8</ele>
        <time>2021-11-04T13:45:14Z</time>
      </trkpt>
      <trkpt lat="46.54411" lon="5.28473">
        <ele>192.8</ele>
        <time>2021-11-04T13:45:16Z</time>
      </trkpt>
      <trkpt lat="46.54437" lon="5.28453">
        <ele>192</ele>
        <time>2021-11-04T13:45:19Z</time>
      </trkpt>
      <trkpt lat="46.54446" lon="5.2845">
        <ele>191.8</ele>
        <time>2021-11-04T13:45:20Z</time>
      </trkpt>
      <trkpt lat="46.54455" lon="5.28449">
        <ele>191.6</ele>
        <time>2021-11-04T13:45:21Z</time>
      </trkpt>
      <trkpt lat="46.54482" lon="5.2845">
        <ele>191</ele>
        <time>2021-11-04T13:45:24Z</time>
      </trkpt>
      <trkpt lat="46.54517" lon="5.28449">
        <ele>190.6</ele>
        <time>2021-11-04T13:45:28Z</time>
      </trkpt>
      <trkpt lat="46.54533" lon="5.28447">
        <ele>190.4</ele>
        <time>2021-11-04T13:45:30Z</time>
      </trkpt>
      <trkpt lat="46.5455" lon="5.28446">
        <ele>190.4</ele>
        <time>2021-11-04T13:45:32Z</time>
      </trkpt>
      <trkpt lat="46.54566" lon="5.28449">
        <ele>190.4</ele>
        <time>2021-11-04T13:45:34Z</time>
      </trkpt>
      <trkpt lat="46.54595" lon="5.28455">
        <ele>190.4</ele>
        <time>2021-11-04T13:45:38Z</time>
      </trkpt>
      <trkpt lat="46.54637" lon="5.28451">
        <ele>191.6</ele>
        <time>2021-11-04T13:45:44Z</time>
      </trkpt>
      <trkpt lat="46.54669" lon="5.28439">
        <ele>192.6</ele>
        <time>2021-11-04T13:45:49Z</time>
      </trkpt>
      <trkpt lat="46.54681" lon="5.28433">
        <ele>193</ele>
        <time>2021-11-04T13:45:51Z</time>
      </trkpt>
      <trkpt lat="46.54703" lon="5.28419">
        <ele>193.8</ele>
        <time>2021-11-04T13:45:55Z</time>
      </trkpt>
      <trkpt lat="46.5472" lon="5.2841">
        <ele>194.4</ele>
        <time>2021-11-04T13:45:58Z</time>
      </trkpt>
      <trkpt lat="46.54741" lon="5.28402">
        <ele>195</ele>
        <time>2021-11-04T13:46:02Z</time>
      </trkpt>
      <trkpt lat="46.54756" lon="5.28392">
        <ele>195.8</ele>
        <time>2021-11-04T13:46:05Z</time>
      </trkpt>
      <trkpt lat="46.5476" lon="5.28388">
        <ele>196</ele>
        <time>2021-11-04T13:46:06Z</time>
      </trkpt>
      <trkpt lat="46.54765" lon="5.28383">
        <ele>196.2</ele>
        <time>2021-11-04T13:46:07Z</time>
      </trkpt>
      <trkpt lat="46.54776" lon="5.28369">
        <ele>197</ele>
        <time>2021-11-04T13:46:10Z</time>
      </trkpt>
      <trkpt lat="46.54781" lon="5.28365">
        <ele>197.2</ele>
        <time>2021-11-04T13:46:11Z</time>
      </trkpt>
      <trkpt lat="46.54785" lon="5.28362">
        <ele>197.4</ele>
        <time>2021-11-04T13:46:12Z</time>
      </trkpt>
      <trkpt lat="46.54796" lon="5.28359">
        <ele>197.8</ele>
        <time>2021-11-04T13:46:14Z</time>
      </trkpt>
      <trkpt lat="46.54806" lon="5.28363">
        <ele>198</ele>
        <time>2021-11-04T13:46:16Z</time>
      </trkpt>
      <trkpt lat="46.54816" lon="5.2837">
        <ele>198.2</ele>
        <time>2021-11-04T13:46:18Z</time>
      </trkpt>
      <trkpt lat="46.54853" lon="5.28392">
        <ele>198</ele>
        <time>2021-11-04T13:46:24Z</time>
      </trkpt>
      <trkpt lat="46.54895" lon="5.28425">
        <ele>195.8</ele>
        <time>2021-11-04T13:46:30Z</time>
      </trkpt>
      <trkpt lat="46.54902" lon="5.28431">
        <ele>195.4</ele>
        <time>2021-11-04T13:46:31Z</time>
      </trkpt>
      <trkpt lat="46.54924" lon="5.28445">
        <ele>194.6</ele>
        <time>2021-11-04T13:46:34Z</time>
      </trkpt>
      <trkpt lat="46.54963" lon="5.28465">
        <ele>193.6</ele>
        <time>2021-11-04T13:46:39Z</time>
      </trkpt>
      <trkpt lat="46.54978" lon="5.28479">
        <ele>193</ele>
        <time>2021-11-04T13:46:41Z</time>
      </trkpt>
      <trkpt lat="46.5499" lon="5.28498">
        <ele>192.4</ele>
        <time>2021-11-04T13:46:43Z</time>
      </trkpt>
      <trkpt lat="46.55002" lon="5.28519">
        <ele>191.6</ele>
        <time>2021-11-04T13:46:45Z</time>
      </trkpt>
      <trkpt lat="46.55007" lon="5.2853">
        <ele>191.2</ele>
        <time>2021-11-04T13:46:46Z</time>
      </trkpt>
      <trkpt lat="46.5503" lon="5.28572">
        <ele>190</ele>
        <time>2021-11-04T13:46:50Z</time>
      </trkpt>
      <trkpt lat="46.55053" lon="5.28614">
        <ele>188.8</ele>
        <time>2021-11-04T13:46:54Z</time>
      </trkpt>
      <trkpt lat="46.55071" lon="5.28646">
        <ele>187.8</ele>
        <time>2021-11-04T13:46:57Z</time>
      </trkpt>
      <trkpt lat="46.55104" lon="5.28706">
        <ele>187</ele>
        <time>2021-11-04T13:47:03Z</time>
      </trkpt>
      <trkpt lat="46.55131" lon="5.2875">
        <ele>186.8</ele>
        <time>2021-11-04T13:47:08Z</time>
      </trkpt>
      <trkpt lat="46.55137" lon="5.28758">
        <ele>186.6</ele>
        <time>2021-11-04T13:47:09Z</time>
      </trkpt>
      <trkpt lat="46.55142" lon="5.28765">
        <ele>186.6</ele>
        <time>2021-11-04T13:47:10Z</time>
      </trkpt>
      <trkpt lat="46.5515" lon="5.28784">
        <ele>186.6</ele>
        <time>2021-11-04T13:47:12Z</time>
      </trkpt>
      <trkpt lat="46.55153" lon="5.28806">
        <ele>186.6</ele>
        <time>2021-11-04T13:47:14Z</time>
      </trkpt>
      <trkpt lat="46.55152" lon="5.28817">
        <ele>186.6</ele>
        <time>2021-11-04T13:47:15Z</time>
      </trkpt>
      <trkpt lat="46.55144" lon="5.28905">
        <ele>186.4</ele>
        <time>2021-11-04T13:47:23Z</time>
      </trkpt>
      <trkpt lat="46.55144" lon="5.28916">
        <ele>186.4</ele>
        <time>2021-11-04T13:47:24Z</time>
      </trkpt>
      <trkpt lat="46.55146" lon="5.28937">
        <ele>186.4</ele>
        <time>2021-11-04T13:47:26Z</time>
      </trkpt>
      <trkpt lat="46.55148" lon="5.28947">
        <ele>186.4</ele>
        <time>2021-11-04T13:47:27Z</time>
      </trkpt>
      <trkpt lat="46.55154" lon="5.28965">
        <ele>186.4</ele>
        <time>2021-11-04T13:47:29Z</time>
      </trkpt>
      <trkpt lat="46.55162" lon="5.2898">
        <ele>186.6</ele>
        <time>2021-11-04T13:47:31Z</time>
      </trkpt>
      <trkpt lat="46.55183" lon="5.29017">
        <ele>187.8</ele>
        <time>2021-11-04T13:47:37Z</time>
      </trkpt>
      <trkpt lat="46.55191" lon="5.29033">
        <ele>189.2</ele>
        <time>2021-11-04T13:47:40Z</time>
      </trkpt>
      <trkpt lat="46.55199" lon="5.29048">
        <ele>190</ele>
        <time>2021-11-04T13:47:43Z</time>
      </trkpt>
      <trkpt lat="46.55202" lon="5.29053">
        <ele>190.2</ele>
        <time>2021-11-04T13:47:44Z</time>
      </trkpt>
      <trkpt lat="46.55211" lon="5.29068">
        <ele>191.4</ele>
        <time>2021-11-04T13:47:47Z</time>
      </trkpt>
      <trkpt lat="46.55222" lon="5.29086">
        <ele>192.6</ele>
        <time>2021-11-04T13:47:51Z</time>
      </trkpt>
      <trkpt lat="46.55225" lon="5.2909">
        <ele>193.2</ele>
        <time>2021-11-04T13:47:52Z</time>
      </trkpt>
      <trkpt lat="46.5523" lon="5.291">
        <ele>193.8</ele>
        <time>2021-11-04T13:47:54Z</time>
      </trkpt>
      <trkpt lat="46.55237" lon="5.29113">
        <ele>194.8</ele>
        <time>2021-11-04T13:47:57Z</time>
      </trkpt>
      <trkpt lat="46.55245" lon="5.29125">
        <ele>195.8</ele>
        <time>2021-11-04T13:48:00Z</time>
      </trkpt>
      <trkpt lat="46.55248" lon="5.29129">
        <ele>196</ele>
        <time>2021-11-04T13:48:01Z</time>
      </trkpt>
      <trkpt lat="46.55257" lon="5.2914">
        <ele>197</ele>
        <time>2021-11-04T13:48:04Z</time>
      </trkpt>
      <trkpt lat="46.55267" lon="5.29152">
        <ele>198</ele>
        <time>2021-11-04T13:48:07Z</time>
      </trkpt>
      <trkpt lat="46.5527" lon="5.29156">
        <ele>198.2</ele>
        <time>2021-11-04T13:48:08Z</time>
      </trkpt>
      <trkpt lat="46.55281" lon="5.29175">
        <ele>199.2</ele>
        <time>2021-11-04T13:48:12Z</time>
      </trkpt>
      <trkpt lat="46.55285" lon="5.29186">
        <ele>199.4</ele>
        <time>2021-11-04T13:48:14Z</time>
      </trkpt>
      <trkpt lat="46.55286" lon="5.29199">
        <ele>199.6</ele>
        <time>2021-11-04T13:48:16Z</time>
      </trkpt>
      <trkpt lat="46.55284" lon="5.29211">
        <ele>199.8</ele>
        <time>2021-11-04T13:48:18Z</time>
      </trkpt>
      <trkpt lat="46.55279" lon="5.29235">
        <ele>200.4</ele>
        <time>2021-11-04T13:48:22Z</time>
      </trkpt>
      <trkpt lat="46.55277" lon="5.2924">
        <ele>200.6</ele>
        <time>2021-11-04T13:48:23Z</time>
      </trkpt>
      <trkpt lat="46.55272" lon="5.29258">
        <ele>201.2</ele>
        <time>2021-11-04T13:48:26Z</time>
      </trkpt>
      <trkpt lat="46.55267" lon="5.2928">
        <ele>201.8</ele>
        <time>2021-11-04T13:48:30Z</time>
      </trkpt>
      <trkpt lat="46.5526" lon="5.29304">
        <ele>202.8</ele>
        <time>2021-11-04T13:48:35Z</time>
      </trkpt>
      <trkpt lat="46.55258" lon="5.29309">
        <ele>203</ele>
        <time>2021-11-04T13:48:36Z</time>
      </trkpt>
      <trkpt lat="46.55253" lon="5.29328">
        <ele>204</ele>
        <time>2021-11-04T13:48:40Z</time>
      </trkpt>
      <trkpt lat="46.5525" lon="5.29341">
        <ele>204.6</ele>
        <time>2021-11-04T13:48:43Z</time>
      </trkpt>
      <trkpt lat="46.55249" lon="5.29346">
        <ele>205.2</ele>
        <time>2021-11-04T13:48:44Z</time>
      </trkpt>
      <trkpt lat="46.55246" lon="5.29358">
        <ele>206.2</ele>
        <time>2021-11-04T13:48:47Z</time>
      </trkpt>
      <trkpt lat="46.55244" lon="5.29365">
        <ele>206.4</ele>
        <time>2021-11-04T13:48:49Z</time>
      </trkpt>
      <trkpt lat="46.55243" lon="5.29369">
        <ele>207</ele>
        <time>2021-11-04T13:48:53Z</time>
      </trkpt>
      <trkpt lat="46.55245" lon="5.29372">
        <ele>207.6</ele>
        <time>2021-11-04T13:49:14Z</time>
      </trkpt>
      <trkpt lat="46.55247" lon="5.29375">
        <ele>207.4</ele>
        <time>2021-11-04T13:49:16Z</time>
      </trkpt>
      <trkpt lat="46.55248" lon="5.29379">
        <ele>207.4</ele>
        <time>2021-11-04T13:49:17Z</time>
      </trkpt>
      <trkpt lat="46.55252" lon="5.29394">
        <ele>207.4</ele>
        <time>2021-11-04T13:49:20Z</time>
      </trkpt>
      <trkpt lat="46.55254" lon="5.29401">
        <ele>207.2</ele>
        <time>2021-11-04T13:49:21Z</time>
      </trkpt>
      <trkpt lat="46.55264" lon="5.29444">
        <ele>207</ele>
        <time>2021-11-04T13:49:26Z</time>
      </trkpt>
      <trkpt lat="46.5527" lon="5.29465">
        <ele>206.2</ele>
        <time>2021-11-04T13:49:28Z</time>
      </trkpt>
      <trkpt lat="46.55274" lon="5.29475">
        <ele>206</ele>
        <time>2021-11-04T13:49:29Z</time>
      </trkpt>
      <trkpt lat="46.55279" lon="5.29484">
        <ele>205.4</ele>
        <time>2021-11-04T13:49:30Z</time>
      </trkpt>
      <trkpt lat="46.55286" lon="5.29491">
        <ele>205.2</ele>
        <time>2021-11-04T13:49:31Z</time>
      </trkpt>
      <trkpt lat="46.55302" lon="5.29502">
        <ele>204.2</ele>
        <time>2021-11-04T13:49:33Z</time>
      </trkpt>
      <trkpt lat="46.5531" lon="5.29505">
        <ele>203.6</ele>
        <time>2021-11-04T13:49:34Z</time>
      </trkpt>
      <trkpt lat="46.55328" lon="5.29508">
        <ele>202.4</ele>
        <time>2021-11-04T13:49:36Z</time>
      </trkpt>
      <trkpt lat="46.55336" lon="5.29509">
        <ele>202</ele>
        <time>2021-11-04T13:49:37Z</time>
      </trkpt>
      <trkpt lat="46.55353" lon="5.29512">
        <ele>201.4</ele>
        <time>2021-11-04T13:49:39Z</time>
      </trkpt>
      <trkpt lat="46.55387" lon="5.29523">
        <ele>201</ele>
        <time>2021-11-04T13:49:43Z</time>
      </trkpt>
      <trkpt lat="46.55434" lon="5.29549">
        <ele>200.4</ele>
        <time>2021-11-04T13:49:49Z</time>
      </trkpt>
      <trkpt lat="46.55442" lon="5.29554">
        <ele>200.2</ele>
        <time>2021-11-04T13:49:50Z</time>
      </trkpt>
      <trkpt lat="46.55491" lon="5.2959">
        <ele>200.4</ele>
        <time>2021-11-04T13:49:57Z</time>
      </trkpt>
      <trkpt lat="46.55544" lon="5.29629">
        <ele>200.8</ele>
        <time>2021-11-04T13:50:05Z</time>
      </trkpt>
      <trkpt lat="46.5555" lon="5.29633">
        <ele>200.8</ele>
        <time>2021-11-04T13:50:06Z</time>
      </trkpt>
      <trkpt lat="46.55569" lon="5.29647">
        <ele>201.4</ele>
        <time>2021-11-04T13:50:09Z</time>
      </trkpt>
      <trkpt lat="46.55594" lon="5.29661">
        <ele>201.4</ele>
        <time>2021-11-04T13:50:13Z</time>
      </trkpt>
      <trkpt lat="46.55643" lon="5.29685">
        <ele>202</ele>
        <time>2021-11-04T13:50:21Z</time>
      </trkpt>
      <trkpt lat="46.55649" lon="5.29688">
        <ele>202.2</ele>
        <time>2021-11-04T13:50:22Z</time>
      </trkpt>
      <trkpt lat="46.55662" lon="5.2969">
        <ele>202.4</ele>
        <time>2021-11-04T13:50:24Z</time>
      </trkpt>
      <trkpt lat="46.55668" lon="5.29691">
        <ele>202.4</ele>
        <time>2021-11-04T13:50:25Z</time>
      </trkpt>
      <trkpt lat="46.5571" lon="5.29692">
        <ele>203.4</ele>
        <time>2021-11-04T13:50:32Z</time>
      </trkpt>
      <trkpt lat="46.55715" lon="5.29693">
        <ele>203.6</ele>
        <time>2021-11-04T13:50:33Z</time>
      </trkpt>
      <trkpt lat="46.55734" lon="5.29699">
        <ele>204.6</ele>
        <time>2021-11-04T13:50:37Z</time>
      </trkpt>
      <trkpt lat="46.55743" lon="5.29704">
        <ele>205.2</ele>
        <time>2021-11-04T13:50:39Z</time>
      </trkpt>
      <trkpt lat="46.55747" lon="5.29707">
        <ele>205.6</ele>
        <time>2021-11-04T13:50:40Z</time>
      </trkpt>
      <trkpt lat="46.55751" lon="5.2971">
        <ele>206</ele>
        <time>2021-11-04T13:50:41Z</time>
      </trkpt>
      <trkpt lat="46.55768" lon="5.29724">
        <ele>207.2</ele>
        <time>2021-11-04T13:50:45Z</time>
      </trkpt>
      <trkpt lat="46.55791" lon="5.29756">
        <ele>208.2</ele>
        <time>2021-11-04T13:50:51Z</time>
      </trkpt>
      <trkpt lat="46.55795" lon="5.29762">
        <ele>208.2</ele>
        <time>2021-11-04T13:50:52Z</time>
      </trkpt>
      <trkpt lat="46.55823" lon="5.29801">
        <ele>208.6</ele>
        <time>2021-11-04T13:50:59Z</time>
      </trkpt>
      <trkpt lat="46.55861" lon="5.29853">
        <ele>209.2</ele>
        <time>2021-11-04T13:51:08Z</time>
      </trkpt>
      <trkpt lat="46.55894" lon="5.29897">
        <ele>209</ele>
        <time>2021-11-04T13:51:14Z</time>
      </trkpt>
      <trkpt lat="46.55926" lon="5.29939">
        <ele>207.2</ele>
        <time>2021-11-04T13:51:19Z</time>
      </trkpt>
      <trkpt lat="46.55939" lon="5.29957">
        <ele>206.4</ele>
        <time>2021-11-04T13:51:21Z</time>
      </trkpt>
      <trkpt lat="46.55946" lon="5.29966">
        <ele>205.8</ele>
        <time>2021-11-04T13:51:22Z</time>
      </trkpt>
      <trkpt lat="46.55965" lon="5.29992">
        <ele>204.8</ele>
        <time>2021-11-04T13:51:25Z</time>
      </trkpt>
      <trkpt lat="46.55983" lon="5.30016">
        <ele>204.2</ele>
        <time>2021-11-04T13:51:28Z</time>
      </trkpt>
      <trkpt lat="46.56013" lon="5.30057">
        <ele>204.6</ele>
        <time>2021-11-04T13:51:34Z</time>
      </trkpt>
      <trkpt lat="46.56031" lon="5.30082">
        <ele>206</ele>
        <time>2021-11-04T13:51:38Z</time>
      </trkpt>
      <trkpt lat="46.56044" lon="5.30099">
        <ele>206.6</ele>
        <time>2021-11-04T13:51:41Z</time>
      </trkpt>
      <trkpt lat="46.56048" lon="5.30104">
        <ele>207.2</ele>
        <time>2021-11-04T13:51:42Z</time>
      </trkpt>
      <trkpt lat="46.56064" lon="5.30127">
        <ele>208.6</ele>
        <time>2021-11-04T13:51:46Z</time>
      </trkpt>
      <trkpt lat="46.56086" lon="5.30156">
        <ele>209.8</ele>
        <time>2021-11-04T13:51:51Z</time>
      </trkpt>
      <trkpt lat="46.56123" lon="5.30205">
        <ele>210.4</ele>
        <time>2021-11-04T13:51:59Z</time>
      </trkpt>
      <trkpt lat="46.56152" lon="5.30241">
        <ele>210.4</ele>
        <time>2021-11-04T13:52:05Z</time>
      </trkpt>
      <trkpt lat="46.56185" lon="5.30287">
        <ele>210.8</ele>
        <time>2021-11-04T13:52:12Z</time>
      </trkpt>
      <trkpt lat="46.5619" lon="5.30293">
        <ele>210.8</ele>
        <time>2021-11-04T13:52:13Z</time>
      </trkpt>
      <trkpt lat="46.56211" lon="5.30329">
        <ele>211</ele>
        <time>2021-11-04T13:52:18Z</time>
      </trkpt>
      <trkpt lat="46.56238" lon="5.30378">
        <ele>211</ele>
        <time>2021-11-04T13:52:25Z</time>
      </trkpt>
      <trkpt lat="46.56275" lon="5.30431">
        <ele>210.8</ele>
        <time>2021-11-04T13:52:33Z</time>
      </trkpt>
      <trkpt lat="46.56316" lon="5.30486">
        <ele>211.2</ele>
        <time>2021-11-04T13:52:42Z</time>
      </trkpt>
      <trkpt lat="46.56321" lon="5.30492">
        <ele>211.2</ele>
        <time>2021-11-04T13:52:43Z</time>
      </trkpt>
      <trkpt lat="46.56362" lon="5.3055">
        <ele>211.4</ele>
        <time>2021-11-04T13:52:52Z</time>
      </trkpt>
      <trkpt lat="46.56367" lon="5.30557">
        <ele>211.4</ele>
        <time>2021-11-04T13:52:53Z</time>
      </trkpt>
      <trkpt lat="46.56404" lon="5.30608">
        <ele>211</ele>
        <time>2021-11-04T13:53:01Z</time>
      </trkpt>
      <trkpt lat="46.56408" lon="5.30619">
        <ele>210.8</ele>
        <time>2021-11-04T13:53:03Z</time>
      </trkpt>
      <trkpt lat="46.5641" lon="5.30623">
        <ele>210.8</ele>
        <time>2021-11-04T13:53:04Z</time>
      </trkpt>
      <trkpt lat="46.56414" lon="5.30625">
        <ele>210.6</ele>
        <time>2021-11-04T13:53:05Z</time>
      </trkpt>
      <trkpt lat="46.56424" lon="5.30625">
        <ele>210.6</ele>
        <time>2021-11-04T13:53:07Z</time>
      </trkpt>
      <trkpt lat="46.56436" lon="5.30626">
        <ele>210.4</ele>
        <time>2021-11-04T13:53:09Z</time>
      </trkpt>
      <trkpt lat="46.56449" lon="5.30623">
        <ele>210.2</ele>
        <time>2021-11-04T13:53:11Z</time>
      </trkpt>
      <trkpt lat="46.5649" lon="5.3061">
        <ele>210</ele>
        <time>2021-11-04T13:53:17Z</time>
      </trkpt>
      <trkpt lat="46.56511" lon="5.30607">
        <ele>209.8</ele>
        <time>2021-11-04T13:53:20Z</time>
      </trkpt>
      <trkpt lat="46.56547" lon="5.30603">
        <ele>209.2</ele>
        <time>2021-11-04T13:53:25Z</time>
      </trkpt>
      <trkpt lat="46.56603" lon="5.30601">
        <ele>209.2</ele>
        <time>2021-11-04T13:53:33Z</time>
      </trkpt>
      <trkpt lat="46.5665" lon="5.30613">
        <ele>209.4</ele>
        <time>2021-11-04T13:53:40Z</time>
      </trkpt>
      <trkpt lat="46.56682" lon="5.30634">
        <ele>209.4</ele>
        <time>2021-11-04T13:53:45Z</time>
      </trkpt>
      <trkpt lat="46.56723" lon="5.30677">
        <ele>208.6</ele>
        <time>2021-11-04T13:53:52Z</time>
      </trkpt>
      <trkpt lat="46.56748" lon="5.30723">
        <ele>207.6</ele>
        <time>2021-11-04T13:53:57Z</time>
      </trkpt>
      <trkpt lat="46.56753" lon="5.30733">
        <ele>207.6</ele>
        <time>2021-11-04T13:53:58Z</time>
      </trkpt>
      <trkpt lat="46.56777" lon="5.3078">
        <ele>206.6</ele>
        <time>2021-11-04T13:54:03Z</time>
      </trkpt>
      <trkpt lat="46.56789" lon="5.30813">
        <ele>205.8</ele>
        <time>2021-11-04T13:54:06Z</time>
      </trkpt>
      <trkpt lat="46.56795" lon="5.30836">
        <ele>205.4</ele>
        <time>2021-11-04T13:54:08Z</time>
      </trkpt>
      <trkpt lat="46.56801" lon="5.30872">
        <ele>205</ele>
        <time>2021-11-04T13:54:11Z</time>
      </trkpt>
      <trkpt lat="46.56807" lon="5.30919">
        <ele>204.2</ele>
        <time>2021-11-04T13:54:15Z</time>
      </trkpt>
      <trkpt lat="46.56808" lon="5.30931">
        <ele>204.2</ele>
        <time>2021-11-04T13:54:16Z</time>
      </trkpt>
      <trkpt lat="46.56806" lon="5.30987">
        <ele>203.4</ele>
        <time>2021-11-04T13:54:21Z</time>
      </trkpt>
      <trkpt lat="46.56804" lon="5.31038">
        <ele>203.6</ele>
        <time>2021-11-04T13:54:26Z</time>
      </trkpt>
      <trkpt lat="46.56805" lon="5.31047">
        <ele>203.8</ele>
        <time>2021-11-04T13:54:27Z</time>
      </trkpt>
      <trkpt lat="46.56817" lon="5.31094">
        <ele>204.4</ele>
        <time>2021-11-04T13:54:32Z</time>
      </trkpt>
      <trkpt lat="46.56821" lon="5.31102">
        <ele>204.6</ele>
        <time>2021-11-04T13:54:33Z</time>
      </trkpt>
      <trkpt lat="46.56834" lon="5.31124">
        <ele>204.8</ele>
        <time>2021-11-04T13:54:36Z</time>
      </trkpt>
      <trkpt lat="46.56851" lon="5.31142">
        <ele>204.8</ele>
        <time>2021-11-04T13:54:39Z</time>
      </trkpt>
      <trkpt lat="46.56863" lon="5.3115">
        <ele>204.8</ele>
        <time>2021-11-04T13:54:41Z</time>
      </trkpt>
      <trkpt lat="46.56876" lon="5.31156">
        <ele>205.2</ele>
        <time>2021-11-04T13:54:43Z</time>
      </trkpt>
      <trkpt lat="46.56889" lon="5.31159">
        <ele>205.4</ele>
        <time>2021-11-04T13:54:45Z</time>
      </trkpt>
      <trkpt lat="46.56895" lon="5.31159">
        <ele>205.4</ele>
        <time>2021-11-04T13:54:46Z</time>
      </trkpt>
      <trkpt lat="46.56921" lon="5.31162">
        <ele>205.6</ele>
        <time>2021-11-04T13:54:50Z</time>
      </trkpt>
      <trkpt lat="46.56933" lon="5.31167">
        <ele>205.8</ele>
        <time>2021-11-04T13:54:52Z</time>
      </trkpt>
      <trkpt lat="46.56968" lon="5.31195">
        <ele>206.4</ele>
        <time>2021-11-04T13:54:58Z</time>
      </trkpt>
      <trkpt lat="46.57018" lon="5.3124">
        <ele>207</ele>
        <time>2021-11-04T13:55:07Z</time>
      </trkpt>
      <trkpt lat="46.57029" lon="5.3125">
        <ele>207.2</ele>
        <time>2021-11-04T13:55:09Z</time>
      </trkpt>
      <trkpt lat="46.57045" lon="5.31265">
        <ele>207.4</ele>
        <time>2021-11-04T13:55:12Z</time>
      </trkpt>
      <trkpt lat="46.57067" lon="5.31283">
        <ele>207.6</ele>
        <time>2021-11-04T13:55:16Z</time>
      </trkpt>
      <trkpt lat="46.57098" lon="5.31296">
        <ele>208</ele>
        <time>2021-11-04T13:55:21Z</time>
      </trkpt>
      <trkpt lat="46.57116" lon="5.31299">
        <ele>208.2</ele>
        <time>2021-11-04T13:55:24Z</time>
      </trkpt>
      <trkpt lat="46.57127" lon="5.313">
        <ele>208.6</ele>
        <time>2021-11-04T13:55:26Z</time>
      </trkpt>
      <trkpt lat="46.57133" lon="5.313">
        <ele>208.6</ele>
        <time>2021-11-04T13:55:27Z</time>
      </trkpt>
      <trkpt lat="46.57154" lon="5.31303">
        <ele>209.6</ele>
        <time>2021-11-04T13:55:31Z</time>
      </trkpt>
      <trkpt lat="46.5716" lon="5.31305">
        <ele>210</ele>
        <time>2021-11-04T13:55:32Z</time>
      </trkpt>
      <trkpt lat="46.57165" lon="5.31308">
        <ele>210.2</ele>
        <time>2021-11-04T13:55:33Z</time>
      </trkpt>
      <trkpt lat="46.57169" lon="5.31311">
        <ele>210.6</ele>
        <time>2021-11-04T13:55:34Z</time>
      </trkpt>
      <trkpt lat="46.57174" lon="5.31315">
        <ele>210.8</ele>
        <time>2021-11-04T13:55:35Z</time>
      </trkpt>
      <trkpt lat="46.57188" lon="5.31329">
        <ele>211.2</ele>
        <time>2021-11-04T13:55:38Z</time>
      </trkpt>
      <trkpt lat="46.57205" lon="5.31352">
        <ele>212</ele>
        <time>2021-11-04T13:55:42Z</time>
      </trkpt>
      <trkpt lat="46.57213" lon="5.31366">
        <ele>212.2</ele>
        <time>2021-11-04T13:55:44Z</time>
      </trkpt>
      <trkpt lat="46.57227" lon="5.31403">
        <ele>212.8</ele>
        <time>2021-11-04T13:55:49Z</time>
      </trkpt>
      <trkpt lat="46.57229" lon="5.31411">
        <ele>213</ele>
        <time>2021-11-04T13:55:50Z</time>
      </trkpt>
      <trkpt lat="46.5723" lon="5.31419">
        <ele>213</ele>
        <time>2021-11-04T13:55:51Z</time>
      </trkpt>
      <trkpt lat="46.57245" lon="5.31462">
        <ele>214.2</ele>
        <time>2021-11-04T13:55:57Z</time>
      </trkpt>
      <trkpt lat="46.57284" lon="5.31524">
        <ele>215</ele>
        <time>2021-11-04T13:56:07Z</time>
      </trkpt>
      <trkpt lat="46.57323" lon="5.31584">
        <ele>215</ele>
        <time>2021-11-04T13:56:16Z</time>
      </trkpt>
      <trkpt lat="46.57333" lon="5.31596">
        <ele>214.8</ele>
        <time>2021-11-04T13:56:18Z</time>
      </trkpt>
      <trkpt lat="46.57351" lon="5.3161">
        <ele>214.8</ele>
        <time>2021-11-04T13:56:21Z</time>
      </trkpt>
      <trkpt lat="46.57364" lon="5.31616">
        <ele>214.8</ele>
        <time>2021-11-04T13:56:23Z</time>
      </trkpt>
      <trkpt lat="46.57407" lon="5.31617">
        <ele>214.4</ele>
        <time>2021-11-04T13:56:29Z</time>
      </trkpt>
      <trkpt lat="46.57466" lon="5.31614">
        <ele>214.4</ele>
        <time>2021-11-04T13:56:37Z</time>
      </trkpt>
      <trkpt lat="46.57481" lon="5.31613">
        <ele>214.2</ele>
        <time>2021-11-04T13:56:39Z</time>
      </trkpt>
      <trkpt lat="46.5753" lon="5.31607">
        <ele>214.2</ele>
        <time>2021-11-04T13:56:46Z</time>
      </trkpt>
      <trkpt lat="46.57585" lon="5.31599">
        <ele>214</ele>
        <time>2021-11-04T13:56:54Z</time>
      </trkpt>
      <trkpt lat="46.57594" lon="5.31598">
        <ele>214</ele>
        <time>2021-11-04T13:56:55Z</time>
      </trkpt>
      <trkpt lat="46.57652" lon="5.31589">
        <ele>214.2</ele>
        <time>2021-11-04T13:57:03Z</time>
      </trkpt>
      <trkpt lat="46.57665" lon="5.31587">
        <ele>214.2</ele>
        <time>2021-11-04T13:57:05Z</time>
      </trkpt>
      <trkpt lat="46.57725" lon="5.31567">
        <ele>213.8</ele>
        <time>2021-11-04T13:57:13Z</time>
      </trkpt>
      <trkpt lat="46.57764" lon="5.31537">
        <ele>213.2</ele>
        <time>2021-11-04T13:57:19Z</time>
      </trkpt>
      <trkpt lat="46.5777" lon="5.31532">
        <ele>213</ele>
        <time>2021-11-04T13:57:20Z</time>
      </trkpt>
      <trkpt lat="46.5782" lon="5.31497">
        <ele>212.2</ele>
        <time>2021-11-04T13:57:27Z</time>
      </trkpt>
      <trkpt lat="46.57829" lon="5.31492">
        <ele>212.2</ele>
        <time>2021-11-04T13:57:28Z</time>
      </trkpt>
      <trkpt lat="46.57873" lon="5.31476">
        <ele>211.2</ele>
        <time>2021-11-04T13:57:34Z</time>
      </trkpt>
      <trkpt lat="46.5789" lon="5.31471">
        <ele>211</ele>
        <time>2021-11-04T13:57:36Z</time>
      </trkpt>
      <trkpt lat="46.57949" lon="5.31453">
        <ele>210.6</ele>
        <time>2021-11-04T13:57:44Z</time>
      </trkpt>
      <trkpt lat="46.57979" lon="5.31444">
        <ele>210.2</ele>
        <time>2021-11-04T13:57:48Z</time>
      </trkpt>
      <trkpt lat="46.58032" lon="5.31429">
        <ele>209.4</ele>
        <time>2021-11-04T13:57:55Z</time>
      </trkpt>
      <trkpt lat="46.58078" lon="5.31429">
        <ele>209.4</ele>
        <time>2021-11-04T13:58:01Z</time>
      </trkpt>
      <trkpt lat="46.58127" lon="5.31431">
        <ele>209.6</ele>
        <time>2021-11-04T13:58:08Z</time>
      </trkpt>
      <trkpt lat="46.58135" lon="5.31428">
        <ele>209.8</ele>
        <time>2021-11-04T13:58:09Z</time>
      </trkpt>
      <trkpt lat="46.58167" lon="5.31408">
        <ele>209.8</ele>
        <time>2021-11-04T13:58:14Z</time>
      </trkpt>
      <trkpt lat="46.58207" lon="5.31376">
        <ele>209</ele>
        <time>2021-11-04T13:58:20Z</time>
      </trkpt>
      <trkpt lat="46.58228" lon="5.31359">
        <ele>208.4</ele>
        <time>2021-11-04T13:58:23Z</time>
      </trkpt>
      <trkpt lat="46.58256" lon="5.31336">
        <ele>208</ele>
        <time>2021-11-04T13:58:27Z</time>
      </trkpt>
      <trkpt lat="46.58304" lon="5.31298">
        <ele>207</ele>
        <time>2021-11-04T13:58:34Z</time>
      </trkpt>
      <trkpt lat="46.58311" lon="5.31292">
        <ele>207</ele>
        <time>2021-11-04T13:58:35Z</time>
      </trkpt>
      <trkpt lat="46.58318" lon="5.31287">
        <ele>206.8</ele>
        <time>2021-11-04T13:58:36Z</time>
      </trkpt>
      <trkpt lat="46.5836" lon="5.31261">
        <ele>206.4</ele>
        <time>2021-11-04T13:58:42Z</time>
      </trkpt>
      <trkpt lat="46.5841" lon="5.31239">
        <ele>206</ele>
        <time>2021-11-04T13:58:49Z</time>
      </trkpt>
      <trkpt lat="46.58417" lon="5.31236">
        <ele>205.8</ele>
        <time>2021-11-04T13:58:50Z</time>
      </trkpt>
      <trkpt lat="46.58472" lon="5.31213">
        <ele>206.2</ele>
        <time>2021-11-04T13:58:58Z</time>
      </trkpt>
      <trkpt lat="46.58479" lon="5.3121">
        <ele>206.2</ele>
        <time>2021-11-04T13:58:59Z</time>
      </trkpt>
      <trkpt lat="46.58534" lon="5.31184">
        <ele>206</ele>
        <time>2021-11-04T13:59:07Z</time>
      </trkpt>
      <trkpt lat="46.58541" lon="5.3118">
        <ele>206</ele>
        <time>2021-11-04T13:59:08Z</time>
      </trkpt>
      <trkpt lat="46.58579" lon="5.31148">
        <ele>205.8</ele>
        <time>2021-11-04T13:59:14Z</time>
      </trkpt>
      <trkpt lat="46.5863" lon="5.31097">
        <ele>205</ele>
        <time>2021-11-04T13:59:22Z</time>
      </trkpt>
      <trkpt lat="46.58636" lon="5.31091">
        <ele>204.8</ele>
        <time>2021-11-04T13:59:23Z</time>
      </trkpt>
      <trkpt lat="46.58642" lon="5.31084">
        <ele>204.6</ele>
        <time>2021-11-04T13:59:24Z</time>
      </trkpt>
      <trkpt lat="46.58683" lon="5.31042">
        <ele>204.4</ele>
        <time>2021-11-04T13:59:31Z</time>
      </trkpt>
      <trkpt lat="46.58727" lon="5.30996">
        <ele>204.6</ele>
        <time>2021-11-04T13:59:39Z</time>
      </trkpt>
      <trkpt lat="46.58733" lon="5.3099">
        <ele>204.8</ele>
        <time>2021-11-04T13:59:40Z</time>
      </trkpt>
      <trkpt lat="46.58777" lon="5.30944">
        <ele>205.6</ele>
        <time>2021-11-04T13:59:49Z</time>
      </trkpt>
      <trkpt lat="46.58787" lon="5.30934">
        <ele>206</ele>
        <time>2021-11-04T13:59:51Z</time>
      </trkpt>
      <trkpt lat="46.58808" lon="5.30916">
        <ele>207</ele>
        <time>2021-11-04T13:59:55Z</time>
      </trkpt>
      <trkpt lat="46.58813" lon="5.30912">
        <ele>207.2</ele>
        <time>2021-11-04T13:59:56Z</time>
      </trkpt>
      <trkpt lat="46.58824" lon="5.30906">
        <ele>207.6</ele>
        <time>2021-11-04T13:59:58Z</time>
      </trkpt>
      <trkpt lat="46.58843" lon="5.30901">
        <ele>208</ele>
        <time>2021-11-04T14:00:01Z</time>
      </trkpt>
      <trkpt lat="46.58868" lon="5.30897">
        <ele>208.2</ele>
        <time>2021-11-04T14:00:05Z</time>
      </trkpt>
      <trkpt lat="46.58928" lon="5.30889">
        <ele>208.6</ele>
        <time>2021-11-04T14:00:14Z</time>
      </trkpt>
      <trkpt lat="46.58987" lon="5.30882">
        <ele>207.4</ele>
        <time>2021-11-04T14:00:22Z</time>
      </trkpt>
      <trkpt lat="46.58995" lon="5.30881">
        <ele>207.4</ele>
        <time>2021-11-04T14:00:23Z</time>
      </trkpt>
      <trkpt lat="46.59018" lon="5.30878">
        <ele>206.8</ele>
        <time>2021-11-04T14:00:26Z</time>
      </trkpt>
      <trkpt lat="46.59044" lon="5.30875">
        <ele>205.8</ele>
        <time>2021-11-04T14:00:29Z</time>
      </trkpt>
      <trkpt lat="46.59074" lon="5.3087">
        <ele>204.6</ele>
        <time>2021-11-04T14:00:32Z</time>
      </trkpt>
      <trkpt lat="46.59101" lon="5.30867">
        <ele>203.2</ele>
        <time>2021-11-04T14:00:35Z</time>
      </trkpt>
      <trkpt lat="46.59111" lon="5.30866">
        <ele>202</ele>
        <time>2021-11-04T14:00:36Z</time>
      </trkpt>
      <trkpt lat="46.59121" lon="5.30864">
        <ele>201.8</ele>
        <time>2021-11-04T14:00:37Z</time>
      </trkpt>
      <trkpt lat="46.5914" lon="5.30862">
        <ele>200.8</ele>
        <time>2021-11-04T14:00:39Z</time>
      </trkpt>
      <trkpt lat="46.59171" lon="5.30858">
        <ele>199</ele>
        <time>2021-11-04T14:00:42Z</time>
      </trkpt>
      <trkpt lat="46.59201" lon="5.30854">
        <ele>197.8</ele>
        <time>2021-11-04T14:00:45Z</time>
      </trkpt>
      <trkpt lat="46.59238" lon="5.30849">
        <ele>196.6</ele>
        <time>2021-11-04T14:00:49Z</time>
      </trkpt>
      <trkpt lat="46.59271" lon="5.30845">
        <ele>195.4</ele>
        <time>2021-11-04T14:00:52Z</time>
      </trkpt>
      <trkpt lat="46.59299" lon="5.30841">
        <ele>194.2</ele>
        <time>2021-11-04T14:00:55Z</time>
      </trkpt>
      <trkpt lat="46.59329" lon="5.30837">
        <ele>192.8</ele>
        <time>2021-11-04T14:00:58Z</time>
      </trkpt>
      <trkpt lat="46.59359" lon="5.30833">
        <ele>191.6</ele>
        <time>2021-11-04T14:01:01Z</time>
      </trkpt>
      <trkpt lat="46.59388" lon="5.3083">
        <ele>190.6</ele>
        <time>2021-11-04T14:01:04Z</time>
      </trkpt>
      <trkpt lat="46.59398" lon="5.30828">
        <ele>190.4</ele>
        <time>2021-11-04T14:01:05Z</time>
      </trkpt>
      <trkpt lat="46.59427" lon="5.30824">
        <ele>189.4</ele>
        <time>2021-11-04T14:01:08Z</time>
      </trkpt>
      <trkpt lat="46.59484" lon="5.30817">
        <ele>188.2</ele>
        <time>2021-11-04T14:01:14Z</time>
      </trkpt>
      <trkpt lat="46.59493" lon="5.30816">
        <ele>188.2</ele>
        <time>2021-11-04T14:01:15Z</time>
      </trkpt>
      <trkpt lat="46.59535" lon="5.3081">
        <ele>188</ele>
        <time>2021-11-04T14:01:20Z</time>
      </trkpt>
      <trkpt lat="46.59589" lon="5.30803">
        <ele>188</ele>
        <time>2021-11-04T14:01:27Z</time>
      </trkpt>
      <trkpt lat="46.59597" lon="5.30802">
        <ele>188</ele>
        <time>2021-11-04T14:01:28Z</time>
      </trkpt>
      <trkpt lat="46.5965" lon="5.30796">
        <ele>188</ele>
        <time>2021-11-04T14:01:35Z</time>
      </trkpt>
      <trkpt lat="46.59689" lon="5.30792">
        <ele>188.8</ele>
        <time>2021-11-04T14:01:41Z</time>
      </trkpt>
      <trkpt lat="46.59706" lon="5.30791">
        <ele>189.4</ele>
        <time>2021-11-04T14:01:44Z</time>
      </trkpt>
      <trkpt lat="46.59728" lon="5.3079">
        <ele>190.4</ele>
        <time>2021-11-04T14:01:48Z</time>
      </trkpt>
      <trkpt lat="46.59754" lon="5.3079">
        <ele>191.8</ele>
        <time>2021-11-04T14:01:53Z</time>
      </trkpt>
      <trkpt lat="46.59767" lon="5.30789">
        <ele>192.8</ele>
        <time>2021-11-04T14:01:56Z</time>
      </trkpt>
      <trkpt lat="46.59772" lon="5.30789">
        <ele>193.2</ele>
        <time>2021-11-04T14:01:57Z</time>
      </trkpt>
      <trkpt lat="46.59781" lon="5.3079">
        <ele>193.6</ele>
        <time>2021-11-04T14:01:59Z</time>
      </trkpt>
      <trkpt lat="46.59795" lon="5.30795">
        <ele>194.4</ele>
        <time>2021-11-04T14:02:02Z</time>
      </trkpt>
      <trkpt lat="46.59818" lon="5.30805">
        <ele>195.4</ele>
        <time>2021-11-04T14:02:07Z</time>
      </trkpt>
      <trkpt lat="46.59827" lon="5.30809">
        <ele>195.6</ele>
        <time>2021-11-04T14:02:09Z</time>
      </trkpt>
      <trkpt lat="46.59852" lon="5.30816">
        <ele>196.4</ele>
        <time>2021-11-04T14:02:14Z</time>
      </trkpt>
      <trkpt lat="46.59871" lon="5.30821">
        <ele>196.8</ele>
        <time>2021-11-04T14:02:18Z</time>
      </trkpt>
      <trkpt lat="46.59911" lon="5.30829">
        <ele>197.4</ele>
        <time>2021-11-04T14:02:26Z</time>
      </trkpt>
      <trkpt lat="46.59916" lon="5.3083">
        <ele>197.6</ele>
        <time>2021-11-04T14:02:27Z</time>
      </trkpt>
      <trkpt lat="46.59951" lon="5.30837">
        <ele>198.6</ele>
        <time>2021-11-04T14:02:34Z</time>
      </trkpt>
      <trkpt lat="46.59956" lon="5.30838">
        <ele>198.6</ele>
        <time>2021-11-04T14:02:35Z</time>
      </trkpt>
      <trkpt lat="46.59969" lon="5.30847">
        <ele>199</ele>
        <time>2021-11-04T14:02:38Z</time>
      </trkpt>
      <trkpt lat="46.59977" lon="5.30856">
        <ele>199.2</ele>
        <time>2021-11-04T14:02:40Z</time>
      </trkpt>
      <trkpt lat="46.59993" lon="5.30873">
        <ele>199.6</ele>
        <time>2021-11-04T14:02:44Z</time>
      </trkpt>
      <trkpt lat="46.60012" lon="5.30895">
        <ele>200.8</ele>
        <time>2021-11-04T14:02:49Z</time>
      </trkpt>
      <trkpt lat="46.60037" lon="5.30925">
        <ele>201.8</ele>
        <time>2021-11-04T14:02:56Z</time>
      </trkpt>
      <trkpt lat="46.60044" lon="5.30933">
        <ele>202.2</ele>
        <time>2021-11-04T14:02:58Z</time>
      </trkpt>
      <trkpt lat="46.60048" lon="5.30937">
        <ele>202.2</ele>
        <time>2021-11-04T14:02:59Z</time>
      </trkpt>
      <trkpt lat="46.60065" lon="5.30955">
        <ele>202.8</ele>
        <time>2021-11-04T14:03:03Z</time>
      </trkpt>
      <trkpt lat="46.60077" lon="5.30968">
        <ele>203.4</ele>
        <time>2021-11-04T14:03:06Z</time>
      </trkpt>
      <trkpt lat="46.6008" lon="5.30973">
        <ele>203.4</ele>
        <time>2021-11-04T14:03:07Z</time>
      </trkpt>
      <trkpt lat="46.60087" lon="5.30981">
        <ele>203.6</ele>
        <time>2021-11-04T14:03:09Z</time>
      </trkpt>
      <trkpt lat="46.60096" lon="5.30992">
        <ele>203.8</ele>
        <time>2021-11-04T14:03:12Z</time>
      </trkpt>
      <trkpt lat="46.60099" lon="5.30995">
        <ele>204</ele>
        <time>2021-11-04T14:03:13Z</time>
      </trkpt>
      <trkpt lat="46.60105" lon="5.31004">
        <ele>204.2</ele>
        <time>2021-11-04T14:03:17Z</time>
      </trkpt>
      <trkpt lat="46.60106" lon="5.31005">
        <ele>204.4</ele>
        <time>2021-11-04T14:03:19Z</time>
      </trkpt>
      <trkpt lat="46.60104" lon="5.31012">
        <ele>204.4</ele>
        <time>2021-11-04T14:03:26Z</time>
      </trkpt>
      <trkpt lat="46.60095" lon="5.3103">
        <ele>204.4</ele>
        <time>2021-11-04T14:03:30Z</time>
      </trkpt>
      <trkpt lat="46.60078" lon="5.31062">
        <ele>204.2</ele>
        <time>2021-11-04T14:03:35Z</time>
      </trkpt>
      <trkpt lat="46.60072" lon="5.31078">
        <ele>204</ele>
        <time>2021-11-04T14:03:37Z</time>
      </trkpt>
      <trkpt lat="46.60069" lon="5.31094">
        <ele>204</ele>
        <time>2021-11-04T14:03:39Z</time>
      </trkpt>
      <trkpt lat="46.60068" lon="5.31103">
        <ele>204</ele>
        <time>2021-11-04T14:03:40Z</time>
      </trkpt>
      <trkpt lat="46.60063" lon="5.31167">
        <ele>204.2</ele>
        <time>2021-11-04T14:03:47Z</time>
      </trkpt>
      <trkpt lat="46.60059" lon="5.31236">
        <ele>204.2</ele>
        <time>2021-11-04T14:03:54Z</time>
      </trkpt>
      <trkpt lat="46.60056" lon="5.31316">
        <ele>204</ele>
        <time>2021-11-04T14:04:02Z</time>
      </trkpt>
      <trkpt lat="46.60054" lon="5.31338">
        <ele>203.8</ele>
        <time>2021-11-04T14:04:04Z</time>
      </trkpt>
      <trkpt lat="46.6005" lon="5.31425">
        <ele>203</ele>
        <time>2021-11-04T14:04:12Z</time>
      </trkpt>
      <trkpt lat="46.6005" lon="5.31436">
        <ele>202.8</ele>
        <time>2021-11-04T14:04:13Z</time>
      </trkpt>
      <trkpt lat="46.60051" lon="5.31447">
        <ele>202.6</ele>
        <time>2021-11-04T14:04:14Z</time>
      </trkpt>
      <trkpt lat="46.60056" lon="5.31479">
        <ele>202.4</ele>
        <time>2021-11-04T14:04:17Z</time>
      </trkpt>
      <trkpt lat="46.60072" lon="5.31529">
        <ele>202</ele>
        <time>2021-11-04T14:04:22Z</time>
      </trkpt>
      <trkpt lat="46.60087" lon="5.31556">
        <ele>201.8</ele>
        <time>2021-11-04T14:04:25Z</time>
      </trkpt>
      <trkpt lat="46.60111" lon="5.31603">
        <ele>201.4</ele>
        <time>2021-11-04T14:04:30Z</time>
      </trkpt>
      <trkpt lat="46.60144" lon="5.31668">
        <ele>201.2</ele>
        <time>2021-11-04T14:04:37Z</time>
      </trkpt>
      <trkpt lat="46.60152" lon="5.31685">
        <ele>201.4</ele>
        <time>2021-11-04T14:04:39Z</time>
      </trkpt>
      <trkpt lat="46.60179" lon="5.31739">
        <ele>202.8</ele>
        <time>2021-11-04T14:04:46Z</time>
      </trkpt>
      <trkpt lat="46.60183" lon="5.31746">
        <ele>203</ele>
        <time>2021-11-04T14:04:47Z</time>
      </trkpt>
      <trkpt lat="46.60206" lon="5.31789">
        <ele>204</ele>
        <time>2021-11-04T14:04:53Z</time>
      </trkpt>
      <trkpt lat="46.60208" lon="5.31795">
        <ele>204.2</ele>
        <time>2021-11-04T14:04:54Z</time>
      </trkpt>
      <trkpt lat="46.60233" lon="5.31845">
        <ele>205</ele>
        <time>2021-11-04T14:05:01Z</time>
      </trkpt>
      <trkpt lat="46.60237" lon="5.31852">
        <ele>205</ele>
        <time>2021-11-04T14:05:02Z</time>
      </trkpt>
      <trkpt lat="46.60264" lon="5.31905">
        <ele>205.8</ele>
        <time>2021-11-04T14:05:09Z</time>
      </trkpt>
      <trkpt lat="46.60286" lon="5.3195">
        <ele>206.2</ele>
        <time>2021-11-04T14:05:15Z</time>
      </trkpt>
      <trkpt lat="46.60301" lon="5.3198">
        <ele>206.4</ele>
        <time>2021-11-04T14:05:19Z</time>
      </trkpt>
      <trkpt lat="46.60335" lon="5.32049">
        <ele>206.8</ele>
        <time>2021-11-04T14:05:28Z</time>
      </trkpt>
      <trkpt lat="46.60343" lon="5.32065">
        <ele>206.8</ele>
        <time>2021-11-04T14:05:30Z</time>
      </trkpt>
      <trkpt lat="46.60375" lon="5.3213">
        <ele>206.6</ele>
        <time>2021-11-04T14:05:38Z</time>
      </trkpt>
      <trkpt lat="46.60384" lon="5.32147">
        <ele>206.4</ele>
        <time>2021-11-04T14:05:40Z</time>
      </trkpt>
      <trkpt lat="46.60417" lon="5.32213">
        <ele>206</ele>
        <time>2021-11-04T14:05:48Z</time>
      </trkpt>
      <trkpt lat="46.60424" lon="5.32229">
        <ele>206</ele>
        <time>2021-11-04T14:05:50Z</time>
      </trkpt>
      <trkpt lat="46.60457" lon="5.323">
        <ele>206.2</ele>
        <time>2021-11-04T14:05:59Z</time>
      </trkpt>
      <trkpt lat="46.6046" lon="5.32308">
        <ele>206.2</ele>
        <time>2021-11-04T14:06:00Z</time>
      </trkpt>
      <trkpt lat="46.60486" lon="5.32385">
        <ele>206.6</ele>
        <time>2021-11-04T14:06:09Z</time>
      </trkpt>
      <trkpt lat="46.60489" lon="5.32395">
        <ele>206.8</ele>
        <time>2021-11-04T14:06:10Z</time>
      </trkpt>
      <trkpt lat="46.60503" lon="5.32438">
        <ele>207</ele>
        <time>2021-11-04T14:06:15Z</time>
      </trkpt>
      <trkpt lat="46.60518" lon="5.32482">
        <ele>207</ele>
        <time>2021-11-04T14:06:20Z</time>
      </trkpt>
      <trkpt lat="46.60543" lon="5.32561">
        <ele>206.8</ele>
        <time>2021-11-04T14:06:29Z</time>
      </trkpt>
      <trkpt lat="46.60548" lon="5.32582">
        <ele>206.8</ele>
        <time>2021-11-04T14:06:31Z</time>
      </trkpt>
      <trkpt lat="46.60554" lon="5.32639">
        <ele>206.6</ele>
        <time>2021-11-04T14:06:37Z</time>
      </trkpt>
      <trkpt lat="46.60553" lon="5.32723">
        <ele>206.4</ele>
        <time>2021-11-04T14:06:45Z</time>
      </trkpt>
      <trkpt lat="46.60553" lon="5.32745">
        <ele>206</ele>
        <time>2021-11-04T14:06:47Z</time>
      </trkpt>
      <trkpt lat="46.60554" lon="5.32816">
        <ele>204.8</ele>
        <time>2021-11-04T14:06:53Z</time>
      </trkpt>
      <trkpt lat="46.60553" lon="5.32852">
        <ele>203.6</ele>
        <time>2021-11-04T14:06:56Z</time>
      </trkpt>
      <trkpt lat="46.60553" lon="5.32922">
        <ele>202.6</ele>
        <time>2021-11-04T14:07:02Z</time>
      </trkpt>
      <trkpt lat="46.60553" lon="5.32965">
        <ele>202.4</ele>
        <time>2021-11-04T14:07:06Z</time>
      </trkpt>
      <trkpt lat="46.60553" lon="5.33031">
        <ele>203</ele>
        <time>2021-11-04T14:07:13Z</time>
      </trkpt>
      <trkpt lat="46.60553" lon="5.33076">
        <ele>203.6</ele>
        <time>2021-11-04T14:07:18Z</time>
      </trkpt>
      <trkpt lat="46.60552" lon="5.33112">
        <ele>204.6</ele>
        <time>2021-11-04T14:07:22Z</time>
      </trkpt>
      <trkpt lat="46.60552" lon="5.33121">
        <ele>204.8</ele>
        <time>2021-11-04T14:07:23Z</time>
      </trkpt>
      <trkpt lat="46.60547" lon="5.33168">
        <ele>206</ele>
        <time>2021-11-04T14:07:28Z</time>
      </trkpt>
      <trkpt lat="46.60546" lon="5.33178">
        <ele>206</ele>
        <time>2021-11-04T14:07:29Z</time>
      </trkpt>
      <trkpt lat="46.6053" lon="5.33248">
        <ele>206.2</ele>
        <time>2021-11-04T14:07:36Z</time>
      </trkpt>
      <trkpt lat="46.6051" lon="5.33326">
        <ele>205.6</ele>
        <time>2021-11-04T14:07:44Z</time>
      </trkpt>
      <trkpt lat="46.60494" lon="5.33392">
        <ele>206.6</ele>
        <time>2021-11-04T14:07:52Z</time>
      </trkpt>
      <trkpt lat="46.60488" lon="5.33415">
        <ele>207.2</ele>
        <time>2021-11-04T14:07:55Z</time>
      </trkpt>
      <trkpt lat="46.60479" lon="5.33454">
        <ele>207.8</ele>
        <time>2021-11-04T14:08:00Z</time>
      </trkpt>
      <trkpt lat="46.60469" lon="5.33491">
        <ele>208.2</ele>
        <time>2021-11-04T14:08:05Z</time>
      </trkpt>
      <trkpt lat="46.60465" lon="5.33514">
        <ele>208.4</ele>
        <time>2021-11-04T14:08:08Z</time>
      </trkpt>
      <trkpt lat="46.6046" lon="5.33527">
        <ele>208.4</ele>
        <time>2021-11-04T14:08:10Z</time>
      </trkpt>
      <trkpt lat="46.60453" lon="5.33534">
        <ele>208.4</ele>
        <time>2021-11-04T14:08:12Z</time>
      </trkpt>
      <trkpt lat="46.60442" lon="5.33527">
        <ele>208.4</ele>
        <time>2021-11-04T14:08:15Z</time>
      </trkpt>
      <trkpt lat="46.60436" lon="5.33519">
        <ele>208.4</ele>
        <time>2021-11-04T14:08:19Z</time>
      </trkpt>
      <trkpt lat="46.60436" lon="5.33519">
        <ele>208.6</ele>
        <time>2021-11-04T14:08:21Z</time>
      </trkpt>
      <trkpt lat="46.60437" lon="5.33522">
        <ele>208.6</ele>
        <time>2021-11-04T14:09:29Z</time>
      </trkpt>
      <trkpt lat="46.6044" lon="5.33523">
        <ele>208.6</ele>
        <time>2021-11-04T14:09:30Z</time>
      </trkpt>
      <trkpt lat="46.60451" lon="5.33537">
        <ele>208.8</ele>
        <time>2021-11-04T14:09:35Z</time>
      </trkpt>
      <trkpt lat="46.60455" lon="5.33551">
        <ele>208.8</ele>
        <time>2021-11-04T14:09:38Z</time>
      </trkpt>
      <trkpt lat="46.60455" lon="5.33558">
        <ele>208.8</ele>
        <time>2021-11-04T14:09:39Z</time>
      </trkpt>
      <trkpt lat="46.60446" lon="5.33607">
        <ele>208.2</ele>
        <time>2021-11-04T14:09:45Z</time>
      </trkpt>
      <trkpt lat="46.60436" lon="5.33666">
        <ele>207.8</ele>
        <time>2021-11-04T14:09:52Z</time>
      </trkpt>
      <trkpt lat="46.60429" lon="5.33745">
        <ele>207.8</ele>
        <time>2021-11-04T14:09:59Z</time>
      </trkpt>
      <trkpt lat="46.60428" lon="5.33765">
        <ele>207.8</ele>
        <time>2021-11-04T14:10:01Z</time>
      </trkpt>
      <trkpt lat="46.60422" lon="5.33833">
        <ele>207.6</ele>
        <time>2021-11-04T14:10:08Z</time>
      </trkpt>
      <trkpt lat="46.60419" lon="5.33909">
        <ele>207.6</ele>
        <time>2021-11-04T14:10:16Z</time>
      </trkpt>
      <trkpt lat="46.60429" lon="5.33983">
        <ele>207.8</ele>
        <time>2021-11-04T14:10:24Z</time>
      </trkpt>
      <trkpt lat="46.60443" lon="5.34055">
        <ele>208.2</ele>
        <time>2021-11-04T14:10:32Z</time>
      </trkpt>
      <trkpt lat="46.60446" lon="5.34063">
        <ele>208.2</ele>
        <time>2021-11-04T14:10:33Z</time>
      </trkpt>
      <trkpt lat="46.60461" lon="5.34094">
        <ele>208.4</ele>
        <time>2021-11-04T14:10:37Z</time>
      </trkpt>
      <trkpt lat="46.60497" lon="5.34155">
        <ele>208.6</ele>
        <time>2021-11-04T14:10:45Z</time>
      </trkpt>
      <trkpt lat="46.60506" lon="5.34172">
        <ele>208.4</ele>
        <time>2021-11-04T14:10:47Z</time>
      </trkpt>
      <trkpt lat="46.60513" lon="5.34193">
        <ele>208.2</ele>
        <time>2021-11-04T14:10:49Z</time>
      </trkpt>
      <trkpt lat="46.60515" lon="5.34204">
        <ele>207.8</ele>
        <time>2021-11-04T14:10:50Z</time>
      </trkpt>
      <trkpt lat="46.60516" lon="5.34215">
        <ele>207.4</ele>
        <time>2021-11-04T14:10:51Z</time>
      </trkpt>
      <trkpt lat="46.60517" lon="5.34239">
        <ele>206.8</ele>
        <time>2021-11-04T14:10:53Z</time>
      </trkpt>
      <trkpt lat="46.60517" lon="5.34239">
        <ele>206.6</ele>
        <time>2021-11-04T14:10:54Z</time>
      </trkpt>
      <trkpt lat="46.60519" lon="5.34291">
        <ele>205.2</ele>
        <time>2021-11-04T14:10:57Z</time>
      </trkpt>
      <trkpt lat="46.6052" lon="5.34319">
        <ele>203.8</ele>
        <time>2021-11-04T14:11:00Z</time>
      </trkpt>
      <trkpt lat="46.60521" lon="5.34363">
        <ele>202.6</ele>
        <time>2021-11-04T14:11:02Z</time>
      </trkpt>
      <trkpt lat="46.60524" lon="5.34424">
        <ele>201</ele>
        <time>2021-11-04T14:11:06Z</time>
      </trkpt>
      <trkpt lat="46.60524" lon="5.34424">
        <ele>199.8</ele>
        <time>2021-11-04T14:11:07Z</time>
      </trkpt>
      <trkpt lat="46.60527" lon="5.34474">
        <ele>198.4</ele>
        <time>2021-11-04T14:11:09Z</time>
      </trkpt>
      <trkpt lat="46.60529" lon="5.3452">
        <ele>197</ele>
        <time>2021-11-04T14:11:12Z</time>
      </trkpt>
      <trkpt lat="46.6053" lon="5.34534">
        <ele>196.2</ele>
        <time>2021-11-04T14:11:13Z</time>
      </trkpt>
      <trkpt lat="46.60531" lon="5.34549">
        <ele>195.6</ele>
        <time>2021-11-04T14:11:14Z</time>
      </trkpt>
      <trkpt lat="46.60534" lon="5.34616">
        <ele>195</ele>
        <time>2021-11-04T14:11:19Z</time>
      </trkpt>
      <trkpt lat="46.60538" lon="5.347">
        <ele>195.4</ele>
        <time>2021-11-04T14:11:26Z</time>
      </trkpt>
      <trkpt lat="46.60539" lon="5.34713">
        <ele>195.2</ele>
        <time>2021-11-04T14:11:27Z</time>
      </trkpt>
      <trkpt lat="46.60542" lon="5.3478">
        <ele>194.4</ele>
        <time>2021-11-04T14:11:32Z</time>
      </trkpt>
      <trkpt lat="46.60544" lon="5.34834">
        <ele>193.8</ele>
        <time>2021-11-04T14:11:36Z</time>
      </trkpt>
      <trkpt lat="46.60546" lon="5.34871">
        <ele>192.8</ele>
        <time>2021-11-04T14:11:39Z</time>
      </trkpt>
      <trkpt lat="46.60549" lon="5.34923">
        <ele>191.4</ele>
        <time>2021-11-04T14:11:43Z</time>
      </trkpt>
      <trkpt lat="46.6055" lon="5.34951">
        <ele>191.2</ele>
        <time>2021-11-04T14:11:45Z</time>
      </trkpt>
      <trkpt lat="46.60553" lon="5.35007">
        <ele>191.4</ele>
        <time>2021-11-04T14:11:50Z</time>
      </trkpt>
      <trkpt lat="46.60555" lon="5.35073">
        <ele>192.8</ele>
        <time>2021-11-04T14:11:57Z</time>
      </trkpt>
      <trkpt lat="46.60556" lon="5.35111">
        <ele>194.4</ele>
        <time>2021-11-04T14:12:01Z</time>
      </trkpt>
      <trkpt lat="46.60556" lon="5.35144">
        <ele>195</ele>
        <time>2021-11-04T14:12:04Z</time>
      </trkpt>
      <trkpt lat="46.60555" lon="5.35154">
        <ele>195</ele>
        <time>2021-11-04T14:12:05Z</time>
      </trkpt>
      <trkpt lat="46.60549" lon="5.35183">
        <ele>195.2</ele>
        <time>2021-11-04T14:12:08Z</time>
      </trkpt>
      <trkpt lat="46.60546" lon="5.35193">
        <ele>195</ele>
        <time>2021-11-04T14:12:09Z</time>
      </trkpt>
      <trkpt lat="46.60541" lon="5.35204">
        <ele>195</ele>
        <time>2021-11-04T14:12:10Z</time>
      </trkpt>
      <trkpt lat="46.60532" lon="5.35221">
        <ele>195</ele>
        <time>2021-11-04T14:12:12Z</time>
      </trkpt>
      <trkpt lat="46.60525" lon="5.35233">
        <ele>195</ele>
        <time>2021-11-04T14:12:13Z</time>
      </trkpt>
      <trkpt lat="46.60495" lon="5.35281">
        <ele>192.8</ele>
        <time>2021-11-04T14:12:18Z</time>
      </trkpt>
      <trkpt lat="46.60478" lon="5.35311">
        <ele>191.6</ele>
        <time>2021-11-04T14:12:21Z</time>
      </trkpt>
      <trkpt lat="46.60459" lon="5.35339">
        <ele>190.4</ele>
        <time>2021-11-04T14:12:24Z</time>
      </trkpt>
      <trkpt lat="46.60449" lon="5.35354">
        <ele>190</ele>
        <time>2021-11-04T14:12:27Z</time>
      </trkpt>
      <trkpt lat="46.6041" lon="5.35412">
        <ele>190</ele>
        <time>2021-11-04T14:12:33Z</time>
      </trkpt>
      <trkpt lat="46.60372" lon="5.3547">
        <ele>190.4</ele>
        <time>2021-11-04T14:12:41Z</time>
      </trkpt>
      <trkpt lat="46.60334" lon="5.35528">
        <ele>191</ele>
        <time>2021-11-04T14:12:49Z</time>
      </trkpt>
      <trkpt lat="46.60317" lon="5.35571">
        <ele>191.2</ele>
        <time>2021-11-04T14:12:54Z</time>
      </trkpt>
      <trkpt lat="46.60304" lon="5.35638">
        <ele>190.8</ele>
        <time>2021-11-04T14:13:01Z</time>
      </trkpt>
      <trkpt lat="46.60305" lon="5.35693">
        <ele>191</ele>
        <time>2021-11-04T14:13:07Z</time>
      </trkpt>
      <trkpt lat="46.60315" lon="5.35754">
        <ele>191.8</ele>
        <time>2021-11-04T14:13:14Z</time>
      </trkpt>
      <trkpt lat="46.6032" lon="5.35786">
        <ele>192.4</ele>
        <time>2021-11-04T14:13:18Z</time>
      </trkpt>
      <trkpt lat="46.60321" lon="5.35795">
        <ele>192.8</ele>
        <time>2021-11-04T14:13:19Z</time>
      </trkpt>
      <trkpt lat="46.60323" lon="5.35802">
        <ele>193</ele>
        <time>2021-11-04T14:13:20Z</time>
      </trkpt>
      <trkpt lat="46.60329" lon="5.3584">
        <ele>193.8</ele>
        <time>2021-11-04T14:13:25Z</time>
      </trkpt>
      <trkpt lat="46.60331" lon="5.35854">
        <ele>193.8</ele>
        <time>2021-11-04T14:13:27Z</time>
      </trkpt>
      <trkpt lat="46.60332" lon="5.35862">
        <ele>193.8</ele>
        <time>2021-11-04T14:13:28Z</time>
      </trkpt>
      <trkpt lat="46.60335" lon="5.3589">
        <ele>194</ele>
        <time>2021-11-04T14:13:31Z</time>
      </trkpt>
      <trkpt lat="46.60338" lon="5.35928">
        <ele>195</ele>
        <time>2021-11-04T14:13:35Z</time>
      </trkpt>
      <trkpt lat="46.60339" lon="5.35945">
        <ele>195.4</ele>
        <time>2021-11-04T14:13:37Z</time>
      </trkpt>
      <trkpt lat="46.60338" lon="5.35965">
        <ele>195.2</ele>
        <time>2021-11-04T14:13:39Z</time>
      </trkpt>
      <trkpt lat="46.60336" lon="5.35993">
        <ele>195.4</ele>
        <time>2021-11-04T14:13:42Z</time>
      </trkpt>
      <trkpt lat="46.60322" lon="5.36062">
        <ele>195</ele>
        <time>2021-11-04T14:13:49Z</time>
      </trkpt>
      <trkpt lat="46.60301" lon="5.36139">
        <ele>194.2</ele>
        <time>2021-11-04T14:13:57Z</time>
      </trkpt>
      <trkpt lat="46.60299" lon="5.36149">
        <ele>193.8</ele>
        <time>2021-11-04T14:13:58Z</time>
      </trkpt>
      <trkpt lat="46.60296" lon="5.36159">
        <ele>193.6</ele>
        <time>2021-11-04T14:13:59Z</time>
      </trkpt>
      <trkpt lat="46.60277" lon="5.36237">
        <ele>192.8</ele>
        <time>2021-11-04T14:14:07Z</time>
      </trkpt>
      <trkpt lat="46.60275" lon="5.36247">
        <ele>192.8</ele>
        <time>2021-11-04T14:14:08Z</time>
      </trkpt>
      <trkpt lat="46.60273" lon="5.36255">
        <ele>192.6</ele>
        <time>2021-11-04T14:14:09Z</time>
      </trkpt>
      <trkpt lat="46.60271" lon="5.36265">
        <ele>192.6</ele>
        <time>2021-11-04T14:14:10Z</time>
      </trkpt>
      <trkpt lat="46.60269" lon="5.36277">
        <ele>192.6</ele>
        <time>2021-11-04T14:14:11Z</time>
      </trkpt>
      <trkpt lat="46.60264" lon="5.36307">
        <ele>192.4</ele>
        <time>2021-11-04T14:14:14Z</time>
      </trkpt>
      <trkpt lat="46.60262" lon="5.36315">
        <ele>192.2</ele>
        <time>2021-11-04T14:14:15Z</time>
      </trkpt>
      <trkpt lat="46.60257" lon="5.36333">
        <ele>191.8</ele>
        <time>2021-11-04T14:14:17Z</time>
      </trkpt>
      <trkpt lat="46.60251" lon="5.36377">
        <ele>192</ele>
        <time>2021-11-04T14:14:22Z</time>
      </trkpt>
      <trkpt lat="46.60253" lon="5.36425">
        <ele>193.2</ele>
        <time>2021-11-04T14:14:28Z</time>
      </trkpt>
      <trkpt lat="46.60257" lon="5.36447">
        <ele>193.8</ele>
        <time>2021-11-04T14:14:31Z</time>
      </trkpt>
      <trkpt lat="46.60262" lon="5.36462">
        <ele>194.4</ele>
        <time>2021-11-04T14:14:33Z</time>
      </trkpt>
      <trkpt lat="46.60264" lon="5.36469">
        <ele>194.6</ele>
        <time>2021-11-04T14:14:34Z</time>
      </trkpt>
      <trkpt lat="46.6027" lon="5.36482">
        <ele>194.8</ele>
        <time>2021-11-04T14:14:36Z</time>
      </trkpt>
      <trkpt lat="46.60282" lon="5.36505">
        <ele>195.6</ele>
        <time>2021-11-04T14:14:40Z</time>
      </trkpt>
      <trkpt lat="46.60282" lon="5.36505">
        <ele>195.8</ele>
        <time>2021-11-04T14:14:41Z</time>
      </trkpt>
      <trkpt lat="46.6029" lon="5.36515">
        <ele>196</ele>
        <time>2021-11-04T14:14:42Z</time>
      </trkpt>
      <trkpt lat="46.60311" lon="5.36538">
        <ele>197</ele>
        <time>2021-11-04T14:14:47Z</time>
      </trkpt>
      <trkpt lat="46.60316" lon="5.36544">
        <ele>197.4</ele>
        <time>2021-11-04T14:14:48Z</time>
      </trkpt>
      <trkpt lat="46.60337" lon="5.36566">
        <ele>198.2</ele>
        <time>2021-11-04T14:14:53Z</time>
      </trkpt>
      <trkpt lat="46.60349" lon="5.36578">
        <ele>198.6</ele>
        <time>2021-11-04T14:14:56Z</time>
      </trkpt>
      <trkpt lat="46.6037" lon="5.366">
        <ele>199.2</ele>
        <time>2021-11-04T14:15:01Z</time>
      </trkpt>
      <trkpt lat="46.60374" lon="5.36604">
        <ele>199.6</ele>
        <time>2021-11-04T14:15:02Z</time>
      </trkpt>
      <trkpt lat="46.60378" lon="5.36608">
        <ele>199.8</ele>
        <time>2021-11-04T14:15:03Z</time>
      </trkpt>
      <trkpt lat="46.60392" lon="5.36622">
        <ele>200.4</ele>
        <time>2021-11-04T14:15:06Z</time>
      </trkpt>
      <trkpt lat="46.60404" lon="5.36637">
        <ele>201.2</ele>
        <time>2021-11-04T14:15:10Z</time>
      </trkpt>
      <trkpt lat="46.60412" lon="5.36649">
        <ele>201.4</ele>
        <time>2021-11-04T14:15:11Z</time>
      </trkpt>
      <trkpt lat="46.60427" lon="5.36674">
        <ele>201.8</ele>
        <time>2021-11-04T14:15:15Z</time>
      </trkpt>
      <trkpt lat="46.60446" lon="5.36729">
        <ele>202.2</ele>
        <time>2021-11-04T14:15:22Z</time>
      </trkpt>
      <trkpt lat="46.60452" lon="5.36785">
        <ele>201.6</ele>
        <time>2021-11-04T14:15:28Z</time>
      </trkpt>
      <trkpt lat="46.60454" lon="5.36863">
        <ele>200.4</ele>
        <time>2021-11-04T14:15:35Z</time>
      </trkpt>
      <trkpt lat="46.60454" lon="5.36875">
        <ele>199.8</ele>
        <time>2021-11-04T14:15:36Z</time>
      </trkpt>
      <trkpt lat="46.6045" lon="5.36911">
        <ele>198.6</ele>
        <time>2021-11-04T14:15:39Z</time>
      </trkpt>
      <trkpt lat="46.60449" lon="5.36923">
        <ele>198.4</ele>
        <time>2021-11-04T14:15:40Z</time>
      </trkpt>
      <trkpt lat="46.60441" lon="5.36973">
        <ele>197.2</ele>
        <time>2021-11-04T14:15:44Z</time>
      </trkpt>
      <trkpt lat="46.60437" lon="5.36998">
        <ele>196.2</ele>
        <time>2021-11-04T14:15:46Z</time>
      </trkpt>
      <trkpt lat="46.60436" lon="5.37011">
        <ele>196</ele>
        <time>2021-11-04T14:15:47Z</time>
      </trkpt>
      <trkpt lat="46.6043" lon="5.37046">
        <ele>194.6</ele>
        <time>2021-11-04T14:15:50Z</time>
      </trkpt>
      <trkpt lat="46.60424" lon="5.3709">
        <ele>194.2</ele>
        <time>2021-11-04T14:15:54Z</time>
      </trkpt>
      <trkpt lat="46.60417" lon="5.37148">
        <ele>195</ele>
        <time>2021-11-04T14:16:00Z</time>
      </trkpt>
      <trkpt lat="46.60412" lon="5.37192">
        <ele>195.6</ele>
        <time>2021-11-04T14:16:05Z</time>
      </trkpt>
      <trkpt lat="46.60411" lon="5.3721">
        <ele>196</ele>
        <time>2021-11-04T14:16:07Z</time>
      </trkpt>
      <trkpt lat="46.60406" lon="5.37246">
        <ele>196.8</ele>
        <time>2021-11-04T14:16:11Z</time>
      </trkpt>
      <trkpt lat="46.60402" lon="5.37261">
        <ele>197</ele>
        <time>2021-11-04T14:16:13Z</time>
      </trkpt>
      <trkpt lat="46.60389" lon="5.37298">
        <ele>198</ele>
        <time>2021-11-04T14:16:18Z</time>
      </trkpt>
      <trkpt lat="46.60386" lon="5.37304">
        <ele>198</ele>
        <time>2021-11-04T14:16:19Z</time>
      </trkpt>
      <trkpt lat="46.60382" lon="5.37309">
        <ele>198.2</ele>
        <time>2021-11-04T14:16:20Z</time>
      </trkpt>
      <trkpt lat="46.6037" lon="5.37321">
        <ele>199</ele>
        <time>2021-11-04T14:16:23Z</time>
      </trkpt>
      <trkpt lat="46.60365" lon="5.37324">
        <ele>199.4</ele>
        <time>2021-11-04T14:16:24Z</time>
      </trkpt>
      <trkpt lat="46.60356" lon="5.37328">
        <ele>200</ele>
        <time>2021-11-04T14:16:26Z</time>
      </trkpt>
      <trkpt lat="46.60347" lon="5.37332">
        <ele>201</ele>
        <time>2021-11-04T14:16:28Z</time>
      </trkpt>
      <trkpt lat="46.60343" lon="5.37334">
        <ele>201.6</ele>
        <time>2021-11-04T14:16:29Z</time>
      </trkpt>
      <trkpt lat="46.60334" lon="5.37337">
        <ele>202</ele>
        <time>2021-11-04T14:16:31Z</time>
      </trkpt>
      <trkpt lat="46.60329" lon="5.37338">
        <ele>202.4</ele>
        <time>2021-11-04T14:16:32Z</time>
      </trkpt>
      <trkpt lat="46.60315" lon="5.37342">
        <ele>203</ele>
        <time>2021-11-04T14:16:35Z</time>
      </trkpt>
      <trkpt lat="46.6031" lon="5.37342">
        <ele>203.6</ele>
        <time>2021-11-04T14:16:36Z</time>
      </trkpt>
      <trkpt lat="46.60291" lon="5.37345">
        <ele>204.8</ele>
        <time>2021-11-04T14:16:40Z</time>
      </trkpt>
      <trkpt lat="46.60287" lon="5.37346">
        <ele>205.2</ele>
        <time>2021-11-04T14:16:41Z</time>
      </trkpt>
      <trkpt lat="46.60272" lon="5.37353">
        <ele>205.8</ele>
        <time>2021-11-04T14:16:44Z</time>
      </trkpt>
      <trkpt lat="46.60268" lon="5.37356">
        <ele>206.2</ele>
        <time>2021-11-04T14:16:45Z</time>
      </trkpt>
      <trkpt lat="46.6026" lon="5.37366">
        <ele>206.8</ele>
        <time>2021-11-04T14:16:47Z</time>
      </trkpt>
      <trkpt lat="46.6026" lon="5.37366">
        <ele>207.2</ele>
        <time>2021-11-04T14:16:48Z</time>
      </trkpt>
      <trkpt lat="46.60253" lon="5.3738">
        <ele>207.2</ele>
        <time>2021-11-04T14:16:49Z</time>
      </trkpt>
      <trkpt lat="46.60244" lon="5.37404">
        <ele>207.4</ele>
        <time>2021-11-04T14:16:52Z</time>
      </trkpt>
      <trkpt lat="46.60225" lon="5.37465">
        <ele>206.2</ele>
        <time>2021-11-04T14:16:58Z</time>
      </trkpt>
      <trkpt lat="46.60222" lon="5.37476">
        <ele>205.6</ele>
        <time>2021-11-04T14:16:59Z</time>
      </trkpt>
      <trkpt lat="46.60212" lon="5.37515">
        <ele>204.4</ele>
        <time>2021-11-04T14:17:02Z</time>
      </trkpt>
      <trkpt lat="46.60209" lon="5.37527">
        <ele>203.6</ele>
        <time>2021-11-04T14:17:03Z</time>
      </trkpt>
      <trkpt lat="46.60207" lon="5.3754">
        <ele>203</ele>
        <time>2021-11-04T14:17:04Z</time>
      </trkpt>
      <trkpt lat="46.60201" lon="5.37567">
        <ele>202</ele>
        <time>2021-11-04T14:17:06Z</time>
      </trkpt>
      <trkpt lat="46.6019" lon="5.37624">
        <ele>200.4</ele>
        <time>2021-11-04T14:17:10Z</time>
      </trkpt>
      <trkpt lat="46.60188" lon="5.37638">
        <ele>199.4</ele>
        <time>2021-11-04T14:17:11Z</time>
      </trkpt>
      <trkpt lat="46.60183" lon="5.37667">
        <ele>198</ele>
        <time>2021-11-04T14:17:13Z</time>
      </trkpt>
      <trkpt lat="46.60173" lon="5.37724">
        <ele>196.4</ele>
        <time>2021-11-04T14:17:17Z</time>
      </trkpt>
      <trkpt lat="46.60165" lon="5.37765">
        <ele>195</ele>
        <time>2021-11-04T14:17:20Z</time>
      </trkpt>
      <trkpt lat="46.60156" lon="5.37815">
        <ele>194.6</ele>
        <time>2021-11-04T14:17:24Z</time>
      </trkpt>
      <trkpt lat="46.60143" lon="5.37882">
        <ele>195</ele>
        <time>2021-11-04T14:17:31Z</time>
      </trkpt>
      <trkpt lat="46.60128" lon="5.37956">
        <ele>196.2</ele>
        <time>2021-11-04T14:17:38Z</time>
      </trkpt>
      <trkpt lat="46.6012" lon="5.37998">
        <ele>197.6</ele>
        <time>2021-11-04T14:17:43Z</time>
      </trkpt>
      <trkpt lat="46.60116" lon="5.38016">
        <ele>198</ele>
        <time>2021-11-04T14:17:45Z</time>
      </trkpt>
      <trkpt lat="46.60109" lon="5.38055">
        <ele>198.6</ele>
        <time>2021-11-04T14:17:49Z</time>
      </trkpt>
      <trkpt lat="46.60105" lon="5.38085">
        <ele>198.6</ele>
        <time>2021-11-04T14:17:52Z</time>
      </trkpt>
      <trkpt lat="46.60096" lon="5.38165">
        <ele>198.2</ele>
        <time>2021-11-04T14:18:00Z</time>
      </trkpt>
      <trkpt lat="46.60094" lon="5.38186">
        <ele>198</ele>
        <time>2021-11-04T14:18:02Z</time>
      </trkpt>
      <trkpt lat="46.60091" lon="5.38269">
        <ele>197.6</ele>
        <time>2021-11-04T14:18:10Z</time>
      </trkpt>
      <trkpt lat="46.60091" lon="5.38279">
        <ele>197.4</ele>
        <time>2021-11-04T14:18:11Z</time>
      </trkpt>
      <trkpt lat="46.60091" lon="5.38299">
        <ele>197.4</ele>
        <time>2021-11-04T14:18:13Z</time>
      </trkpt>
      <trkpt lat="46.60093" lon="5.38386">
        <ele>197.4</ele>
        <time>2021-11-04T14:18:22Z</time>
      </trkpt>
      <trkpt lat="46.60092" lon="5.38471">
        <ele>198</ele>
        <time>2021-11-04T14:18:31Z</time>
      </trkpt>
      <trkpt lat="46.60088" lon="5.3855">
        <ele>198</ele>
        <time>2021-11-04T14:18:39Z</time>
      </trkpt>
      <trkpt lat="46.60076" lon="5.38622">
        <ele>196.8</ele>
        <time>2021-11-04T14:18:46Z</time>
      </trkpt>
      <trkpt lat="46.60071" lon="5.38642">
        <ele>196.4</ele>
        <time>2021-11-04T14:18:48Z</time>
      </trkpt>
      <trkpt lat="46.60056" lon="5.38713">
        <ele>195.6</ele>
        <time>2021-11-04T14:18:55Z</time>
      </trkpt>
      <trkpt lat="46.60047" lon="5.38752">
        <ele>195.8</ele>
        <time>2021-11-04T14:19:00Z</time>
      </trkpt>
      <trkpt lat="46.60039" lon="5.38783">
        <ele>197.6</ele>
        <time>2021-11-04T14:19:05Z</time>
      </trkpt>
      <trkpt lat="46.60037" lon="5.3879">
        <ele>197.8</ele>
        <time>2021-11-04T14:19:06Z</time>
      </trkpt>
      <trkpt lat="46.60032" lon="5.38809">
        <ele>198.8</ele>
        <time>2021-11-04T14:19:09Z</time>
      </trkpt>
      <trkpt lat="46.60026" lon="5.38826">
        <ele>200</ele>
        <time>2021-11-04T14:19:12Z</time>
      </trkpt>
      <trkpt lat="46.6002" lon="5.38844">
        <ele>200.6</ele>
        <time>2021-11-04T14:19:15Z</time>
      </trkpt>
      <trkpt lat="46.60018" lon="5.38849">
        <ele>201.2</ele>
        <time>2021-11-04T14:19:16Z</time>
      </trkpt>
      <trkpt lat="46.6001" lon="5.3887">
        <ele>202.2</ele>
        <time>2021-11-04T14:19:20Z</time>
      </trkpt>
      <trkpt lat="46.60008" lon="5.38875">
        <ele>202.6</ele>
        <time>2021-11-04T14:19:21Z</time>
      </trkpt>
      <trkpt lat="46.60006" lon="5.3888">
        <ele>202.8</ele>
        <time>2021-11-04T14:19:22Z</time>
      </trkpt>
      <trkpt lat="46.6" lon="5.38895">
        <ele>204</ele>
        <time>2021-11-04T14:19:25Z</time>
      </trkpt>
      <trkpt lat="46.59995" lon="5.3891">
        <ele>205</ele>
        <time>2021-11-04T14:19:28Z</time>
      </trkpt>
      <trkpt lat="46.5999" lon="5.38926">
        <ele>205.8</ele>
        <time>2021-11-04T14:19:31Z</time>
      </trkpt>
      <trkpt lat="46.59989" lon="5.38931">
        <ele>206</ele>
        <time>2021-11-04T14:19:32Z</time>
      </trkpt>
      <trkpt lat="46.59986" lon="5.38948">
        <ele>207</ele>
        <time>2021-11-04T14:19:35Z</time>
      </trkpt>
      <trkpt lat="46.59981" lon="5.38972">
        <ele>208</ele>
        <time>2021-11-04T14:19:39Z</time>
      </trkpt>
      <trkpt lat="46.5998" lon="5.38979">
        <ele>208.2</ele>
        <time>2021-11-04T14:19:40Z</time>
      </trkpt>
      <trkpt lat="46.59976" lon="5.39011">
        <ele>209.2</ele>
        <time>2021-11-04T14:19:45Z</time>
      </trkpt>
      <trkpt lat="46.59972" lon="5.39036">
        <ele>209.8</ele>
        <time>2021-11-04T14:19:49Z</time>
      </trkpt>
      <trkpt lat="46.5997" lon="5.39049">
        <ele>210.2</ele>
        <time>2021-11-04T14:19:51Z</time>
      </trkpt>
      <trkpt lat="46.59964" lon="5.39092">
        <ele>211.2</ele>
        <time>2021-11-04T14:19:58Z</time>
      </trkpt>
      <trkpt lat="46.59962" lon="5.39097">
        <ele>211.4</ele>
        <time>2021-11-04T14:19:59Z</time>
      </trkpt>
      <trkpt lat="46.59957" lon="5.39108">
        <ele>211.6</ele>
        <time>2021-11-04T14:20:01Z</time>
      </trkpt>
      <trkpt lat="46.59947" lon="5.39122">
        <ele>212.4</ele>
        <time>2021-11-04T14:20:04Z</time>
      </trkpt>
      <trkpt lat="46.59944" lon="5.39127">
        <ele>212.4</ele>
        <time>2021-11-04T14:20:05Z</time>
      </trkpt>
      <trkpt lat="46.59922" lon="5.39169">
        <ele>213.2</ele>
        <time>2021-11-04T14:20:12Z</time>
      </trkpt>
      <trkpt lat="46.59917" lon="5.39175">
        <ele>213.2</ele>
        <time>2021-11-04T14:20:13Z</time>
      </trkpt>
      <trkpt lat="46.59913" lon="5.39179">
        <ele>213.4</ele>
        <time>2021-11-04T14:20:14Z</time>
      </trkpt>
      <trkpt lat="46.59907" lon="5.39183">
        <ele>213.4</ele>
        <time>2021-11-04T14:20:15Z</time>
      </trkpt>
      <trkpt lat="46.59897" lon="5.39188">
        <ele>213.4</ele>
        <time>2021-11-04T14:20:17Z</time>
      </trkpt>
      <trkpt lat="46.59858" lon="5.39195">
        <ele>213.2</ele>
        <time>2021-11-04T14:20:24Z</time>
      </trkpt>
      <trkpt lat="46.59818" lon="5.39189">
        <ele>213.4</ele>
        <time>2021-11-04T14:20:31Z</time>
      </trkpt>
      <trkpt lat="46.59812" lon="5.39188">
        <ele>213.4</ele>
        <time>2021-11-04T14:20:32Z</time>
      </trkpt>
      <trkpt lat="46.59789" lon="5.39193">
        <ele>213.8</ele>
        <time>2021-11-04T14:20:36Z</time>
      </trkpt>
      <trkpt lat="46.59756" lon="5.39205">
        <ele>214.4</ele>
        <time>2021-11-04T14:20:42Z</time>
      </trkpt>
      <trkpt lat="46.59751" lon="5.39209">
        <ele>214.4</ele>
        <time>2021-11-04T14:20:43Z</time>
      </trkpt>
      <trkpt lat="46.59745" lon="5.3921">
        <ele>214.4</ele>
        <time>2021-11-04T14:20:44Z</time>
      </trkpt>
      <trkpt lat="46.59734" lon="5.39207">
        <ele>214.4</ele>
        <time>2021-11-04T14:20:46Z</time>
      </trkpt>
      <trkpt lat="46.5969" lon="5.39194">
        <ele>215</ele>
        <time>2021-11-04T14:20:54Z</time>
      </trkpt>
      <trkpt lat="46.59672" lon="5.39189">
        <ele>215.2</ele>
        <time>2021-11-04T14:20:57Z</time>
      </trkpt>
      <trkpt lat="46.59652" lon="5.39185">
        <ele>215.2</ele>
        <time>2021-11-04T14:21:00Z</time>
      </trkpt>
      <trkpt lat="46.59619" lon="5.39183">
        <ele>215</ele>
        <time>2021-11-04T14:21:05Z</time>
      </trkpt>
      <trkpt lat="46.59612" lon="5.39184">
        <ele>214.8</ele>
        <time>2021-11-04T14:21:06Z</time>
      </trkpt>
      <trkpt lat="46.59573" lon="5.39202">
        <ele>214.2</ele>
        <time>2021-11-04T14:21:12Z</time>
      </trkpt>
      <trkpt lat="46.59566" lon="5.39203">
        <ele>214.2</ele>
        <time>2021-11-04T14:21:13Z</time>
      </trkpt>
      <trkpt lat="46.59539" lon="5.39206">
        <ele>214</ele>
        <time>2021-11-04T14:21:17Z</time>
      </trkpt>
      <trkpt lat="46.59532" lon="5.39204">
        <ele>214</ele>
        <time>2021-11-04T14:21:18Z</time>
      </trkpt>
      <trkpt lat="46.59525" lon="5.39202">
        <ele>214</ele>
        <time>2021-11-04T14:21:19Z</time>
      </trkpt>
      <trkpt lat="46.59513" lon="5.39191">
        <ele>213.8</ele>
        <time>2021-11-04T14:21:21Z</time>
      </trkpt>
      <trkpt lat="46.59505" lon="5.39174">
        <ele>213.8</ele>
        <time>2021-11-04T14:21:23Z</time>
      </trkpt>
      <trkpt lat="46.59503" lon="5.39164">
        <ele>213.8</ele>
        <time>2021-11-04T14:21:24Z</time>
      </trkpt>
      <trkpt lat="46.59494" lon="5.39091">
        <ele>213.4</ele>
        <time>2021-11-04T14:21:31Z</time>
      </trkpt>
      <trkpt lat="46.5949" lon="5.3906">
        <ele>213</ele>
        <time>2021-11-04T14:21:34Z</time>
      </trkpt>
      <trkpt lat="46.5948" lon="5.38978">
        <ele>212.8</ele>
        <time>2021-11-04T14:21:42Z</time>
      </trkpt>
      <trkpt lat="46.59474" lon="5.38949">
        <ele>212.8</ele>
        <time>2021-11-04T14:21:45Z</time>
      </trkpt>
      <trkpt lat="46.59468" lon="5.38932">
        <ele>212.6</ele>
        <time>2021-11-04T14:21:47Z</time>
      </trkpt>
      <trkpt lat="46.59455" lon="5.38898">
        <ele>212.6</ele>
        <time>2021-11-04T14:21:51Z</time>
      </trkpt>
      <trkpt lat="46.59452" lon="5.38879">
        <ele>212.6</ele>
        <time>2021-11-04T14:21:53Z</time>
      </trkpt>
      <trkpt lat="46.59444" lon="5.38812">
        <ele>213.4</ele>
        <time>2021-11-04T14:22:00Z</time>
      </trkpt>
      <trkpt lat="46.59439" lon="5.38794">
        <ele>213.4</ele>
        <time>2021-11-04T14:22:02Z</time>
      </trkpt>
      <trkpt lat="46.5943" lon="5.38778">
        <ele>213.4</ele>
        <time>2021-11-04T14:22:04Z</time>
      </trkpt>
      <trkpt lat="46.59397" lon="5.38741">
        <ele>213.2</ele>
        <time>2021-11-04T14:22:10Z</time>
      </trkpt>
      <trkpt lat="46.59353" lon="5.38695">
        <ele>212.4</ele>
        <time>2021-11-04T14:22:18Z</time>
      </trkpt>
      <trkpt lat="46.59332" lon="5.38671">
        <ele>212</ele>
        <time>2021-11-04T14:22:22Z</time>
      </trkpt>
      <trkpt lat="46.59283" lon="5.38619">
        <ele>211.8</ele>
        <time>2021-11-04T14:22:31Z</time>
      </trkpt>
      <trkpt lat="46.59277" lon="5.38613">
        <ele>211.8</ele>
        <time>2021-11-04T14:22:33Z</time>
      </trkpt>
      <trkpt lat="46.59236" lon="5.38568">
        <ele>212.2</ele>
        <time>2021-11-04T14:22:40Z</time>
      </trkpt>
      <trkpt lat="46.59191" lon="5.3852">
        <ele>213</ele>
        <time>2021-11-04T14:22:49Z</time>
      </trkpt>
      <trkpt lat="46.5916" lon="5.38478">
        <ele>212.6</ele>
        <time>2021-11-04T14:22:55Z</time>
      </trkpt>
      <trkpt lat="46.59131" lon="5.38429">
        <ele>211.2</ele>
        <time>2021-11-04T14:23:01Z</time>
      </trkpt>
      <trkpt lat="46.59126" lon="5.38421">
        <ele>211</ele>
        <time>2021-11-04T14:23:02Z</time>
      </trkpt>
      <trkpt lat="46.59098" lon="5.38394">
        <ele>209.8</ele>
        <time>2021-11-04T14:23:06Z</time>
      </trkpt>
      <trkpt lat="46.59069" lon="5.3837">
        <ele>208.6</ele>
        <time>2021-11-04T14:23:10Z</time>
      </trkpt>
      <trkpt lat="46.59055" lon="5.38358">
        <ele>207.6</ele>
        <time>2021-11-04T14:23:12Z</time>
      </trkpt>
      <trkpt lat="46.59047" lon="5.38352">
        <ele>207.4</ele>
        <time>2021-11-04T14:23:13Z</time>
      </trkpt>
      <trkpt lat="46.59017" lon="5.38327">
        <ele>206.2</ele>
        <time>2021-11-04T14:23:17Z</time>
      </trkpt>
      <trkpt lat="46.58981" lon="5.38297">
        <ele>205.2</ele>
        <time>2021-11-04T14:23:22Z</time>
      </trkpt>
      <trkpt lat="46.58974" lon="5.38291">
        <ele>205</ele>
        <time>2021-11-04T14:23:23Z</time>
      </trkpt>
      <trkpt lat="46.58937" lon="5.38258">
        <ele>205</ele>
        <time>2021-11-04T14:23:29Z</time>
      </trkpt>
      <trkpt lat="46.58896" lon="5.38208">
        <ele>206</ele>
        <time>2021-11-04T14:23:37Z</time>
      </trkpt>
      <trkpt lat="46.58885" lon="5.38195">
        <ele>206.4</ele>
        <time>2021-11-04T14:23:39Z</time>
      </trkpt>
      <trkpt lat="46.58841" lon="5.3814">
        <ele>207.6</ele>
        <time>2021-11-04T14:23:48Z</time>
      </trkpt>
      <trkpt lat="46.58835" lon="5.38133">
        <ele>207.6</ele>
        <time>2021-11-04T14:23:49Z</time>
      </trkpt>
      <trkpt lat="46.58791" lon="5.38078">
        <ele>208.6</ele>
        <time>2021-11-04T14:23:58Z</time>
      </trkpt>
      <trkpt lat="46.58785" lon="5.38072">
        <ele>208.6</ele>
        <time>2021-11-04T14:23:59Z</time>
      </trkpt>
      <trkpt lat="46.58768" lon="5.38061">
        <ele>209.2</ele>
        <time>2021-11-04T14:24:02Z</time>
      </trkpt>
      <trkpt lat="46.58734" lon="5.38055">
        <ele>209.2</ele>
        <time>2021-11-04T14:24:07Z</time>
      </trkpt>
      <trkpt lat="46.58687" lon="5.38052">
        <ele>208.4</ele>
        <time>2021-11-04T14:24:14Z</time>
      </trkpt>
      <trkpt lat="46.58633" lon="5.38045">
        <ele>207.8</ele>
        <time>2021-11-04T14:24:22Z</time>
      </trkpt>
      <trkpt lat="46.58626" lon="5.38043">
        <ele>207.6</ele>
        <time>2021-11-04T14:24:23Z</time>
      </trkpt>
      <trkpt lat="46.5862" lon="5.38039">
        <ele>207.6</ele>
        <time>2021-11-04T14:24:24Z</time>
      </trkpt>
      <trkpt lat="46.58596" lon="5.3802">
        <ele>207.2</ele>
        <time>2021-11-04T14:24:28Z</time>
      </trkpt>
      <trkpt lat="46.58574" lon="5.37996">
        <ele>206.6</ele>
        <time>2021-11-04T14:24:32Z</time>
      </trkpt>
      <trkpt lat="46.58565" lon="5.37979">
        <ele>206.4</ele>
        <time>2021-11-04T14:24:34Z</time>
      </trkpt>
      <trkpt lat="46.58559" lon="5.3796">
        <ele>206.2</ele>
        <time>2021-11-04T14:24:36Z</time>
      </trkpt>
      <trkpt lat="46.58557" lon="5.3794">
        <ele>205.6</ele>
        <time>2021-11-04T14:24:38Z</time>
      </trkpt>
      <trkpt lat="46.58558" lon="5.37919">
        <ele>205.4</ele>
        <time>2021-11-04T14:24:40Z</time>
      </trkpt>
      <trkpt lat="46.58562" lon="5.37896">
        <ele>205.2</ele>
        <time>2021-11-04T14:24:42Z</time>
      </trkpt>
      <trkpt lat="46.58574" lon="5.37819">
        <ele>205.2</ele>
        <time>2021-11-04T14:24:50Z</time>
      </trkpt>
      <trkpt lat="46.58578" lon="5.378">
        <ele>205.2</ele>
        <time>2021-11-04T14:24:52Z</time>
      </trkpt>
      <trkpt lat="46.58579" lon="5.37789">
        <ele>205.2</ele>
        <time>2021-11-04T14:24:53Z</time>
      </trkpt>
      <trkpt lat="46.58579" lon="5.37772">
        <ele>205.4</ele>
        <time>2021-11-04T14:24:55Z</time>
      </trkpt>
      <trkpt lat="46.58577" lon="5.37763">
        <ele>205.4</ele>
        <time>2021-11-04T14:24:56Z</time>
      </trkpt>
      <trkpt lat="46.58575" lon="5.37753">
        <ele>205.6</ele>
        <time>2021-11-04T14:24:57Z</time>
      </trkpt>
      <trkpt lat="46.58568" lon="5.37738">
        <ele>205.6</ele>
        <time>2021-11-04T14:24:59Z</time>
      </trkpt>
      <trkpt lat="46.58557" lon="5.37725">
        <ele>205.8</ele>
        <time>2021-11-04T14:25:01Z</time>
      </trkpt>
      <trkpt lat="46.58546" lon="5.37714">
        <ele>206</ele>
        <time>2021-11-04T14:25:03Z</time>
      </trkpt>
      <trkpt lat="46.58542" lon="5.37709">
        <ele>206</ele>
        <time>2021-11-04T14:25:04Z</time>
      </trkpt>
      <trkpt lat="46.58534" lon="5.37695">
        <ele>206.2</ele>
        <time>2021-11-04T14:25:06Z</time>
      </trkpt>
      <trkpt lat="46.58531" lon="5.37686">
        <ele>206.2</ele>
        <time>2021-11-04T14:25:07Z</time>
      </trkpt>
      <trkpt lat="46.5853" lon="5.37676">
        <ele>206.4</ele>
        <time>2021-11-04T14:25:08Z</time>
      </trkpt>
      <trkpt lat="46.5853" lon="5.37667">
        <ele>206.4</ele>
        <time>2021-11-04T14:25:09Z</time>
      </trkpt>
      <trkpt lat="46.58531" lon="5.37649">
        <ele>206.6</ele>
        <time>2021-11-04T14:25:11Z</time>
      </trkpt>
      <trkpt lat="46.58534" lon="5.37622">
        <ele>206.6</ele>
        <time>2021-11-04T14:25:14Z</time>
      </trkpt>
      <trkpt lat="46.58535" lon="5.37604">
        <ele>206.6</ele>
        <time>2021-11-04T14:25:16Z</time>
      </trkpt>
      <trkpt lat="46.58534" lon="5.37594">
        <ele>206.8</ele>
        <time>2021-11-04T14:25:17Z</time>
      </trkpt>
      <trkpt lat="46.58533" lon="5.37586">
        <ele>206.8</ele>
        <time>2021-11-04T14:25:18Z</time>
      </trkpt>
      <trkpt lat="46.58526" lon="5.37563">
        <ele>207</ele>
        <time>2021-11-04T14:25:21Z</time>
      </trkpt>
      <trkpt lat="46.58518" lon="5.37548">
        <ele>207.4</ele>
        <time>2021-11-04T14:25:23Z</time>
      </trkpt>
      <trkpt lat="46.58507" lon="5.3753">
        <ele>208</ele>
        <time>2021-11-04T14:25:26Z</time>
      </trkpt>
      <trkpt lat="46.58498" lon="5.37518">
        <ele>208.4</ele>
        <time>2021-11-04T14:25:28Z</time>
      </trkpt>
      <trkpt lat="46.5846" lon="5.37476">
        <ele>208.6</ele>
        <time>2021-11-04T14:25:35Z</time>
      </trkpt>
      <trkpt lat="46.58424" lon="5.37436">
        <ele>207.8</ele>
        <time>2021-11-04T14:25:41Z</time>
      </trkpt>
      <trkpt lat="46.58411" lon="5.37421">
        <ele>207.4</ele>
        <time>2021-11-04T14:25:43Z</time>
      </trkpt>
      <trkpt lat="46.5839" lon="5.37399">
        <ele>205.8</ele>
        <time>2021-11-04T14:25:46Z</time>
      </trkpt>
      <trkpt lat="46.58377" lon="5.37385">
        <ele>204.8</ele>
        <time>2021-11-04T14:25:48Z</time>
      </trkpt>
      <trkpt lat="46.5837" lon="5.37377">
        <ele>204.2</ele>
        <time>2021-11-04T14:25:49Z</time>
      </trkpt>
      <trkpt lat="46.58346" lon="5.37351">
        <ele>202.4</ele>
        <time>2021-11-04T14:25:52Z</time>
      </trkpt>
      <trkpt lat="46.58338" lon="5.37343">
        <ele>202</ele>
        <time>2021-11-04T14:25:53Z</time>
      </trkpt>
      <trkpt lat="46.58331" lon="5.37334">
        <ele>201.2</ele>
        <time>2021-11-04T14:25:54Z</time>
      </trkpt>
      <trkpt lat="46.58303" lon="5.37303">
        <ele>199.6</ele>
        <time>2021-11-04T14:25:58Z</time>
      </trkpt>
      <trkpt lat="46.5829" lon="5.37288">
        <ele>198.8</ele>
        <time>2021-11-04T14:26:00Z</time>
      </trkpt>
      <trkpt lat="46.58278" lon="5.37272">
        <ele>198.4</ele>
        <time>2021-11-04T14:26:02Z</time>
      </trkpt>
      <trkpt lat="46.5827" lon="5.37254">
        <ele>198.2</ele>
        <time>2021-11-04T14:26:04Z</time>
      </trkpt>
      <trkpt lat="46.58266" lon="5.37234">
        <ele>198</ele>
        <time>2021-11-04T14:26:06Z</time>
      </trkpt>
      <trkpt lat="46.58266" lon="5.37223">
        <ele>198</ele>
        <time>2021-11-04T14:26:07Z</time>
      </trkpt>
      <trkpt lat="46.58267" lon="5.37213">
        <ele>198</ele>
        <time>2021-11-04T14:26:08Z</time>
      </trkpt>
      <trkpt lat="46.58271" lon="5.37175">
        <ele>198</ele>
        <time>2021-11-04T14:26:12Z</time>
      </trkpt>
      <trkpt lat="46.58278" lon="5.37113">
        <ele>198.6</ele>
        <time>2021-11-04T14:26:18Z</time>
      </trkpt>
      <trkpt lat="46.58286" lon="5.37047">
        <ele>199.4</ele>
        <time>2021-11-04T14:26:25Z</time>
      </trkpt>
      <trkpt lat="46.58289" lon="5.37001">
        <ele>200.2</ele>
        <time>2021-11-04T14:26:30Z</time>
      </trkpt>
      <trkpt lat="46.58288" lon="5.36993">
        <ele>200.2</ele>
        <time>2021-11-04T14:26:31Z</time>
      </trkpt>
      <trkpt lat="46.58286" lon="5.36984">
        <ele>200.2</ele>
        <time>2021-11-04T14:26:32Z</time>
      </trkpt>
      <trkpt lat="46.58278" lon="5.36968">
        <ele>200.4</ele>
        <time>2021-11-04T14:26:34Z</time>
      </trkpt>
      <trkpt lat="46.58254" lon="5.36918">
        <ele>200.4</ele>
        <time>2021-11-04T14:26:40Z</time>
      </trkpt>
      <trkpt lat="46.58224" lon="5.36844">
        <ele>199.6</ele>
        <time>2021-11-04T14:26:48Z</time>
      </trkpt>
      <trkpt lat="46.58194" lon="5.3677">
        <ele>198.8</ele>
        <time>2021-11-04T14:26:56Z</time>
      </trkpt>
      <trkpt lat="46.5819" lon="5.3676">
        <ele>198.8</ele>
        <time>2021-11-04T14:26:57Z</time>
      </trkpt>
      <trkpt lat="46.58179" lon="5.36733">
        <ele>198.4</ele>
        <time>2021-11-04T14:27:00Z</time>
      </trkpt>
      <trkpt lat="46.58156" lon="5.3668">
        <ele>197.8</ele>
        <time>2021-11-04T14:27:06Z</time>
      </trkpt>
      <trkpt lat="46.58139" lon="5.36633">
        <ele>198</ele>
        <time>2021-11-04T14:27:12Z</time>
      </trkpt>
      <trkpt lat="46.5813" lon="5.36604">
        <ele>198.2</ele>
        <time>2021-11-04T14:27:15Z</time>
      </trkpt>
      <trkpt lat="46.58128" lon="5.36575">
        <ele>198.2</ele>
        <time>2021-11-04T14:27:18Z</time>
      </trkpt>
      <trkpt lat="46.58127" lon="5.36536">
        <ele>198.4</ele>
        <time>2021-11-04T14:27:22Z</time>
      </trkpt>
      <trkpt lat="46.58124" lon="5.36516">
        <ele>198.4</ele>
        <time>2021-11-04T14:27:24Z</time>
      </trkpt>
      <trkpt lat="46.58108" lon="5.36469">
        <ele>198</ele>
        <time>2021-11-04T14:27:29Z</time>
      </trkpt>
      <trkpt lat="46.58087" lon="5.36426">
        <ele>197.2</ele>
        <time>2021-11-04T14:27:34Z</time>
      </trkpt>
      <trkpt lat="46.58083" lon="5.36417">
        <ele>197.2</ele>
        <time>2021-11-04T14:27:35Z</time>
      </trkpt>
      <trkpt lat="46.58052" lon="5.36371">
        <ele>196.8</ele>
        <time>2021-11-04T14:27:41Z</time>
      </trkpt>
      <trkpt lat="46.58037" lon="5.36347">
        <ele>196.6</ele>
        <time>2021-11-04T14:27:44Z</time>
      </trkpt>
      <trkpt lat="46.5803" lon="5.36328">
        <ele>196.4</ele>
        <time>2021-11-04T14:27:46Z</time>
      </trkpt>
      <trkpt lat="46.58023" lon="5.36298">
        <ele>196.2</ele>
        <time>2021-11-04T14:27:49Z</time>
      </trkpt>
      <trkpt lat="46.58022" lon="5.36288">
        <ele>196.2</ele>
        <time>2021-11-04T14:27:50Z</time>
      </trkpt>
      <trkpt lat="46.58022" lon="5.36277">
        <ele>196</ele>
        <time>2021-11-04T14:27:51Z</time>
      </trkpt>
      <trkpt lat="46.58021" lon="5.36215">
        <ele>195.8</ele>
        <time>2021-11-04T14:27:57Z</time>
      </trkpt>
      <trkpt lat="46.58022" lon="5.36194">
        <ele>195.8</ele>
        <time>2021-11-04T14:27:59Z</time>
      </trkpt>
      <trkpt lat="46.58021" lon="5.36163">
        <ele>195.8</ele>
        <time>2021-11-04T14:28:02Z</time>
      </trkpt>
      <trkpt lat="46.5802" lon="5.36153">
        <ele>195.8</ele>
        <time>2021-11-04T14:28:03Z</time>
      </trkpt>
      <trkpt lat="46.58019" lon="5.36143">
        <ele>195.6</ele>
        <time>2021-11-04T14:28:04Z</time>
      </trkpt>
      <trkpt lat="46.5801" lon="5.36113">
        <ele>195.6</ele>
        <time>2021-11-04T14:28:07Z</time>
      </trkpt>
      <trkpt lat="46.5799" lon="5.36066">
        <ele>195</ele>
        <time>2021-11-04T14:28:12Z</time>
      </trkpt>
      <trkpt lat="46.57985" lon="5.36056">
        <ele>194.8</ele>
        <time>2021-11-04T14:28:13Z</time>
      </trkpt>
      <trkpt lat="46.5796" lon="5.3602">
        <ele>194.2</ele>
        <time>2021-11-04T14:28:18Z</time>
      </trkpt>
      <trkpt lat="46.57954" lon="5.36014">
        <ele>194</ele>
        <time>2021-11-04T14:28:19Z</time>
      </trkpt>
      <trkpt lat="46.57924" lon="5.35987">
        <ele>193.4</ele>
        <time>2021-11-04T14:28:24Z</time>
      </trkpt>
      <trkpt lat="46.57915" lon="5.35972">
        <ele>193.4</ele>
        <time>2021-11-04T14:28:26Z</time>
      </trkpt>
      <trkpt lat="46.57913" lon="5.35963">
        <ele>193.4</ele>
        <time>2021-11-04T14:28:27Z</time>
      </trkpt>
      <trkpt lat="46.57912" lon="5.35954">
        <ele>193.4</ele>
        <time>2021-11-04T14:28:28Z</time>
      </trkpt>
      <trkpt lat="46.57913" lon="5.35936">
        <ele>193.4</ele>
        <time>2021-11-04T14:28:30Z</time>
      </trkpt>
      <trkpt lat="46.57926" lon="5.35893">
        <ele>195</ele>
        <time>2021-11-04T14:28:36Z</time>
      </trkpt>
      <trkpt lat="46.57937" lon="5.35852">
        <ele>196.2</ele>
        <time>2021-11-04T14:28:41Z</time>
      </trkpt>
      <trkpt lat="46.57939" lon="5.35843">
        <ele>196.2</ele>
        <time>2021-11-04T14:28:42Z</time>
      </trkpt>
      <trkpt lat="46.5794" lon="5.35834">
        <ele>196.4</ele>
        <time>2021-11-04T14:28:43Z</time>
      </trkpt>
      <trkpt lat="46.5794" lon="5.35825">
        <ele>196.6</ele>
        <time>2021-11-04T14:28:44Z</time>
      </trkpt>
      <trkpt lat="46.57939" lon="5.35807">
        <ele>196.8</ele>
        <time>2021-11-04T14:28:46Z</time>
      </trkpt>
      <trkpt lat="46.57937" lon="5.35799">
        <ele>196.6</ele>
        <time>2021-11-04T14:28:47Z</time>
      </trkpt>
      <trkpt lat="46.57926" lon="5.3577">
        <ele>197</ele>
        <time>2021-11-04T14:28:51Z</time>
      </trkpt>
      <trkpt lat="46.57923" lon="5.35763">
        <ele>197.2</ele>
        <time>2021-11-04T14:28:52Z</time>
      </trkpt>
      <trkpt lat="46.57914" lon="5.35744">
        <ele>197.8</ele>
        <time>2021-11-04T14:28:55Z</time>
      </trkpt>
      <trkpt lat="46.57907" lon="5.3573">
        <ele>198.2</ele>
        <time>2021-11-04T14:28:57Z</time>
      </trkpt>
      <trkpt lat="46.57905" lon="5.35725">
        <ele>198.4</ele>
        <time>2021-11-04T14:28:58Z</time>
      </trkpt>
      <trkpt lat="46.57894" lon="5.35702">
        <ele>198.8</ele>
        <time>2021-11-04T14:29:01Z</time>
      </trkpt>
      <trkpt lat="46.57884" lon="5.3567">
        <ele>198.8</ele>
        <time>2021-11-04T14:29:05Z</time>
      </trkpt>
      <trkpt lat="46.57876" lon="5.3562">
        <ele>198.4</ele>
        <time>2021-11-04T14:29:10Z</time>
      </trkpt>
      <trkpt lat="46.57869" lon="5.35588">
        <ele>197.8</ele>
        <time>2021-11-04T14:29:13Z</time>
      </trkpt>
      <trkpt lat="46.57861" lon="5.35568">
        <ele>197.4</ele>
        <time>2021-11-04T14:29:15Z</time>
      </trkpt>
      <trkpt lat="46.57855" lon="5.35553">
        <ele>197.2</ele>
        <time>2021-11-04T14:29:17Z</time>
      </trkpt>
      <trkpt lat="46.57842" lon="5.35523">
        <ele>197.2</ele>
        <time>2021-11-04T14:29:21Z</time>
      </trkpt>
      <trkpt lat="46.57832" lon="5.35496">
        <ele>197.8</ele>
        <time>2021-11-04T14:29:25Z</time>
      </trkpt>
      <trkpt lat="46.5783" lon="5.35482">
        <ele>198.4</ele>
        <time>2021-11-04T14:29:27Z</time>
      </trkpt>
      <trkpt lat="46.57825" lon="5.35454">
        <ele>199.6</ele>
        <time>2021-11-04T14:29:31Z</time>
      </trkpt>
      <trkpt lat="46.57821" lon="5.3542">
        <ele>200.4</ele>
        <time>2021-11-04T14:29:35Z</time>
      </trkpt>
      <trkpt lat="46.57817" lon="5.35394">
        <ele>200.4</ele>
        <time>2021-11-04T14:29:38Z</time>
      </trkpt>
      <trkpt lat="46.57811" lon="5.35376">
        <ele>200.4</ele>
        <time>2021-11-04T14:29:40Z</time>
      </trkpt>
      <trkpt lat="46.57785" lon="5.3532">
        <ele>199.2</ele>
        <time>2021-11-04T14:29:46Z</time>
      </trkpt>
      <trkpt lat="46.57776" lon="5.353">
        <ele>198.6</ele>
        <time>2021-11-04T14:29:48Z</time>
      </trkpt>
      <trkpt lat="46.57773" lon="5.3529">
        <ele>198.4</ele>
        <time>2021-11-04T14:29:49Z</time>
      </trkpt>
      <trkpt lat="46.5777" lon="5.35278">
        <ele>198.2</ele>
        <time>2021-11-04T14:29:50Z</time>
      </trkpt>
      <trkpt lat="46.57768" lon="5.35266">
        <ele>197.8</ele>
        <time>2021-11-04T14:29:51Z</time>
      </trkpt>
      <trkpt lat="46.57767" lon="5.35256">
        <ele>197.2</ele>
        <time>2021-11-04T14:29:52Z</time>
      </trkpt>
      <trkpt lat="46.57765" lon="5.35228">
        <ele>196</ele>
        <time>2021-11-04T14:29:54Z</time>
      </trkpt>
      <trkpt lat="46.57762" lon="5.35192">
        <ele>195.4</ele>
        <time>2021-11-04T14:29:57Z</time>
      </trkpt>
      <trkpt lat="46.57761" lon="5.35179">
        <ele>195</ele>
        <time>2021-11-04T14:29:58Z</time>
      </trkpt>
      <trkpt lat="46.57758" lon="5.35163">
        <ele>194.4</ele>
        <time>2021-11-04T14:29:59Z</time>
      </trkpt>
      <trkpt lat="46.57753" lon="5.35142">
        <ele>193.8</ele>
        <time>2021-11-04T14:30:01Z</time>
      </trkpt>
      <trkpt lat="46.57738" lon="5.35089">
        <ele>193</ele>
        <time>2021-11-04T14:30:06Z</time>
      </trkpt>
      <trkpt lat="46.57729" lon="5.35046">
        <ele>193.2</ele>
        <time>2021-11-04T14:30:11Z</time>
      </trkpt>
      <trkpt lat="46.5773" lon="5.35013">
        <ele>194.8</ele>
        <time>2021-11-04T14:30:15Z</time>
      </trkpt>
      <trkpt lat="46.57731" lon="5.35006">
        <ele>195.2</ele>
        <time>2021-11-04T14:30:16Z</time>
      </trkpt>
      <trkpt lat="46.57735" lon="5.3499">
        <ele>196</ele>
        <time>2021-11-04T14:30:18Z</time>
      </trkpt>
      <trkpt lat="46.5774" lon="5.34967">
        <ele>197.4</ele>
        <time>2021-11-04T14:30:21Z</time>
      </trkpt>
      <trkpt lat="46.57745" lon="5.34942">
        <ele>198</ele>
        <time>2021-11-04T14:30:24Z</time>
      </trkpt>
      <trkpt lat="46.57748" lon="5.34924">
        <ele>198.4</ele>
        <time>2021-11-04T14:30:26Z</time>
      </trkpt>
      <trkpt lat="46.57756" lon="5.3488">
        <ele>199.2</ele>
        <time>2021-11-04T14:30:31Z</time>
      </trkpt>
      <trkpt lat="46.57764" lon="5.34818">
        <ele>198.8</ele>
        <time>2021-11-04T14:30:37Z</time>
      </trkpt>
      <trkpt lat="46.57771" lon="5.34745">
        <ele>198</ele>
        <time>2021-11-04T14:30:44Z</time>
      </trkpt>
      <trkpt lat="46.57778" lon="5.34665">
        <ele>197.8</ele>
        <time>2021-11-04T14:30:52Z</time>
      </trkpt>
      <trkpt lat="46.57786" lon="5.34595">
        <ele>197.6</ele>
        <time>2021-11-04T14:30:59Z</time>
      </trkpt>
      <trkpt lat="46.57792" lon="5.3454">
        <ele>198</ele>
        <time>2021-11-04T14:31:05Z</time>
      </trkpt>
      <trkpt lat="46.57794" lon="5.34518">
        <ele>198.4</ele>
        <time>2021-11-04T14:31:08Z</time>
      </trkpt>
      <trkpt lat="46.57796" lon="5.34506">
        <ele>198.8</ele>
        <time>2021-11-04T14:31:10Z</time>
      </trkpt>
      <trkpt lat="46.57798" lon="5.34496">
        <ele>199.6</ele>
        <time>2021-11-04T14:31:12Z</time>
      </trkpt>
      <trkpt lat="46.578" lon="5.34488">
        <ele>200</ele>
        <time>2021-11-04T14:31:14Z</time>
      </trkpt>
      <trkpt lat="46.57801" lon="5.34479">
        <ele>200.6</ele>
        <time>2021-11-04T14:31:16Z</time>
      </trkpt>
      <trkpt lat="46.57806" lon="5.34465">
        <ele>201.8</ele>
        <time>2021-11-04T14:31:19Z</time>
      </trkpt>
      <trkpt lat="46.57815" lon="5.34448">
        <ele>203.2</ele>
        <time>2021-11-04T14:31:23Z</time>
      </trkpt>
      <trkpt lat="46.57817" lon="5.34445">
        <ele>203.4</ele>
        <time>2021-11-04T14:31:24Z</time>
      </trkpt>
      <trkpt lat="46.57824" lon="5.34439">
        <ele>204.2</ele>
        <time>2021-11-04T14:31:26Z</time>
      </trkpt>
      <trkpt lat="46.57828" lon="5.34436">
        <ele>204.4</ele>
        <time>2021-11-04T14:31:27Z</time>
      </trkpt>
      <trkpt lat="46.57832" lon="5.34432">
        <ele>204.8</ele>
        <time>2021-11-04T14:31:28Z</time>
      </trkpt>
      <trkpt lat="46.5784" lon="5.34425">
        <ele>205.4</ele>
        <time>2021-11-04T14:31:30Z</time>
      </trkpt>
      <trkpt lat="46.57859" lon="5.34408">
        <ele>206.6</ele>
        <time>2021-11-04T14:31:35Z</time>
      </trkpt>
      <trkpt lat="46.57887" lon="5.34384">
        <ele>207.6</ele>
        <time>2021-11-04T14:31:42Z</time>
      </trkpt>
      <trkpt lat="46.57897" lon="5.34379">
        <ele>207.8</ele>
        <time>2021-11-04T14:31:44Z</time>
      </trkpt>
      <trkpt lat="46.57918" lon="5.34372">
        <ele>208</ele>
        <time>2021-11-04T14:31:48Z</time>
      </trkpt>
      <trkpt lat="46.5793" lon="5.3437">
        <ele>208</ele>
        <time>2021-11-04T14:31:50Z</time>
      </trkpt>
      <trkpt lat="46.57968" lon="5.34374">
        <ele>207.8</ele>
        <time>2021-11-04T14:31:56Z</time>
      </trkpt>
      <trkpt lat="46.58021" lon="5.34379">
        <ele>207</ele>
        <time>2021-11-04T14:32:04Z</time>
      </trkpt>
      <trkpt lat="46.58035" lon="5.34371">
        <ele>207</ele>
        <time>2021-11-04T14:32:06Z</time>
      </trkpt>
      <trkpt lat="46.5804" lon="5.34365">
        <ele>207</ele>
        <time>2021-11-04T14:32:07Z</time>
      </trkpt>
      <trkpt lat="46.58068" lon="5.34324">
        <ele>207</ele>
        <time>2021-11-04T14:32:13Z</time>
      </trkpt>
      <trkpt lat="46.58109" lon="5.34267">
        <ele>206.8</ele>
        <time>2021-11-04T14:32:21Z</time>
      </trkpt>
      <trkpt lat="46.58143" lon="5.34218">
        <ele>205.6</ele>
        <time>2021-11-04T14:32:27Z</time>
      </trkpt>
      <trkpt lat="46.58163" lon="5.3419">
        <ele>204</ele>
        <time>2021-11-04T14:32:30Z</time>
      </trkpt>
      <trkpt lat="46.5817" lon="5.3418">
        <ele>203.6</ele>
        <time>2021-11-04T14:32:31Z</time>
      </trkpt>
      <trkpt lat="46.58178" lon="5.34171">
        <ele>203</ele>
        <time>2021-11-04T14:32:32Z</time>
      </trkpt>
      <trkpt lat="46.58194" lon="5.34148">
        <ele>202</ele>
        <time>2021-11-04T14:32:34Z</time>
      </trkpt>
      <trkpt lat="46.58201" lon="5.34138">
        <ele>201.8</ele>
        <time>2021-11-04T14:32:35Z</time>
      </trkpt>
      <trkpt lat="46.58224" lon="5.34105">
        <ele>200</ele>
        <time>2021-11-04T14:32:38Z</time>
      </trkpt>
      <trkpt lat="46.58239" lon="5.34085">
        <ele>199</ele>
        <time>2021-11-04T14:32:40Z</time>
      </trkpt>
      <trkpt lat="46.58247" lon="5.34074">
        <ele>198</ele>
        <time>2021-11-04T14:32:41Z</time>
      </trkpt>
      <trkpt lat="46.58263" lon="5.34052">
        <ele>196</ele>
        <time>2021-11-04T14:32:43Z</time>
      </trkpt>
      <trkpt lat="46.58279" lon="5.3403">
        <ele>195</ele>
        <time>2021-11-04T14:32:45Z</time>
      </trkpt>
      <trkpt lat="46.58304" lon="5.33996">
        <ele>193.8</ele>
        <time>2021-11-04T14:32:48Z</time>
      </trkpt>
      <trkpt lat="46.58317" lon="5.33977">
        <ele>193.4</ele>
        <time>2021-11-04T14:32:50Z</time>
      </trkpt>
      <trkpt lat="46.58333" lon="5.33956">
        <ele>192.8</ele>
        <time>2021-11-04T14:32:52Z</time>
      </trkpt>
      <trkpt lat="46.5836" lon="5.33917">
        <ele>191.6</ele>
        <time>2021-11-04T14:32:56Z</time>
      </trkpt>
      <trkpt lat="46.58376" lon="5.33895">
        <ele>191.2</ele>
        <time>2021-11-04T14:32:58Z</time>
      </trkpt>
      <trkpt lat="46.58407" lon="5.33853">
        <ele>190.4</ele>
        <time>2021-11-04T14:33:02Z</time>
      </trkpt>
      <trkpt lat="46.58421" lon="5.33834">
        <ele>189</ele>
        <time>2021-11-04T14:33:04Z</time>
      </trkpt>
      <trkpt lat="46.58444" lon="5.33801">
        <ele>188</ele>
        <time>2021-11-04T14:33:07Z</time>
      </trkpt>
      <trkpt lat="46.58451" lon="5.33791">
        <ele>187.8</ele>
        <time>2021-11-04T14:33:08Z</time>
      </trkpt>
      <trkpt lat="46.58485" lon="5.33745">
        <ele>186.6</ele>
        <time>2021-11-04T14:33:13Z</time>
      </trkpt>
      <trkpt lat="46.58531" lon="5.3369">
        <ele>186.6</ele>
        <time>2021-11-04T14:33:20Z</time>
      </trkpt>
      <trkpt lat="46.58569" lon="5.33669">
        <ele>186.8</ele>
        <time>2021-11-04T14:33:25Z</time>
      </trkpt>
      <trkpt lat="46.58619" lon="5.33654">
        <ele>187.2</ele>
        <time>2021-11-04T14:33:32Z</time>
      </trkpt>
      <trkpt lat="46.58648" lon="5.33645">
        <ele>187.6</ele>
        <time>2021-11-04T14:33:36Z</time>
      </trkpt>
      <trkpt lat="46.58667" lon="5.33635">
        <ele>188</ele>
        <time>2021-11-04T14:33:39Z</time>
      </trkpt>
      <trkpt lat="46.58673" lon="5.3363">
        <ele>188</ele>
        <time>2021-11-04T14:33:40Z</time>
      </trkpt>
      <trkpt lat="46.58682" lon="5.33619">
        <ele>188.2</ele>
        <time>2021-11-04T14:33:42Z</time>
      </trkpt>
      <trkpt lat="46.58688" lon="5.33609">
        <ele>188.6</ele>
        <time>2021-11-04T14:33:43Z</time>
      </trkpt>
      <trkpt lat="46.58691" lon="5.336">
        <ele>188.6</ele>
        <time>2021-11-04T14:33:44Z</time>
      </trkpt>
      <trkpt lat="46.58694" lon="5.33591">
        <ele>188.8</ele>
        <time>2021-11-04T14:33:45Z</time>
      </trkpt>
      <trkpt lat="46.58698" lon="5.33572">
        <ele>188.8</ele>
        <time>2021-11-04T14:33:47Z</time>
      </trkpt>
      <trkpt lat="46.58713" lon="5.33493">
        <ele>188.4</ele>
        <time>2021-11-04T14:33:55Z</time>
      </trkpt>
      <trkpt lat="46.58716" lon="5.33473">
        <ele>188.4</ele>
        <time>2021-11-04T14:33:57Z</time>
      </trkpt>
      <trkpt lat="46.5873" lon="5.33398">
        <ele>188.4</ele>
        <time>2021-11-04T14:34:05Z</time>
      </trkpt>
      <trkpt lat="46.58733" lon="5.33389">
        <ele>188.4</ele>
        <time>2021-11-04T14:34:06Z</time>
      </trkpt>
      <trkpt lat="46.58744" lon="5.33318">
        <ele>188.2</ele>
        <time>2021-11-04T14:34:13Z</time>
      </trkpt>
      <trkpt lat="46.58744" lon="5.33301">
        <ele>188.2</ele>
        <time>2021-11-04T14:34:15Z</time>
      </trkpt>
      <trkpt lat="46.5874" lon="5.33282">
        <ele>188.4</ele>
        <time>2021-11-04T14:34:17Z</time>
      </trkpt>
      <trkpt lat="46.58726" lon="5.33253">
        <ele>188.6</ele>
        <time>2021-11-04T14:34:21Z</time>
      </trkpt>
      <trkpt lat="46.58688" lon="5.33195">
        <ele>189.6</ele>
        <time>2021-11-04T14:34:30Z</time>
      </trkpt>
      <trkpt lat="46.58683" lon="5.33188">
        <ele>189.8</ele>
        <time>2021-11-04T14:34:31Z</time>
      </trkpt>
      <trkpt lat="46.58665" lon="5.33162">
        <ele>189.8</ele>
        <time>2021-11-04T14:34:35Z</time>
      </trkpt>
      <trkpt lat="46.58633" lon="5.33113">
        <ele>189.8</ele>
        <time>2021-11-04T14:34:42Z</time>
      </trkpt>
      <trkpt lat="46.58615" lon="5.33067">
        <ele>189.4</ele>
        <time>2021-11-04T14:34:47Z</time>
      </trkpt>
      <trkpt lat="46.58606" lon="5.33021">
        <ele>188.6</ele>
        <time>2021-11-04T14:34:51Z</time>
      </trkpt>
      <trkpt lat="46.58602" lon="5.32998">
        <ele>188</ele>
        <time>2021-11-04T14:34:53Z</time>
      </trkpt>
      <trkpt lat="46.58599" lon="5.32974">
        <ele>187.6</ele>
        <time>2021-11-04T14:34:55Z</time>
      </trkpt>
      <trkpt lat="46.58589" lon="5.3291">
        <ele>186.8</ele>
        <time>2021-11-04T14:35:01Z</time>
      </trkpt>
      <trkpt lat="46.58578" lon="5.32834">
        <ele>186.6</ele>
        <time>2021-11-04T14:35:08Z</time>
      </trkpt>
      <trkpt lat="46.58567" lon="5.32757">
        <ele>186.6</ele>
        <time>2021-11-04T14:35:16Z</time>
      </trkpt>
      <trkpt lat="46.5856" lon="5.32702">
        <ele>187</ele>
        <time>2021-11-04T14:35:22Z</time>
      </trkpt>
      <trkpt lat="46.58557" lon="5.32677">
        <ele>187.2</ele>
        <time>2021-11-04T14:35:25Z</time>
      </trkpt>
      <trkpt lat="46.58558" lon="5.32654">
        <ele>187.4</ele>
        <time>2021-11-04T14:35:28Z</time>
      </trkpt>
      <trkpt lat="46.58558" lon="5.32644">
        <ele>187.6</ele>
        <time>2021-11-04T14:35:29Z</time>
      </trkpt>
      <trkpt lat="46.58565" lon="5.32613">
        <ele>188.2</ele>
        <time>2021-11-04T14:35:33Z</time>
      </trkpt>
      <trkpt lat="46.58566" lon="5.32608">
        <ele>188.6</ele>
        <time>2021-11-04T14:35:34Z</time>
      </trkpt>
      <trkpt lat="46.58575" lon="5.32564">
        <ele>189.6</ele>
        <time>2021-11-04T14:35:40Z</time>
      </trkpt>
      <trkpt lat="46.58576" lon="5.32557">
        <ele>190</ele>
        <time>2021-11-04T14:35:41Z</time>
      </trkpt>
      <trkpt lat="46.58577" lon="5.32545">
        <ele>190.6</ele>
        <time>2021-11-04T14:35:43Z</time>
      </trkpt>
      <trkpt lat="46.58576" lon="5.32531">
        <ele>191</ele>
        <time>2021-11-04T14:35:45Z</time>
      </trkpt>
      <trkpt lat="46.58576" lon="5.32525">
        <ele>191.4</ele>
        <time>2021-11-04T14:35:46Z</time>
      </trkpt>
      <trkpt lat="46.5857" lon="5.32502">
        <ele>192</ele>
        <time>2021-11-04T14:35:50Z</time>
      </trkpt>
      <trkpt lat="46.58566" lon="5.32488">
        <ele>192.8</ele>
        <time>2021-11-04T14:35:53Z</time>
      </trkpt>
      <trkpt lat="46.58562" lon="5.32477">
        <ele>193.4</ele>
        <time>2021-11-04T14:35:55Z</time>
      </trkpt>
      <trkpt lat="46.58557" lon="5.32459">
        <ele>194.6</ele>
        <time>2021-11-04T14:35:59Z</time>
      </trkpt>
      <trkpt lat="46.58554" lon="5.3244">
        <ele>195.6</ele>
        <time>2021-11-04T14:36:03Z</time>
      </trkpt>
      <trkpt lat="46.58553" lon="5.32428">
        <ele>196.8</ele>
        <time>2021-11-04T14:36:06Z</time>
      </trkpt>
      <trkpt lat="46.58554" lon="5.32412">
        <ele>198.2</ele>
        <time>2021-11-04T14:36:09Z</time>
      </trkpt>
      <trkpt lat="46.58553" lon="5.32385">
        <ele>199.2</ele>
        <time>2021-11-04T14:36:14Z</time>
      </trkpt>
      <trkpt lat="46.58552" lon="5.32375">
        <ele>199.6</ele>
        <time>2021-11-04T14:36:16Z</time>
      </trkpt>
      <trkpt lat="46.58552" lon="5.32345">
        <ele>200.4</ele>
        <time>2021-11-04T14:36:21Z</time>
      </trkpt>
      <trkpt lat="46.58553" lon="5.3232">
        <ele>201.2</ele>
        <time>2021-11-04T14:36:25Z</time>
      </trkpt>
      <trkpt lat="46.58556" lon="5.32304">
        <ele>201.4</ele>
        <time>2021-11-04T14:36:27Z</time>
      </trkpt>
      <trkpt lat="46.58561" lon="5.32289">
        <ele>201.6</ele>
        <time>2021-11-04T14:36:29Z</time>
      </trkpt>
      <trkpt lat="46.58571" lon="5.32277">
        <ele>201.4</ele>
        <time>2021-11-04T14:36:31Z</time>
      </trkpt>
      <trkpt lat="46.58577" lon="5.32272">
        <ele>201.2</ele>
        <time>2021-11-04T14:36:32Z</time>
      </trkpt>
      <trkpt lat="46.58584" lon="5.32268">
        <ele>201.2</ele>
        <time>2021-11-04T14:36:33Z</time>
      </trkpt>
      <trkpt lat="46.58606" lon="5.32261">
        <ele>200</ele>
        <time>2021-11-04T14:36:36Z</time>
      </trkpt>
      <trkpt lat="46.58629" lon="5.32252">
        <ele>198.8</ele>
        <time>2021-11-04T14:36:39Z</time>
      </trkpt>
      <trkpt lat="46.58639" lon="5.32247">
        <ele>198.6</ele>
        <time>2021-11-04T14:36:40Z</time>
      </trkpt>
      <trkpt lat="46.58646" lon="5.3224">
        <ele>198</ele>
        <time>2021-11-04T14:36:41Z</time>
      </trkpt>
      <trkpt lat="46.58653" lon="5.32232">
        <ele>197.8</ele>
        <time>2021-11-04T14:36:42Z</time>
      </trkpt>
      <trkpt lat="46.58665" lon="5.3221">
        <ele>196.8</ele>
        <time>2021-11-04T14:36:44Z</time>
      </trkpt>
      <trkpt lat="46.5868" lon="5.32174">
        <ele>195.6</ele>
        <time>2021-11-04T14:36:47Z</time>
      </trkpt>
      <trkpt lat="46.58689" lon="5.32151">
        <ele>194.6</ele>
        <time>2021-11-04T14:36:49Z</time>
      </trkpt>
      <trkpt lat="46.58693" lon="5.32141">
        <ele>194.2</ele>
        <time>2021-11-04T14:36:50Z</time>
      </trkpt>
      <trkpt lat="46.587" lon="5.32123">
        <ele>192.8</ele>
        <time>2021-11-04T14:36:52Z</time>
      </trkpt>
      <trkpt lat="46.58702" lon="5.32114">
        <ele>192.4</ele>
        <time>2021-11-04T14:36:53Z</time>
      </trkpt>
      <trkpt lat="46.58702" lon="5.32107">
        <ele>191.6</ele>
        <time>2021-11-04T14:36:54Z</time>
      </trkpt>
      <trkpt lat="46.58701" lon="5.32101">
        <ele>191.2</ele>
        <time>2021-11-04T14:36:55Z</time>
      </trkpt>
      <trkpt lat="46.58697" lon="5.32096">
        <ele>190.8</ele>
        <time>2021-11-04T14:36:56Z</time>
      </trkpt>
      <trkpt lat="46.58693" lon="5.32095">
        <ele>190</ele>
        <time>2021-11-04T14:36:57Z</time>
      </trkpt>
      <trkpt lat="46.58677" lon="5.32089">
        <ele>189</ele>
        <time>2021-11-04T14:37:00Z</time>
      </trkpt>
      <trkpt lat="46.58661" lon="5.32082">
        <ele>188.2</ele>
        <time>2021-11-04T14:37:03Z</time>
      </trkpt>
      <trkpt lat="46.58643" lon="5.32072">
        <ele>188.2</ele>
        <time>2021-11-04T14:37:06Z</time>
      </trkpt>
      <trkpt lat="46.58601" lon="5.32047">
        <ele>189</ele>
        <time>2021-11-04T14:37:14Z</time>
      </trkpt>
      <trkpt lat="46.58573" lon="5.32026">
        <ele>190.2</ele>
        <time>2021-11-04T14:37:20Z</time>
      </trkpt>
      <trkpt lat="46.58567" lon="5.32023">
        <ele>190.4</ele>
        <time>2021-11-04T14:37:21Z</time>
      </trkpt>
      <trkpt lat="46.58562" lon="5.32021">
        <ele>190.6</ele>
        <time>2021-11-04T14:37:22Z</time>
      </trkpt>
      <trkpt lat="46.58556" lon="5.3202">
        <ele>190.6</ele>
        <time>2021-11-04T14:37:23Z</time>
      </trkpt>
      <trkpt lat="46.58532" lon="5.32021">
        <ele>190.8</ele>
        <time>2021-11-04T14:37:27Z</time>
      </trkpt>
      <trkpt lat="46.58503" lon="5.32022">
        <ele>191.2</ele>
        <time>2021-11-04T14:37:32Z</time>
      </trkpt>
      <trkpt lat="46.58498" lon="5.32021">
        <ele>191.4</ele>
        <time>2021-11-04T14:37:33Z</time>
      </trkpt>
      <trkpt lat="46.58492" lon="5.3202">
        <ele>191.4</ele>
        <time>2021-11-04T14:37:34Z</time>
      </trkpt>
      <trkpt lat="46.58461" lon="5.32011">
        <ele>192.4</ele>
        <time>2021-11-04T14:37:40Z</time>
      </trkpt>
      <trkpt lat="46.58451" lon="5.32009">
        <ele>192.6</ele>
        <time>2021-11-04T14:37:42Z</time>
      </trkpt>
      <trkpt lat="46.58431" lon="5.32007">
        <ele>193.4</ele>
        <time>2021-11-04T14:37:46Z</time>
      </trkpt>
      <trkpt lat="46.58416" lon="5.32006">
        <ele>194.2</ele>
        <time>2021-11-04T14:37:49Z</time>
      </trkpt>
      <trkpt lat="46.58406" lon="5.32005">
        <ele>194.6</ele>
        <time>2021-11-04T14:37:51Z</time>
      </trkpt>
      <trkpt lat="46.58371" lon="5.31994">
        <ele>195.6</ele>
        <time>2021-11-04T14:37:58Z</time>
      </trkpt>
      <trkpt lat="46.58366" lon="5.31991">
        <ele>195.8</ele>
        <time>2021-11-04T14:37:59Z</time>
      </trkpt>
      <trkpt lat="46.58342" lon="5.31977">
        <ele>196.8</ele>
        <time>2021-11-04T14:38:04Z</time>
      </trkpt>
      <trkpt lat="46.58336" lon="5.31975">
        <ele>197</ele>
        <time>2021-11-04T14:38:05Z</time>
      </trkpt>
      <trkpt lat="46.58315" lon="5.31969">
        <ele>197.6</ele>
        <time>2021-11-04T14:38:09Z</time>
      </trkpt>
      <trkpt lat="46.58303" lon="5.31968">
        <ele>197.8</ele>
        <time>2021-11-04T14:38:11Z</time>
      </trkpt>
      <trkpt lat="46.58292" lon="5.31967">
        <ele>198</ele>
        <time>2021-11-04T14:38:13Z</time>
      </trkpt>
      <trkpt lat="46.58252" lon="5.31964">
        <ele>198.4</ele>
        <time>2021-11-04T14:38:20Z</time>
      </trkpt>
      <trkpt lat="46.5822" lon="5.31953">
        <ele>199.2</ele>
        <time>2021-11-04T14:38:26Z</time>
      </trkpt>
      <trkpt lat="46.58211" lon="5.31949">
        <ele>199.2</ele>
        <time>2021-11-04T14:38:28Z</time>
      </trkpt>
      <trkpt lat="46.58174" lon="5.31934">
        <ele>200.2</ele>
        <time>2021-11-04T14:38:35Z</time>
      </trkpt>
      <trkpt lat="46.58155" lon="5.31926">
        <ele>201.2</ele>
        <time>2021-11-04T14:38:39Z</time>
      </trkpt>
      <trkpt lat="46.5815" lon="5.31924">
        <ele>201.6</ele>
        <time>2021-11-04T14:38:40Z</time>
      </trkpt>
      <trkpt lat="46.58131" lon="5.31915">
        <ele>202.6</ele>
        <time>2021-11-04T14:38:44Z</time>
      </trkpt>
      <trkpt lat="46.58126" lon="5.31913">
        <ele>202.6</ele>
        <time>2021-11-04T14:38:45Z</time>
      </trkpt>
      <trkpt lat="46.58118" lon="5.31909">
        <ele>202.8</ele>
        <time>2021-11-04T14:38:47Z</time>
      </trkpt>
      <trkpt lat="46.5808" lon="5.31891">
        <ele>203.6</ele>
        <time>2021-11-04T14:38:54Z</time>
      </trkpt>
      <trkpt lat="46.58069" lon="5.31884">
        <ele>204</ele>
        <time>2021-11-04T14:38:56Z</time>
      </trkpt>
      <trkpt lat="46.58024" lon="5.31846">
        <ele>204.6</ele>
        <time>2021-11-04T14:39:05Z</time>
      </trkpt>
      <trkpt lat="46.57995" lon="5.31823">
        <ele>205.2</ele>
        <time>2021-11-04T14:39:11Z</time>
      </trkpt>
      <trkpt lat="46.57976" lon="5.3181">
        <ele>205.8</ele>
        <time>2021-11-04T14:39:15Z</time>
      </trkpt>
      <trkpt lat="46.57954" lon="5.31797">
        <ele>206.6</ele>
        <time>2021-11-04T14:39:19Z</time>
      </trkpt>
      <trkpt lat="46.57943" lon="5.31792">
        <ele>206.8</ele>
        <time>2021-11-04T14:39:21Z</time>
      </trkpt>
      <trkpt lat="46.57914" lon="5.31779">
        <ele>207.2</ele>
        <time>2021-11-04T14:39:26Z</time>
      </trkpt>
      <trkpt lat="46.57871" lon="5.31762">
        <ele>207.8</ele>
        <time>2021-11-04T14:39:34Z</time>
      </trkpt>
      <trkpt lat="46.5786" lon="5.31758">
        <ele>207.8</ele>
        <time>2021-11-04T14:39:36Z</time>
      </trkpt>
      <trkpt lat="46.57817" lon="5.3174">
        <ele>208.2</ele>
        <time>2021-11-04T14:39:44Z</time>
      </trkpt>
      <trkpt lat="46.57761" lon="5.31718">
        <ele>208.6</ele>
        <time>2021-11-04T14:39:54Z</time>
      </trkpt>
      <trkpt lat="46.57745" lon="5.31711">
        <ele>208.8</ele>
        <time>2021-11-04T14:39:57Z</time>
      </trkpt>
      <trkpt lat="46.57707" lon="5.31696">
        <ele>209.4</ele>
        <time>2021-11-04T14:40:04Z</time>
      </trkpt>
      <trkpt lat="46.57669" lon="5.3168">
        <ele>210</ele>
        <time>2021-11-04T14:40:11Z</time>
      </trkpt>
      <trkpt lat="46.57642" lon="5.31668">
        <ele>210.4</ele>
        <time>2021-11-04T14:40:16Z</time>
      </trkpt>
      <trkpt lat="46.57595" lon="5.31649">
        <ele>210.8</ele>
        <time>2021-11-04T14:40:24Z</time>
      </trkpt>
      <trkpt lat="46.57543" lon="5.31628">
        <ele>211</ele>
        <time>2021-11-04T14:40:33Z</time>
      </trkpt>
      <trkpt lat="46.57539" lon="5.31626">
        <ele>211</ele>
        <time>2021-11-04T14:40:34Z</time>
      </trkpt>
      <trkpt lat="46.57514" lon="5.31617">
        <ele>211.2</ele>
        <time>2021-11-04T14:40:39Z</time>
      </trkpt>
      <trkpt lat="46.57508" lon="5.31616">
        <ele>211.2</ele>
        <time>2021-11-04T14:40:40Z</time>
      </trkpt>
      <trkpt lat="46.57502" lon="5.31618">
        <ele>211.4</ele>
        <time>2021-11-04T14:40:42Z</time>
      </trkpt>
      <trkpt lat="46.57495" lon="5.31617">
        <ele>211.6</ele>
        <time>2021-11-04T14:40:46Z</time>
      </trkpt>
      <trkpt lat="46.57485" lon="5.31618">
        <ele>211.8</ele>
        <time>2021-11-04T14:40:52Z</time>
      </trkpt>
      <trkpt lat="46.57472" lon="5.31613">
        <ele>211.8</ele>
        <time>2021-11-04T14:40:57Z</time>
      </trkpt>
      <trkpt lat="46.57468" lon="5.31611">
        <ele>211.8</ele>
        <time>2021-11-04T14:40:58Z</time>
      </trkpt>
      <trkpt lat="46.57458" lon="5.3161">
        <ele>211.8</ele>
        <time>2021-11-04T14:41:00Z</time>
      </trkpt>
      <trkpt lat="46.57452" lon="5.3161">
        <ele>211.6</ele>
        <time>2021-11-04T14:41:01Z</time>
      </trkpt>
      <trkpt lat="46.57415" lon="5.31613">
        <ele>211.4</ele>
        <time>2021-11-04T14:41:07Z</time>
      </trkpt>
      <trkpt lat="46.5736" lon="5.31609">
        <ele>211.4</ele>
        <time>2021-11-04T14:41:16Z</time>
      </trkpt>
      <trkpt lat="46.57354" lon="5.31607">
        <ele>211.4</ele>
        <time>2021-11-04T14:41:17Z</time>
      </trkpt>
      <trkpt lat="46.57343" lon="5.31599">
        <ele>211.4</ele>
        <time>2021-11-04T14:41:19Z</time>
      </trkpt>
      <trkpt lat="46.57338" lon="5.31595">
        <ele>211.4</ele>
        <time>2021-11-04T14:41:20Z</time>
      </trkpt>
      <trkpt lat="46.57322" lon="5.31577">
        <ele>211.4</ele>
        <time>2021-11-04T14:41:23Z</time>
      </trkpt>
      <trkpt lat="46.5731" lon="5.31558">
        <ele>211.8</ele>
        <time>2021-11-04T14:41:26Z</time>
      </trkpt>
      <trkpt lat="46.57271" lon="5.31499">
        <ele>212</ele>
        <time>2021-11-04T14:41:35Z</time>
      </trkpt>
      <trkpt lat="46.57245" lon="5.31455">
        <ele>211.8</ele>
        <time>2021-11-04T14:41:41Z</time>
      </trkpt>
      <trkpt lat="46.57242" lon="5.31446">
        <ele>211.8</ele>
        <time>2021-11-04T14:41:42Z</time>
      </trkpt>
      <trkpt lat="46.57225" lon="5.31379">
        <ele>211.4</ele>
        <time>2021-11-04T14:41:49Z</time>
      </trkpt>
      <trkpt lat="46.57217" lon="5.3136">
        <ele>211.4</ele>
        <time>2021-11-04T14:41:51Z</time>
      </trkpt>
      <trkpt lat="46.57207" lon="5.31344">
        <ele>211</ele>
        <time>2021-11-04T14:41:53Z</time>
      </trkpt>
      <trkpt lat="46.57177" lon="5.31308">
        <ele>210.2</ele>
        <time>2021-11-04T14:41:58Z</time>
      </trkpt>
      <trkpt lat="46.5717" lon="5.31303">
        <ele>210</ele>
        <time>2021-11-04T14:41:59Z</time>
      </trkpt>
      <trkpt lat="46.57162" lon="5.31299">
        <ele>209.8</ele>
        <time>2021-11-04T14:42:00Z</time>
      </trkpt>
      <trkpt lat="46.57138" lon="5.31295">
        <ele>209</ele>
        <time>2021-11-04T14:42:03Z</time>
      </trkpt>
      <trkpt lat="46.57122" lon="5.31295">
        <ele>208.4</ele>
        <time>2021-11-04T14:42:05Z</time>
      </trkpt>
      <trkpt lat="46.57087" lon="5.31289">
        <ele>207</ele>
        <time>2021-11-04T14:42:09Z</time>
      </trkpt>
      <trkpt lat="46.57072" lon="5.31282">
        <ele>206.4</ele>
        <time>2021-11-04T14:42:11Z</time>
      </trkpt>
      <trkpt lat="46.57065" lon="5.31277">
        <ele>205.8</ele>
        <time>2021-11-04T14:42:12Z</time>
      </trkpt>
      <trkpt lat="46.57057" lon="5.31271">
        <ele>205.6</ele>
        <time>2021-11-04T14:42:13Z</time>
      </trkpt>
      <trkpt lat="46.57035" lon="5.31252">
        <ele>204.8</ele>
        <time>2021-11-04T14:42:16Z</time>
      </trkpt>
      <trkpt lat="46.57002" lon="5.31221">
        <ele>204</ele>
        <time>2021-11-04T14:42:21Z</time>
      </trkpt>
      <trkpt lat="46.56982" lon="5.31204">
        <ele>203.8</ele>
        <time>2021-11-04T14:42:24Z</time>
      </trkpt>
      <trkpt lat="46.56937" lon="5.31165">
        <ele>203.4</ele>
        <time>2021-11-04T14:42:31Z</time>
      </trkpt>
      <trkpt lat="46.56923" lon="5.31158">
        <ele>203.4</ele>
        <time>2021-11-04T14:42:33Z</time>
      </trkpt>
      <trkpt lat="46.56909" lon="5.31155">
        <ele>203.2</ele>
        <time>2021-11-04T14:42:35Z</time>
      </trkpt>
      <trkpt lat="46.56863" lon="5.31145">
        <ele>202.8</ele>
        <time>2021-11-04T14:42:41Z</time>
      </trkpt>
      <trkpt lat="46.56851" lon="5.31137">
        <ele>202.4</ele>
        <time>2021-11-04T14:42:43Z</time>
      </trkpt>
      <trkpt lat="46.56837" lon="5.31122">
        <ele>202</ele>
        <time>2021-11-04T14:42:45Z</time>
      </trkpt>
      <trkpt lat="46.56822" lon="5.31097">
        <ele>201.6</ele>
        <time>2021-11-04T14:42:48Z</time>
      </trkpt>
      <trkpt lat="46.56818" lon="5.31088">
        <ele>201.6</ele>
        <time>2021-11-04T14:42:49Z</time>
      </trkpt>
      <trkpt lat="46.56815" lon="5.31078">
        <ele>201.4</ele>
        <time>2021-11-04T14:42:50Z</time>
      </trkpt>
      <trkpt lat="46.56812" lon="5.31067">
        <ele>201.4</ele>
        <time>2021-11-04T14:42:51Z</time>
      </trkpt>
      <trkpt lat="46.56807" lon="5.31035">
        <ele>201.4</ele>
        <time>2021-11-04T14:42:54Z</time>
      </trkpt>
      <trkpt lat="46.5681" lon="5.30983">
        <ele>201</ele>
        <time>2021-11-04T14:42:59Z</time>
      </trkpt>
      <trkpt lat="46.56808" lon="5.30897">
        <ele>200.8</ele>
        <time>2021-11-04T14:43:07Z</time>
      </trkpt>
      <trkpt lat="46.56797" lon="5.30829">
        <ele>201</ele>
        <time>2021-11-04T14:43:14Z</time>
      </trkpt>
      <trkpt lat="46.56783" lon="5.30787">
        <ele>201</ele>
        <time>2021-11-04T14:43:19Z</time>
      </trkpt>
      <trkpt lat="46.56779" lon="5.30779">
        <ele>201.2</ele>
        <time>2021-11-04T14:43:20Z</time>
      </trkpt>
      <trkpt lat="46.56764" lon="5.3075">
        <ele>201.4</ele>
        <time>2021-11-04T14:43:24Z</time>
      </trkpt>
      <trkpt lat="46.56743" lon="5.30708">
        <ele>202.8</ele>
        <time>2021-11-04T14:43:30Z</time>
      </trkpt>
      <trkpt lat="46.56733" lon="5.30688">
        <ele>203</ele>
        <time>2021-11-04T14:43:33Z</time>
      </trkpt>
      <trkpt lat="46.56716" lon="5.30663">
        <ele>203.8</ele>
        <time>2021-11-04T14:43:37Z</time>
      </trkpt>
      <trkpt lat="46.56703" lon="5.30647">
        <ele>204.2</ele>
        <time>2021-11-04T14:43:40Z</time>
      </trkpt>
      <trkpt lat="46.56674" lon="5.30622">
        <ele>204.8</ele>
        <time>2021-11-04T14:43:46Z</time>
      </trkpt>
      <trkpt lat="46.56669" lon="5.30619">
        <ele>204.8</ele>
        <time>2021-11-04T14:43:47Z</time>
      </trkpt>
      <trkpt lat="46.56632" lon="5.30602">
        <ele>205.8</ele>
        <time>2021-11-04T14:43:54Z</time>
      </trkpt>
      <trkpt lat="46.56627" lon="5.30601">
        <ele>205.8</ele>
        <time>2021-11-04T14:43:55Z</time>
      </trkpt>
      <trkpt lat="46.56581" lon="5.30597">
        <ele>206.2</ele>
        <time>2021-11-04T14:44:03Z</time>
      </trkpt>
      <trkpt lat="46.56528" lon="5.30602">
        <ele>206.2</ele>
        <time>2021-11-04T14:44:12Z</time>
      </trkpt>
      <trkpt lat="46.5648" lon="5.3061">
        <ele>206</ele>
        <time>2021-11-04T14:44:20Z</time>
      </trkpt>
      <trkpt lat="46.56441" lon="5.30622">
        <ele>206.2</ele>
        <time>2021-11-04T14:44:27Z</time>
      </trkpt>
      <trkpt lat="46.56433" lon="5.30619">
        <ele>206.2</ele>
        <time>2021-11-04T14:44:29Z</time>
      </trkpt>
      <trkpt lat="46.5643" lon="5.30617">
        <ele>206.2</ele>
        <time>2021-11-04T14:44:30Z</time>
      </trkpt>
      <trkpt lat="46.56418" lon="5.30614">
        <ele>206.8</ele>
        <time>2021-11-04T14:44:34Z</time>
      </trkpt>
      <trkpt lat="46.56413" lon="5.30614">
        <ele>206.8</ele>
        <time>2021-11-04T14:44:35Z</time>
      </trkpt>
      <trkpt lat="46.56404" lon="5.30608">
        <ele>207</ele>
        <time>2021-11-04T14:44:37Z</time>
      </trkpt>
      <trkpt lat="46.56396" lon="5.30596">
        <ele>207</ele>
        <time>2021-11-04T14:44:39Z</time>
      </trkpt>
      <trkpt lat="46.56384" lon="5.30578">
        <ele>207</ele>
        <time>2021-11-04T14:44:42Z</time>
      </trkpt>
      <trkpt lat="46.56351" lon="5.30534">
        <ele>207.2</ele>
        <time>2021-11-04T14:44:49Z</time>
      </trkpt>
      <trkpt lat="46.56313" lon="5.3048">
        <ele>207.8</ele>
        <time>2021-11-04T14:44:57Z</time>
      </trkpt>
      <trkpt lat="46.56308" lon="5.30473">
        <ele>207.8</ele>
        <time>2021-11-04T14:44:58Z</time>
      </trkpt>
      <trkpt lat="46.56273" lon="5.30424">
        <ele>207.8</ele>
        <time>2021-11-04T14:45:05Z</time>
      </trkpt>
      <trkpt lat="46.56238" lon="5.30375">
        <ele>207.8</ele>
        <time>2021-11-04T14:45:12Z</time>
      </trkpt>
      <trkpt lat="46.56208" lon="5.3032">
        <ele>207.4</ele>
        <time>2021-11-04T14:45:19Z</time>
      </trkpt>
      <trkpt lat="46.5618" lon="5.30277">
        <ele>207.4</ele>
        <time>2021-11-04T14:45:25Z</time>
      </trkpt>
      <trkpt lat="46.56135" lon="5.30218">
        <ele>207.2</ele>
        <time>2021-11-04T14:45:34Z</time>
      </trkpt>
      <trkpt lat="46.56125" lon="5.30204">
        <ele>207.2</ele>
        <time>2021-11-04T14:45:36Z</time>
      </trkpt>
      <trkpt lat="46.56085" lon="5.3015">
        <ele>207</ele>
        <time>2021-11-04T14:45:44Z</time>
      </trkpt>
      <trkpt lat="46.56064" lon="5.30123">
        <ele>206.8</ele>
        <time>2021-11-04T14:45:48Z</time>
      </trkpt>
      <trkpt lat="46.56059" lon="5.30116">
        <ele>206.8</ele>
        <time>2021-11-04T14:45:49Z</time>
      </trkpt>
      <trkpt lat="46.56019" lon="5.30061">
        <ele>205.4</ele>
        <time>2021-11-04T14:45:56Z</time>
      </trkpt>
      <trkpt lat="46.55993" lon="5.30027">
        <ele>204</ele>
        <time>2021-11-04T14:46:00Z</time>
      </trkpt>
      <trkpt lat="46.55973" lon="5.3">
        <ele>203.4</ele>
        <time>2021-11-04T14:46:03Z</time>
      </trkpt>
      <trkpt lat="46.5596" lon="5.29982">
        <ele>202.6</ele>
        <time>2021-11-04T14:46:05Z</time>
      </trkpt>
      <trkpt lat="46.5594" lon="5.29955">
        <ele>201.4</ele>
        <time>2021-11-04T14:46:08Z</time>
      </trkpt>
      <trkpt lat="46.55921" lon="5.29931">
        <ele>200.6</ele>
        <time>2021-11-04T14:46:11Z</time>
      </trkpt>
      <trkpt lat="46.55891" lon="5.29891">
        <ele>200.8</ele>
        <time>2021-11-04T14:46:17Z</time>
      </trkpt>
      <trkpt lat="46.55865" lon="5.29856">
        <ele>202.6</ele>
        <time>2021-11-04T14:46:23Z</time>
      </trkpt>
      <trkpt lat="46.55861" lon="5.2985">
        <ele>202.6</ele>
        <time>2021-11-04T14:46:24Z</time>
      </trkpt>
      <trkpt lat="46.5585" lon="5.29834">
        <ele>203.8</ele>
        <time>2021-11-04T14:46:27Z</time>
      </trkpt>
      <trkpt lat="46.55829" lon="5.29805">
        <ele>205</ele>
        <time>2021-11-04T14:46:32Z</time>
      </trkpt>
      <trkpt lat="46.55797" lon="5.29763">
        <ele>205.2</ele>
        <time>2021-11-04T14:46:39Z</time>
      </trkpt>
      <trkpt lat="46.55784" lon="5.29746">
        <ele>205.2</ele>
        <time>2021-11-04T14:46:42Z</time>
      </trkpt>
      <trkpt lat="46.5578" lon="5.29734">
        <ele>205</ele>
        <time>2021-11-04T14:46:44Z</time>
      </trkpt>
      <trkpt lat="46.55777" lon="5.2972">
        <ele>205.2</ele>
        <time>2021-11-04T14:46:48Z</time>
      </trkpt>
      <trkpt lat="46.55772" lon="5.29715">
        <ele>205.2</ele>
        <time>2021-11-04T14:46:50Z</time>
      </trkpt>
      <trkpt lat="46.5577" lon="5.2971">
        <ele>205.4</ele>
        <time>2021-11-04T14:46:51Z</time>
      </trkpt>
      <trkpt lat="46.55768" lon="5.29698">
        <ele>205.4</ele>
        <time>2021-11-04T14:46:53Z</time>
      </trkpt>
      <trkpt lat="46.55766" lon="5.29684">
        <ele>205.4</ele>
        <time>2021-11-04T14:46:55Z</time>
      </trkpt>
      <trkpt lat="46.55762" lon="5.2967">
        <ele>205.2</ele>
        <time>2021-11-04T14:46:57Z</time>
      </trkpt>
      <trkpt lat="46.55753" lon="5.29649">
        <ele>205.4</ele>
        <time>2021-11-04T14:47:00Z</time>
      </trkpt>
      <trkpt lat="46.5575" lon="5.29642">
        <ele>205.4</ele>
        <time>2021-11-04T14:47:01Z</time>
      </trkpt>
      <trkpt lat="46.55733" lon="5.2961">
        <ele>205.6</ele>
        <time>2021-11-04T14:47:06Z</time>
      </trkpt>
      <trkpt lat="46.5573" lon="5.29602">
        <ele>205.8</ele>
        <time>2021-11-04T14:47:07Z</time>
      </trkpt>
      <trkpt lat="46.55728" lon="5.29594">
        <ele>205.8</ele>
        <time>2021-11-04T14:47:08Z</time>
      </trkpt>
      <trkpt lat="46.55726" lon="5.29586">
        <ele>205.8</ele>
        <time>2021-11-04T14:47:09Z</time>
      </trkpt>
      <trkpt lat="46.55725" lon="5.29559">
        <ele>205.8</ele>
        <time>2021-11-04T14:47:12Z</time>
      </trkpt>
      <trkpt lat="46.55725" lon="5.2949">
        <ele>204.8</ele>
        <time>2021-11-04T14:47:19Z</time>
      </trkpt>
      <trkpt lat="46.55725" lon="5.29452">
        <ele>204.8</ele>
        <time>2021-11-04T14:47:23Z</time>
      </trkpt>
      <trkpt lat="46.55725" lon="5.29416">
        <ele>205</ele>
        <time>2021-11-04T14:47:27Z</time>
      </trkpt>
      <trkpt lat="46.55729" lon="5.29331">
        <ele>205.4</ele>
        <time>2021-11-04T14:47:36Z</time>
      </trkpt>
      <trkpt lat="46.55738" lon="5.29262">
        <ele>205.2</ele>
        <time>2021-11-04T14:47:44Z</time>
      </trkpt>
      <trkpt lat="46.55745" lon="5.29223">
        <ele>204.8</ele>
        <time>2021-11-04T14:47:50Z</time>
      </trkpt>
      <trkpt lat="46.55744" lon="5.29218">
        <ele>204.4</ele>
        <time>2021-11-04T14:47:52Z</time>
      </trkpt>
      <trkpt lat="46.55741" lon="5.29216">
        <ele>204</ele>
        <time>2021-11-04T14:47:54Z</time>
      </trkpt>
      <trkpt lat="46.55737" lon="5.29215">
        <ele>203.8</ele>
        <time>2021-11-04T14:47:56Z</time>
      </trkpt>
      <trkpt lat="46.55726" lon="5.29213">
        <ele>203.2</ele>
        <time>2021-11-04T14:48:01Z</time>
      </trkpt>
      <trkpt lat="46.55725" lon="5.29213">
        <ele>203.2</ele>
        <time>2021-11-04T14:48:02Z</time>
      </trkpt>
      <trkpt lat="46.55724" lon="5.29216">
        <ele>203.2</ele>
        <time>2021-11-04T14:48:04Z</time>
      </trkpt>
      <trkpt lat="46.55736" lon="5.29219">
        <ele>203.2</ele>
        <time>2021-11-04T14:48:08Z</time>
      </trkpt>
      <trkpt lat="46.55744" lon="5.29219">
        <ele>203.2</ele>
        <time>2021-11-04T14:48:10Z</time>
      </trkpt>
      <trkpt lat="46.55748" lon="5.29215">
        <ele>203.2</ele>
        <time>2021-11-04T14:48:11Z</time>
      </trkpt>
      <trkpt lat="46.55751" lon="5.29209">
        <ele>203.2</ele>
        <time>2021-11-04T14:48:12Z</time>
      </trkpt>
      <trkpt lat="46.55764" lon="5.29188">
        <ele>203.2</ele>
        <time>2021-11-04T14:48:15Z</time>
      </trkpt>
      <trkpt lat="46.55778" lon="5.29164">
        <ele>202.6</ele>
        <time>2021-11-04T14:48:18Z</time>
      </trkpt>
      <trkpt lat="46.55786" lon="5.29147">
        <ele>201.6</ele>
        <time>2021-11-04T14:48:20Z</time>
      </trkpt>
      <trkpt lat="46.5579" lon="5.29139">
        <ele>201.4</ele>
        <time>2021-11-04T14:48:21Z</time>
      </trkpt>
      <trkpt lat="46.55817" lon="5.29084">
        <ele>200.8</ele>
        <time>2021-11-04T14:48:28Z</time>
      </trkpt>
      <trkpt lat="46.55832" lon="5.29052">
        <ele>202</ele>
        <time>2021-11-04T14:48:33Z</time>
      </trkpt>
      <trkpt lat="46.55833" lon="5.29049">
        <ele>202.6</ele>
        <time>2021-11-04T14:48:34Z</time>
      </trkpt>
      <trkpt lat="46.55831" lon="5.29048">
        <ele>203.2</ele>
        <time>2021-11-04T14:48:36Z</time>
      </trkpt>
      <trkpt lat="46.5583" lon="5.2905">
        <ele>203.6</ele>
        <time>2021-11-04T14:48:37Z</time>
      </trkpt>
      <trkpt lat="46.55829" lon="5.29052">
        <ele>203.8</ele>
        <time>2021-11-04T14:48:38Z</time>
      </trkpt>
      <trkpt lat="46.55825" lon="5.29064">
        <ele>204.4</ele>
        <time>2021-11-04T14:48:41Z</time>
      </trkpt>
      <trkpt lat="46.55812" lon="5.29094">
        <ele>204.4</ele>
        <time>2021-11-04T14:48:45Z</time>
      </trkpt>
      <trkpt lat="46.55792" lon="5.29135">
        <ele>203</ele>
        <time>2021-11-04T14:48:49Z</time>
      </trkpt>
      <trkpt lat="46.55787" lon="5.29145">
        <ele>202.4</ele>
        <time>2021-11-04T14:48:50Z</time>
      </trkpt>
      <trkpt lat="46.55773" lon="5.29174">
        <ele>201.2</ele>
        <time>2021-11-04T14:48:53Z</time>
      </trkpt>
      <trkpt lat="46.55768" lon="5.29182">
        <ele>201</ele>
        <time>2021-11-04T14:48:54Z</time>
      </trkpt>
      <trkpt lat="46.55745" lon="5.29217">
        <ele>200.8</ele>
        <time>2021-11-04T14:48:59Z</time>
      </trkpt>
      <trkpt lat="46.55735" lon="5.29219">
        <ele>201</ele>
        <time>2021-11-04T14:49:01Z</time>
      </trkpt>
      <trkpt lat="46.5573" lon="5.29218">
        <ele>201.2</ele>
        <time>2021-11-04T14:49:02Z</time>
      </trkpt>
      <trkpt lat="46.55703" lon="5.2921">
        <ele>202.4</ele>
        <time>2021-11-04T14:49:06Z</time>
      </trkpt>
      <trkpt lat="46.55696" lon="5.29209">
        <ele>202.4</ele>
        <time>2021-11-04T14:49:07Z</time>
      </trkpt>
      <trkpt lat="46.55655" lon="5.29207">
        <ele>202.4</ele>
        <time>2021-11-04T14:49:13Z</time>
      </trkpt>
      <trkpt lat="46.55626" lon="5.29218">
        <ele>202.6</ele>
        <time>2021-11-04T14:49:18Z</time>
      </trkpt>
      <trkpt lat="46.55598" lon="5.2923">
        <ele>203.4</ele>
        <time>2021-11-04T14:49:24Z</time>
      </trkpt>
      <trkpt lat="46.55593" lon="5.29232">
        <ele>203.6</ele>
        <time>2021-11-04T14:49:25Z</time>
      </trkpt>
      <trkpt lat="46.55574" lon="5.2924">
        <ele>204.4</ele>
        <time>2021-11-04T14:49:29Z</time>
      </trkpt>
      <trkpt lat="46.55552" lon="5.29251">
        <ele>205</ele>
        <time>2021-11-04T14:49:33Z</time>
      </trkpt>
      <trkpt lat="46.55523" lon="5.29264">
        <ele>205.6</ele>
        <time>2021-11-04T14:49:38Z</time>
      </trkpt>
      <trkpt lat="46.55512" lon="5.2927">
        <ele>205.6</ele>
        <time>2021-11-04T14:49:40Z</time>
      </trkpt>
      <trkpt lat="46.55462" lon="5.29293">
        <ele>205.4</ele>
        <time>2021-11-04T14:49:48Z</time>
      </trkpt>
      <trkpt lat="46.5541" lon="5.29319">
        <ele>204.6</ele>
        <time>2021-11-04T14:49:56Z</time>
      </trkpt>
      <trkpt lat="46.55404" lon="5.29322">
        <ele>204.6</ele>
        <time>2021-11-04T14:49:57Z</time>
      </trkpt>
      <trkpt lat="46.55397" lon="5.29325">
        <ele>204.4</ele>
        <time>2021-11-04T14:49:58Z</time>
      </trkpt>
      <trkpt lat="46.55343" lon="5.29348">
        <ele>204.2</ele>
        <time>2021-11-04T14:50:06Z</time>
      </trkpt>
      <trkpt lat="46.55304" lon="5.29353">
        <ele>204</ele>
        <time>2021-11-04T14:50:12Z</time>
      </trkpt>
      <trkpt lat="46.55276" lon="5.29352">
        <ele>204</ele>
        <time>2021-11-04T14:50:17Z</time>
      </trkpt>
      <trkpt lat="46.5526" lon="5.29352">
        <ele>204</ele>
        <time>2021-11-04T14:50:20Z</time>
      </trkpt>
      <trkpt lat="46.55256" lon="5.2935">
        <ele>204</ele>
        <time>2021-11-04T14:50:21Z</time>
      </trkpt>
      <trkpt lat="46.55253" lon="5.29345">
        <ele>204</ele>
        <time>2021-11-04T14:50:22Z</time>
      </trkpt>
      <trkpt lat="46.55253" lon="5.29331">
        <ele>204</ele>
        <time>2021-11-04T14:50:24Z</time>
      </trkpt>
      <trkpt lat="46.5526" lon="5.29304">
        <ele>203.4</ele>
        <time>2021-11-04T14:50:27Z</time>
      </trkpt>
      <trkpt lat="46.55263" lon="5.29293">
        <ele>202.8</ele>
        <time>2021-11-04T14:50:28Z</time>
      </trkpt>
      <trkpt lat="46.55269" lon="5.29273">
        <ele>201.8</ele>
        <time>2021-11-04T14:50:30Z</time>
      </trkpt>
      <trkpt lat="46.55277" lon="5.29248">
        <ele>201</ele>
        <time>2021-11-04T14:50:32Z</time>
      </trkpt>
      <trkpt lat="46.55283" lon="5.29223">
        <ele>200.2</ele>
        <time>2021-11-04T14:50:34Z</time>
      </trkpt>
      <trkpt lat="46.55287" lon="5.29199">
        <ele>199.2</ele>
        <time>2021-11-04T14:50:36Z</time>
      </trkpt>
      <trkpt lat="46.55286" lon="5.29187">
        <ele>198.4</ele>
        <time>2021-11-04T14:50:37Z</time>
      </trkpt>
      <trkpt lat="46.55282" lon="5.29176">
        <ele>198.2</ele>
        <time>2021-11-04T14:50:38Z</time>
      </trkpt>
      <trkpt lat="46.55278" lon="5.29166">
        <ele>197.6</ele>
        <time>2021-11-04T14:50:39Z</time>
      </trkpt>
      <trkpt lat="46.55272" lon="5.29157">
        <ele>197.4</ele>
        <time>2021-11-04T14:50:40Z</time>
      </trkpt>
      <trkpt lat="46.55253" lon="5.29133">
        <ele>196.4</ele>
        <time>2021-11-04T14:50:43Z</time>
      </trkpt>
      <trkpt lat="46.55234" lon="5.29105">
        <ele>195.4</ele>
        <time>2021-11-04T14:50:46Z</time>
      </trkpt>
      <trkpt lat="46.55216" lon="5.29074">
        <ele>194.2</ele>
        <time>2021-11-04T14:50:49Z</time>
      </trkpt>
      <trkpt lat="46.55202" lon="5.29048">
        <ele>193</ele>
        <time>2021-11-04T14:50:51Z</time>
      </trkpt>
      <trkpt lat="46.55191" lon="5.29027">
        <ele>191.4</ele>
        <time>2021-11-04T14:50:53Z</time>
      </trkpt>
      <trkpt lat="46.55177" lon="5.29003">
        <ele>190</ele>
        <time>2021-11-04T14:50:55Z</time>
      </trkpt>
      <trkpt lat="46.55163" lon="5.28976">
        <ele>188.4</ele>
        <time>2021-11-04T14:50:57Z</time>
      </trkpt>
      <trkpt lat="46.55151" lon="5.28949">
        <ele>186.8</ele>
        <time>2021-11-04T14:50:59Z</time>
      </trkpt>
      <trkpt lat="46.55148" lon="5.28934">
        <ele>185.8</ele>
        <time>2021-11-04T14:51:00Z</time>
      </trkpt>
      <trkpt lat="46.55146" lon="5.2892">
        <ele>185.4</ele>
        <time>2021-11-04T14:51:01Z</time>
      </trkpt>
      <trkpt lat="46.55145" lon="5.28891">
        <ele>184</ele>
        <time>2021-11-04T14:51:03Z</time>
      </trkpt>
      <trkpt lat="46.55151" lon="5.28837">
        <ele>183</ele>
        <time>2021-11-04T14:51:07Z</time>
      </trkpt>
      <trkpt lat="46.55152" lon="5.28824">
        <ele>183</ele>
        <time>2021-11-04T14:51:08Z</time>
      </trkpt>
      <trkpt lat="46.55153" lon="5.28799">
        <ele>182.8</ele>
        <time>2021-11-04T14:51:10Z</time>
      </trkpt>
      <trkpt lat="46.55149" lon="5.28777">
        <ele>182.8</ele>
        <time>2021-11-04T14:51:12Z</time>
      </trkpt>
      <trkpt lat="46.5514" lon="5.28758">
        <ele>183</ele>
        <time>2021-11-04T14:51:14Z</time>
      </trkpt>
      <trkpt lat="46.55135" lon="5.2875">
        <ele>183</ele>
        <time>2021-11-04T14:51:15Z</time>
      </trkpt>
      <trkpt lat="46.55103" lon="5.28702">
        <ele>182.8</ele>
        <time>2021-11-04T14:51:21Z</time>
      </trkpt>
      <trkpt lat="46.55068" lon="5.28636">
        <ele>182.8</ele>
        <time>2021-11-04T14:51:29Z</time>
      </trkpt>
      <trkpt lat="46.55032" lon="5.28572">
        <ele>183.6</ele>
        <time>2021-11-04T14:51:38Z</time>
      </trkpt>
      <trkpt lat="46.55025" lon="5.28558">
        <ele>184</ele>
        <time>2021-11-04T14:51:40Z</time>
      </trkpt>
      <trkpt lat="46.55006" lon="5.28525">
        <ele>185</ele>
        <time>2021-11-04T14:51:45Z</time>
      </trkpt>
      <trkpt lat="46.55" lon="5.28513">
        <ele>185.2</ele>
        <time>2021-11-04T14:51:47Z</time>
      </trkpt>
      <trkpt lat="46.54982" lon="5.28483">
        <ele>186.2</ele>
        <time>2021-11-04T14:51:52Z</time>
      </trkpt>
      <trkpt lat="46.54974" lon="5.28472">
        <ele>186.4</ele>
        <time>2021-11-04T14:51:54Z</time>
      </trkpt>
      <trkpt lat="46.54961" lon="5.28459">
        <ele>187</ele>
        <time>2021-11-04T14:51:57Z</time>
      </trkpt>
      <trkpt lat="46.54951" lon="5.28454">
        <ele>187.6</ele>
        <time>2021-11-04T14:51:59Z</time>
      </trkpt>
      <trkpt lat="46.5492" lon="5.28439">
        <ele>188.6</ele>
        <time>2021-11-04T14:52:05Z</time>
      </trkpt>
      <trkpt lat="46.54915" lon="5.28436">
        <ele>188.8</ele>
        <time>2021-11-04T14:52:06Z</time>
      </trkpt>
      <trkpt lat="46.5491" lon="5.28434">
        <ele>189</ele>
        <time>2021-11-04T14:52:07Z</time>
      </trkpt>
      <trkpt lat="46.5489" lon="5.28418">
        <ele>189.8</ele>
        <time>2021-11-04T14:52:11Z</time>
      </trkpt>
      <trkpt lat="46.54881" lon="5.2841">
        <ele>190</ele>
        <time>2021-11-04T14:52:13Z</time>
      </trkpt>
      <trkpt lat="46.5485" lon="5.2839">
        <ele>190.8</ele>
        <time>2021-11-04T14:52:19Z</time>
      </trkpt>
      <trkpt lat="46.54846" lon="5.28388">
        <ele>191</ele>
        <time>2021-11-04T14:52:20Z</time>
      </trkpt>
      <trkpt lat="46.5482" lon="5.28371">
        <ele>192</ele>
        <time>2021-11-04T14:52:26Z</time>
      </trkpt>
      <trkpt lat="46.54803" lon="5.28358">
        <ele>193.4</ele>
        <time>2021-11-04T14:52:30Z</time>
      </trkpt>
      <trkpt lat="46.54795" lon="5.28348">
        <ele>194</ele>
        <time>2021-11-04T14:52:32Z</time>
      </trkpt>
      <trkpt lat="46.54787" lon="5.28334">
        <ele>194.4</ele>
        <time>2021-11-04T14:52:34Z</time>
      </trkpt>
      <trkpt lat="46.54763" lon="5.28282">
        <ele>194.4</ele>
        <time>2021-11-04T14:52:41Z</time>
      </trkpt>
      <trkpt lat="46.54742" lon="5.28233">
        <ele>193.6</ele>
        <time>2021-11-04T14:52:47Z</time>
      </trkpt>
      <trkpt lat="46.54738" lon="5.28225">
        <ele>193.6</ele>
        <time>2021-11-04T14:52:48Z</time>
      </trkpt>
      <trkpt lat="46.54722" lon="5.28201">
        <ele>194</ele>
        <time>2021-11-04T14:52:52Z</time>
      </trkpt>
      <trkpt lat="46.54693" lon="5.28168">
        <ele>195.6</ele>
        <time>2021-11-04T14:52:59Z</time>
      </trkpt>
      <trkpt lat="46.54665" lon="5.28149">
        <ele>196.6</ele>
        <time>2021-11-04T14:53:05Z</time>
      </trkpt>
      <trkpt lat="46.5466" lon="5.28145">
        <ele>196.8</ele>
        <time>2021-11-04T14:53:06Z</time>
      </trkpt>
      <trkpt lat="46.54649" lon="5.28137">
        <ele>197.6</ele>
        <time>2021-11-04T14:53:08Z</time>
      </trkpt>
      <trkpt lat="46.54631" lon="5.28119">
        <ele>198.4</ele>
        <time>2021-11-04T14:53:12Z</time>
      </trkpt>
      <trkpt lat="46.54627" lon="5.28115">
        <ele>198.6</ele>
        <time>2021-11-04T14:53:13Z</time>
      </trkpt>
      <trkpt lat="46.54605" lon="5.28084">
        <ele>199.8</ele>
        <time>2021-11-04T14:53:19Z</time>
      </trkpt>
      <trkpt lat="46.546" lon="5.28077">
        <ele>199.8</ele>
        <time>2021-11-04T14:53:20Z</time>
      </trkpt>
      <trkpt lat="46.54569" lon="5.28035">
        <ele>200.4</ele>
        <time>2021-11-04T14:53:28Z</time>
      </trkpt>
      <trkpt lat="46.54559" lon="5.28016">
        <ele>201</ele>
        <time>2021-11-04T14:53:31Z</time>
      </trkpt>
      <trkpt lat="46.54546" lon="5.27991">
        <ele>201.4</ele>
        <time>2021-11-04T14:53:35Z</time>
      </trkpt>
      <trkpt lat="46.54531" lon="5.27958">
        <ele>202.2</ele>
        <time>2021-11-04T14:53:40Z</time>
      </trkpt>
      <trkpt lat="46.5452" lon="5.27941">
        <ele>202.6</ele>
        <time>2021-11-04T14:53:43Z</time>
      </trkpt>
      <trkpt lat="46.54508" lon="5.27924">
        <ele>203.2</ele>
        <time>2021-11-04T14:53:46Z</time>
      </trkpt>
      <trkpt lat="46.54484" lon="5.27887">
        <ele>203.4</ele>
        <time>2021-11-04T14:53:52Z</time>
      </trkpt>
      <trkpt lat="46.54457" lon="5.27858">
        <ele>203.6</ele>
        <time>2021-11-04T14:53:58Z</time>
      </trkpt>
      <trkpt lat="46.54429" lon="5.27825">
        <ele>203.8</ele>
        <time>2021-11-04T14:54:04Z</time>
      </trkpt>
      <trkpt lat="46.54408" lon="5.2779">
        <ele>204</ele>
        <time>2021-11-04T14:54:09Z</time>
      </trkpt>
      <trkpt lat="46.5439" lon="5.27764">
        <ele>204.4</ele>
        <time>2021-11-04T14:54:13Z</time>
      </trkpt>
      <trkpt lat="46.54347" lon="5.27709">
        <ele>204.2</ele>
        <time>2021-11-04T14:54:22Z</time>
      </trkpt>
      <trkpt lat="46.54342" lon="5.27703">
        <ele>204.2</ele>
        <time>2021-11-04T14:54:23Z</time>
      </trkpt>
      <trkpt lat="46.54298" lon="5.27646">
        <ele>204.4</ele>
        <time>2021-11-04T14:54:32Z</time>
      </trkpt>
      <trkpt lat="46.54293" lon="5.2764">
        <ele>204.4</ele>
        <time>2021-11-04T14:54:33Z</time>
      </trkpt>
      <trkpt lat="46.54248" lon="5.27582">
        <ele>204</ele>
        <time>2021-11-04T14:54:42Z</time>
      </trkpt>
      <trkpt lat="46.54237" lon="5.27569">
        <ele>203.8</ele>
        <time>2021-11-04T14:54:44Z</time>
      </trkpt>
      <trkpt lat="46.54204" lon="5.27526">
        <ele>203.4</ele>
        <time>2021-11-04T14:54:50Z</time>
      </trkpt>
      <trkpt lat="46.54189" lon="5.27501">
        <ele>203</ele>
        <time>2021-11-04T14:54:53Z</time>
      </trkpt>
      <trkpt lat="46.54179" lon="5.27481">
        <ele>202.4</ele>
        <time>2021-11-04T14:54:55Z</time>
      </trkpt>
      <trkpt lat="46.54166" lon="5.27449">
        <ele>201.8</ele>
        <time>2021-11-04T14:54:58Z</time>
      </trkpt>
      <trkpt lat="46.54152" lon="5.27415">
        <ele>200.8</ele>
        <time>2021-11-04T14:55:01Z</time>
      </trkpt>
      <trkpt lat="46.54138" lon="5.27383">
        <ele>199</ele>
        <time>2021-11-04T14:55:04Z</time>
      </trkpt>
      <trkpt lat="46.54129" lon="5.2736">
        <ele>197.8</ele>
        <time>2021-11-04T14:55:06Z</time>
      </trkpt>
      <trkpt lat="46.54124" lon="5.27348">
        <ele>197.2</ele>
        <time>2021-11-04T14:55:07Z</time>
      </trkpt>
      <trkpt lat="46.54114" lon="5.27325">
        <ele>196.4</ele>
        <time>2021-11-04T14:55:09Z</time>
      </trkpt>
      <trkpt lat="46.541" lon="5.27291">
        <ele>195.2</ele>
        <time>2021-11-04T14:55:12Z</time>
      </trkpt>
      <trkpt lat="46.5409" lon="5.27268">
        <ele>194.4</ele>
        <time>2021-11-04T14:55:14Z</time>
      </trkpt>
      <trkpt lat="46.54085" lon="5.27256">
        <ele>193.8</ele>
        <time>2021-11-04T14:55:15Z</time>
      </trkpt>
      <trkpt lat="46.5407" lon="5.27217">
        <ele>192.8</ele>
        <time>2021-11-04T14:55:18Z</time>
      </trkpt>
      <trkpt lat="46.5406" lon="5.27192">
        <ele>191.8</ele>
        <time>2021-11-04T14:55:20Z</time>
      </trkpt>
      <trkpt lat="46.54055" lon="5.2718">
        <ele>191.4</ele>
        <time>2021-11-04T14:55:21Z</time>
      </trkpt>
      <trkpt lat="46.54039" lon="5.27142">
        <ele>190.4</ele>
        <time>2021-11-04T14:55:24Z</time>
      </trkpt>
      <trkpt lat="46.54023" lon="5.27104">
        <ele>189</ele>
        <time>2021-11-04T14:55:27Z</time>
      </trkpt>
      <trkpt lat="46.54018" lon="5.27091">
        <ele>188.6</ele>
        <time>2021-11-04T14:55:28Z</time>
      </trkpt>
      <trkpt lat="46.54013" lon="5.27078">
        <ele>188</ele>
        <time>2021-11-04T14:55:29Z</time>
      </trkpt>
      <trkpt lat="46.53992" lon="5.27025">
        <ele>187</ele>
        <time>2021-11-04T14:55:33Z</time>
      </trkpt>
      <trkpt lat="46.53981" lon="5.26999">
        <ele>185.8</ele>
        <time>2021-11-04T14:55:35Z</time>
      </trkpt>
      <trkpt lat="46.53971" lon="5.26973">
        <ele>184.6</ele>
        <time>2021-11-04T14:55:37Z</time>
      </trkpt>
      <trkpt lat="46.5396" lon="5.26948">
        <ele>183.6</ele>
        <time>2021-11-04T14:55:39Z</time>
      </trkpt>
      <trkpt lat="46.53948" lon="5.26925">
        <ele>182.8</ele>
        <time>2021-11-04T14:55:41Z</time>
      </trkpt>
      <trkpt lat="46.53942" lon="5.26915">
        <ele>182.6</ele>
        <time>2021-11-04T14:55:42Z</time>
      </trkpt>
      <trkpt lat="46.53936" lon="5.26906">
        <ele>182.4</ele>
        <time>2021-11-04T14:55:43Z</time>
      </trkpt>
      <trkpt lat="46.53906" lon="5.2686">
        <ele>181.2</ele>
        <time>2021-11-04T14:55:48Z</time>
      </trkpt>
      <trkpt lat="46.53878" lon="5.26817">
        <ele>181</ele>
        <time>2021-11-04T14:55:53Z</time>
      </trkpt>
      <trkpt lat="46.53847" lon="5.2676">
        <ele>181.6</ele>
        <time>2021-11-04T14:56:00Z</time>
      </trkpt>
      <trkpt lat="46.5384" lon="5.26743">
        <ele>181.8</ele>
        <time>2021-11-04T14:56:02Z</time>
      </trkpt>
      <trkpt lat="46.53836" lon="5.26723">
        <ele>181.8</ele>
        <time>2021-11-04T14:56:04Z</time>
      </trkpt>
      <trkpt lat="46.53835" lon="5.26691">
        <ele>181.8</ele>
        <time>2021-11-04T14:56:07Z</time>
      </trkpt>
      <trkpt lat="46.53837" lon="5.26681">
        <ele>181.8</ele>
        <time>2021-11-04T14:56:08Z</time>
      </trkpt>
      <trkpt lat="46.53839" lon="5.26671">
        <ele>181.8</ele>
        <time>2021-11-04T14:56:09Z</time>
      </trkpt>
      <trkpt lat="46.53842" lon="5.26652">
        <ele>181.8</ele>
        <time>2021-11-04T14:56:11Z</time>
      </trkpt>
      <trkpt lat="46.53842" lon="5.26642">
        <ele>181.8</ele>
        <time>2021-11-04T14:56:12Z</time>
      </trkpt>
      <trkpt lat="46.5384" lon="5.26633">
        <ele>181.6</ele>
        <time>2021-11-04T14:56:13Z</time>
      </trkpt>
      <trkpt lat="46.53833" lon="5.26606">
        <ele>181.6</ele>
        <time>2021-11-04T14:56:16Z</time>
      </trkpt>
      <trkpt lat="46.53824" lon="5.26566">
        <ele>181.8</ele>
        <time>2021-11-04T14:56:21Z</time>
      </trkpt>
      <trkpt lat="46.53818" lon="5.26533">
        <ele>182.2</ele>
        <time>2021-11-04T14:56:25Z</time>
      </trkpt>
      <trkpt lat="46.53818" lon="5.26525">
        <ele>182.4</ele>
        <time>2021-11-04T14:56:26Z</time>
      </trkpt>
      <trkpt lat="46.53816" lon="5.265">
        <ele>183</ele>
        <time>2021-11-04T14:56:29Z</time>
      </trkpt>
      <trkpt lat="46.53815" lon="5.26484">
        <ele>183.4</ele>
        <time>2021-11-04T14:56:31Z</time>
      </trkpt>
      <trkpt lat="46.53814" lon="5.26477">
        <ele>183.6</ele>
        <time>2021-11-04T14:56:32Z</time>
      </trkpt>
      <trkpt lat="46.53808" lon="5.2646">
        <ele>184</ele>
        <time>2021-11-04T14:56:34Z</time>
      </trkpt>
      <trkpt lat="46.53804" lon="5.26453">
        <ele>184.2</ele>
        <time>2021-11-04T14:56:35Z</time>
      </trkpt>
      <trkpt lat="46.538" lon="5.26449">
        <ele>184.2</ele>
        <time>2021-11-04T14:56:36Z</time>
      </trkpt>
      <trkpt lat="46.5379" lon="5.26444">
        <ele>184.4</ele>
        <time>2021-11-04T14:56:38Z</time>
      </trkpt>
      <trkpt lat="46.5378" lon="5.26444">
        <ele>184.6</ele>
        <time>2021-11-04T14:56:40Z</time>
      </trkpt>
      <trkpt lat="46.53768" lon="5.26447">
        <ele>184.8</ele>
        <time>2021-11-04T14:56:42Z</time>
      </trkpt>
      <trkpt lat="46.53722" lon="5.26464">
        <ele>184.6</ele>
        <time>2021-11-04T14:56:49Z</time>
      </trkpt>
      <trkpt lat="46.5367" lon="5.26482">
        <ele>183.8</ele>
        <time>2021-11-04T14:56:57Z</time>
      </trkpt>
      <trkpt lat="46.53649" lon="5.26483">
        <ele>183.2</ele>
        <time>2021-11-04T14:57:00Z</time>
      </trkpt>
      <trkpt lat="46.53629" lon="5.2648">
        <ele>182.8</ele>
        <time>2021-11-04T14:57:03Z</time>
      </trkpt>
      <trkpt lat="46.53582" lon="5.26478">
        <ele>182.2</ele>
        <time>2021-11-04T14:57:10Z</time>
      </trkpt>
      <trkpt lat="46.53575" lon="5.26479">
        <ele>182</ele>
        <time>2021-11-04T14:57:11Z</time>
      </trkpt>
      <trkpt lat="46.53542" lon="5.26477">
        <ele>182.2</ele>
        <time>2021-11-04T14:57:16Z</time>
      </trkpt>
      <trkpt lat="46.53492" lon="5.26469">
        <ele>182.6</ele>
        <time>2021-11-04T14:57:24Z</time>
      </trkpt>
      <trkpt lat="46.53435" lon="5.26465">
        <ele>182.6</ele>
        <time>2021-11-04T14:57:33Z</time>
      </trkpt>
      <trkpt lat="46.53423" lon="5.26464">
        <ele>182.4</ele>
        <time>2021-11-04T14:57:35Z</time>
      </trkpt>
      <trkpt lat="46.53374" lon="5.26465">
        <ele>182.4</ele>
        <time>2021-11-04T14:57:43Z</time>
      </trkpt>
      <trkpt lat="46.5333" lon="5.26462">
        <ele>182.6</ele>
        <time>2021-11-04T14:57:50Z</time>
      </trkpt>
      <trkpt lat="46.53273" lon="5.26452">
        <ele>182.4</ele>
        <time>2021-11-04T14:57:59Z</time>
      </trkpt>
      <trkpt lat="46.53215" lon="5.26443">
        <ele>182.4</ele>
        <time>2021-11-04T14:58:08Z</time>
      </trkpt>
      <trkpt lat="46.53209" lon="5.26442">
        <ele>182.4</ele>
        <time>2021-11-04T14:58:09Z</time>
      </trkpt>
      <trkpt lat="46.5317" lon="5.26437">
        <ele>182.8</ele>
        <time>2021-11-04T14:58:15Z</time>
      </trkpt>
      <trkpt lat="46.53157" lon="5.26434">
        <ele>183</ele>
        <time>2021-11-04T14:58:17Z</time>
      </trkpt>
      <trkpt lat="46.53144" lon="5.26432">
        <ele>183.2</ele>
        <time>2021-11-04T14:58:19Z</time>
      </trkpt>
      <trkpt lat="46.53117" lon="5.26429">
        <ele>183.2</ele>
        <time>2021-11-04T14:58:23Z</time>
      </trkpt>
      <trkpt lat="46.53071" lon="5.26412">
        <ele>183.4</ele>
        <time>2021-11-04T14:58:30Z</time>
      </trkpt>
      <trkpt lat="46.53023" lon="5.26383">
        <ele>183.6</ele>
        <time>2021-11-04T14:58:38Z</time>
      </trkpt>
      <trkpt lat="46.52974" lon="5.26354">
        <ele>184.2</ele>
        <time>2021-11-04T14:58:46Z</time>
      </trkpt>
      <trkpt lat="46.52925" lon="5.26326">
        <ele>184.8</ele>
        <time>2021-11-04T14:58:54Z</time>
      </trkpt>
      <trkpt lat="46.52881" lon="5.26306">
        <ele>185.2</ele>
        <time>2021-11-04T14:59:01Z</time>
      </trkpt>
      <trkpt lat="46.52875" lon="5.26305">
        <ele>185.2</ele>
        <time>2021-11-04T14:59:02Z</time>
      </trkpt>
      <trkpt lat="46.52842" lon="5.26307">
        <ele>185.6</ele>
        <time>2021-11-04T14:59:07Z</time>
      </trkpt>
      <trkpt lat="46.52808" lon="5.26307">
        <ele>185.6</ele>
        <time>2021-11-04T14:59:12Z</time>
      </trkpt>
      <trkpt lat="46.52796" lon="5.26305">
        <ele>185.8</ele>
        <time>2021-11-04T14:59:14Z</time>
      </trkpt>
      <trkpt lat="46.5274" lon="5.26281">
        <ele>185.8</ele>
        <time>2021-11-04T14:59:22Z</time>
      </trkpt>
      <trkpt lat="46.52692" lon="5.26259">
        <ele>185.4</ele>
        <time>2021-11-04T14:59:29Z</time>
      </trkpt>
      <trkpt lat="46.52684" lon="5.26256">
        <ele>185.2</ele>
        <time>2021-11-04T14:59:30Z</time>
      </trkpt>
      <trkpt lat="46.52637" lon="5.26229">
        <ele>184.6</ele>
        <time>2021-11-04T14:59:37Z</time>
      </trkpt>
      <trkpt lat="46.526" lon="5.26195">
        <ele>184</ele>
        <time>2021-11-04T14:59:43Z</time>
      </trkpt>
      <trkpt lat="46.52594" lon="5.26187">
        <ele>184</ele>
        <time>2021-11-04T14:59:44Z</time>
      </trkpt>
      <trkpt lat="46.52562" lon="5.26132">
        <ele>183.4</ele>
        <time>2021-11-04T14:59:51Z</time>
      </trkpt>
      <trkpt lat="46.52558" lon="5.26126">
        <ele>183.2</ele>
        <time>2021-11-04T14:59:52Z</time>
      </trkpt>
      <trkpt lat="46.52547" lon="5.26116">
        <ele>183.2</ele>
        <time>2021-11-04T14:59:54Z</time>
      </trkpt>
      <trkpt lat="46.52541" lon="5.26115">
        <ele>183</ele>
        <time>2021-11-04T14:59:55Z</time>
      </trkpt>
      <trkpt lat="46.5252" lon="5.26117">
        <ele>182.6</ele>
        <time>2021-11-04T14:59:58Z</time>
      </trkpt>
      <trkpt lat="46.52508" lon="5.26128">
        <ele>182.4</ele>
        <time>2021-11-04T15:00:00Z</time>
      </trkpt>
      <trkpt lat="46.52503" lon="5.26136">
        <ele>182.2</ele>
        <time>2021-11-04T15:00:01Z</time>
      </trkpt>
      <trkpt lat="46.52481" lon="5.26192">
        <ele>182.2</ele>
        <time>2021-11-04T15:00:07Z</time>
      </trkpt>
      <trkpt lat="46.5246" lon="5.26249">
        <ele>182</ele>
        <time>2021-11-04T15:00:13Z</time>
      </trkpt>
      <trkpt lat="46.5245" lon="5.26276">
        <ele>181.8</ele>
        <time>2021-11-04T15:00:16Z</time>
      </trkpt>
      <trkpt lat="46.52424" lon="5.2635">
        <ele>181.6</ele>
        <time>2021-11-04T15:00:24Z</time>
      </trkpt>
      <trkpt lat="46.52413" lon="5.26377">
        <ele>181.6</ele>
        <time>2021-11-04T15:00:27Z</time>
      </trkpt>
      <trkpt lat="46.52393" lon="5.26427">
        <ele>182</ele>
        <time>2021-11-04T15:00:33Z</time>
      </trkpt>
      <trkpt lat="46.52384" lon="5.26442">
        <ele>182.2</ele>
        <time>2021-11-04T15:00:35Z</time>
      </trkpt>
      <trkpt lat="46.52373" lon="5.26454">
        <ele>182.4</ele>
        <time>2021-11-04T15:00:37Z</time>
      </trkpt>
      <trkpt lat="46.5235" lon="5.26467">
        <ele>182.8</ele>
        <time>2021-11-04T15:00:41Z</time>
      </trkpt>
      <trkpt lat="46.52344" lon="5.26469">
        <ele>183</ele>
        <time>2021-11-04T15:00:42Z</time>
      </trkpt>
      <trkpt lat="46.52318" lon="5.26481">
        <ele>184</ele>
        <time>2021-11-04T15:00:47Z</time>
      </trkpt>
      <trkpt lat="46.52313" lon="5.26483">
        <ele>184.2</ele>
        <time>2021-11-04T15:00:48Z</time>
      </trkpt>
      <trkpt lat="46.52293" lon="5.26493">
        <ele>185.4</ele>
        <time>2021-11-04T15:00:52Z</time>
      </trkpt>
      <trkpt lat="46.52274" lon="5.26501">
        <ele>186.4</ele>
        <time>2021-11-04T15:00:56Z</time>
      </trkpt>
      <trkpt lat="46.5227" lon="5.26503">
        <ele>186.6</ele>
        <time>2021-11-04T15:00:57Z</time>
      </trkpt>
      <trkpt lat="46.52242" lon="5.26516">
        <ele>187.6</ele>
        <time>2021-11-04T15:01:03Z</time>
      </trkpt>
      <trkpt lat="46.52214" lon="5.26529">
        <ele>188.6</ele>
        <time>2021-11-04T15:01:09Z</time>
      </trkpt>
      <trkpt lat="46.52209" lon="5.26531">
        <ele>188.8</ele>
        <time>2021-11-04T15:01:10Z</time>
      </trkpt>
      <trkpt lat="46.52196" lon="5.2654">
        <ele>189.2</ele>
        <time>2021-11-04T15:01:13Z</time>
      </trkpt>
      <trkpt lat="46.52187" lon="5.26549">
        <ele>189.6</ele>
        <time>2021-11-04T15:01:15Z</time>
      </trkpt>
      <trkpt lat="46.52183" lon="5.26553">
        <ele>189.8</ele>
        <time>2021-11-04T15:01:16Z</time>
      </trkpt>
      <trkpt lat="46.52171" lon="5.26568">
        <ele>190.2</ele>
        <time>2021-11-04T15:01:19Z</time>
      </trkpt>
      <trkpt lat="46.52157" lon="5.26591">
        <ele>190.6</ele>
        <time>2021-11-04T15:01:24Z</time>
      </trkpt>
      <trkpt lat="46.52153" lon="5.26597">
        <ele>190.6</ele>
        <time>2021-11-04T15:01:25Z</time>
      </trkpt>
      <trkpt lat="46.52125" lon="5.26645">
        <ele>191</ele>
        <time>2021-11-04T15:01:33Z</time>
      </trkpt>
      <trkpt lat="46.52095" lon="5.26677">
        <ele>191.6</ele>
        <time>2021-11-04T15:01:40Z</time>
      </trkpt>
      <trkpt lat="46.52091" lon="5.2668">
        <ele>192</ele>
        <time>2021-11-04T15:01:41Z</time>
      </trkpt>
      <trkpt lat="46.52078" lon="5.26691">
        <ele>192.8</ele>
        <time>2021-11-04T15:01:44Z</time>
      </trkpt>
      <trkpt lat="46.52073" lon="5.26695">
        <ele>193</ele>
        <time>2021-11-04T15:01:45Z</time>
      </trkpt>
      <trkpt lat="46.52065" lon="5.26701">
        <ele>193.4</ele>
        <time>2021-11-04T15:01:47Z</time>
      </trkpt>
      <trkpt lat="46.52053" lon="5.26711">
        <ele>194.2</ele>
        <time>2021-11-04T15:01:50Z</time>
      </trkpt>
      <trkpt lat="46.52038" lon="5.26724">
        <ele>195.2</ele>
        <time>2021-11-04T15:01:54Z</time>
      </trkpt>
      <trkpt lat="46.52033" lon="5.26728">
        <ele>195.6</ele>
        <time>2021-11-04T15:01:55Z</time>
      </trkpt>
      <trkpt lat="46.52017" lon="5.26742">
        <ele>196.4</ele>
        <time>2021-11-04T15:01:59Z</time>
      </trkpt>
      <trkpt lat="46.52007" lon="5.26752">
        <ele>197</ele>
        <time>2021-11-04T15:02:02Z</time>
      </trkpt>
      <trkpt lat="46.51998" lon="5.26759">
        <ele>197.8</ele>
        <time>2021-11-04T15:02:04Z</time>
      </trkpt>
      <trkpt lat="46.51984" lon="5.26771">
        <ele>198.6</ele>
        <time>2021-11-04T15:02:08Z</time>
      </trkpt>
      <trkpt lat="46.51976" lon="5.26779">
        <ele>199</ele>
        <time>2021-11-04T15:02:10Z</time>
      </trkpt>
      <trkpt lat="46.51973" lon="5.26782">
        <ele>199.2</ele>
        <time>2021-11-04T15:02:11Z</time>
      </trkpt>
      <trkpt lat="46.51966" lon="5.26791">
        <ele>199.8</ele>
        <time>2021-11-04T15:02:13Z</time>
      </trkpt>
      <trkpt lat="46.5196" lon="5.26799">
        <ele>200.2</ele>
        <time>2021-11-04T15:02:15Z</time>
      </trkpt>
      <trkpt lat="46.51954" lon="5.26811">
        <ele>200.6</ele>
        <time>2021-11-04T15:02:17Z</time>
      </trkpt>
      <trkpt lat="46.51952" lon="5.26817">
        <ele>200.8</ele>
        <time>2021-11-04T15:02:18Z</time>
      </trkpt>
      <trkpt lat="46.5195" lon="5.2683">
        <ele>201.2</ele>
        <time>2021-11-04T15:02:20Z</time>
      </trkpt>
      <trkpt lat="46.5195" lon="5.2685">
        <ele>202</ele>
        <time>2021-11-04T15:02:23Z</time>
      </trkpt>
      <trkpt lat="46.51952" lon="5.26863">
        <ele>202.6</ele>
        <time>2021-11-04T15:02:25Z</time>
      </trkpt>
      <trkpt lat="46.51953" lon="5.26876">
        <ele>203.2</ele>
        <time>2021-11-04T15:02:27Z</time>
      </trkpt>
      <trkpt lat="46.51954" lon="5.26883">
        <ele>203.4</ele>
        <time>2021-11-04T15:02:28Z</time>
      </trkpt>
      <trkpt lat="46.51957" lon="5.26889">
        <ele>203.8</ele>
        <time>2021-11-04T15:02:29Z</time>
      </trkpt>
      <trkpt lat="46.51964" lon="5.26911">
        <ele>204.8</ele>
        <time>2021-11-04T15:02:33Z</time>
      </trkpt>
      <trkpt lat="46.51973" lon="5.26943">
        <ele>205.8</ele>
        <time>2021-11-04T15:02:38Z</time>
      </trkpt>
      <trkpt lat="46.51975" lon="5.26951">
        <ele>206</ele>
        <time>2021-11-04T15:02:39Z</time>
      </trkpt>
      <trkpt lat="46.51985" lon="5.27013">
        <ele>206.2</ele>
        <time>2021-11-04T15:02:46Z</time>
      </trkpt>
      <trkpt lat="46.5199" lon="5.27073">
        <ele>205</ele>
        <time>2021-11-04T15:02:52Z</time>
      </trkpt>
      <trkpt lat="46.51992" lon="5.27095">
        <ele>204.6</ele>
        <time>2021-11-04T15:02:54Z</time>
      </trkpt>
      <trkpt lat="46.52" lon="5.27148">
        <ele>203.6</ele>
        <time>2021-11-04T15:02:59Z</time>
      </trkpt>
      <trkpt lat="46.52003" lon="5.27159">
        <ele>203.2</ele>
        <time>2021-11-04T15:03:00Z</time>
      </trkpt>
      <trkpt lat="46.52005" lon="5.2717">
        <ele>202.6</ele>
        <time>2021-11-04T15:03:01Z</time>
      </trkpt>
      <trkpt lat="46.52016" lon="5.27214">
        <ele>201.6</ele>
        <time>2021-11-04T15:03:05Z</time>
      </trkpt>
      <trkpt lat="46.52023" lon="5.27235">
        <ele>201</ele>
        <time>2021-11-04T15:03:07Z</time>
      </trkpt>
      <trkpt lat="46.52027" lon="5.27246">
        <ele>200.4</ele>
        <time>2021-11-04T15:03:08Z</time>
      </trkpt>
      <trkpt lat="46.52038" lon="5.27264">
        <ele>199.6</ele>
        <time>2021-11-04T15:03:10Z</time>
      </trkpt>
      <trkpt lat="46.52045" lon="5.27272">
        <ele>199.4</ele>
        <time>2021-11-04T15:03:11Z</time>
      </trkpt>
      <trkpt lat="46.52052" lon="5.27279">
        <ele>198.8</ele>
        <time>2021-11-04T15:03:12Z</time>
      </trkpt>
      <trkpt lat="46.52068" lon="5.27291">
        <ele>198.2</ele>
        <time>2021-11-04T15:03:14Z</time>
      </trkpt>
      <trkpt lat="46.52076" lon="5.27295">
        <ele>197.6</ele>
        <time>2021-11-04T15:03:15Z</time>
      </trkpt>
      <trkpt lat="46.52095" lon="5.27305">
        <ele>196.8</ele>
        <time>2021-11-04T15:03:17Z</time>
      </trkpt>
      <trkpt lat="46.5211" lon="5.2732">
        <ele>196</ele>
        <time>2021-11-04T15:03:19Z</time>
      </trkpt>
      <trkpt lat="46.52121" lon="5.27341">
        <ele>195.4</ele>
        <time>2021-11-04T15:03:21Z</time>
      </trkpt>
      <trkpt lat="46.52123" lon="5.27354">
        <ele>195.2</ele>
        <time>2021-11-04T15:03:22Z</time>
      </trkpt>
      <trkpt lat="46.52124" lon="5.27368">
        <ele>194.6</ele>
        <time>2021-11-04T15:03:23Z</time>
      </trkpt>
      <trkpt lat="46.52123" lon="5.27382">
        <ele>194</ele>
        <time>2021-11-04T15:03:24Z</time>
      </trkpt>
      <trkpt lat="46.52121" lon="5.27396">
        <ele>193.8</ele>
        <time>2021-11-04T15:03:25Z</time>
      </trkpt>
      <trkpt lat="46.52113" lon="5.27422">
        <ele>193</ele>
        <time>2021-11-04T15:03:27Z</time>
      </trkpt>
      <trkpt lat="46.52108" lon="5.27434">
        <ele>192.4</ele>
        <time>2021-11-04T15:03:28Z</time>
      </trkpt>
      <trkpt lat="46.52088" lon="5.27466">
        <ele>191</ele>
        <time>2021-11-04T15:03:31Z</time>
      </trkpt>
      <trkpt lat="46.52081" lon="5.27475">
        <ele>190.6</ele>
        <time>2021-11-04T15:03:32Z</time>
      </trkpt>
      <trkpt lat="46.52073" lon="5.27485">
        <ele>190</ele>
        <time>2021-11-04T15:03:33Z</time>
      </trkpt>
      <trkpt lat="46.52051" lon="5.27513">
        <ele>188.6</ele>
        <time>2021-11-04T15:03:36Z</time>
      </trkpt>
      <trkpt lat="46.52029" lon="5.27541">
        <ele>187.4</ele>
        <time>2021-11-04T15:03:39Z</time>
      </trkpt>
      <trkpt lat="46.52008" lon="5.27567">
        <ele>186</ele>
        <time>2021-11-04T15:03:42Z</time>
      </trkpt>
      <trkpt lat="46.51976" lon="5.27611">
        <ele>185</ele>
        <time>2021-11-04T15:03:47Z</time>
      </trkpt>
      <trkpt lat="46.51964" lon="5.27627">
        <ele>184.6</ele>
        <time>2021-11-04T15:03:49Z</time>
      </trkpt>
      <trkpt lat="46.51931" lon="5.27668">
        <ele>184.6</ele>
        <time>2021-11-04T15:03:55Z</time>
      </trkpt>
      <trkpt lat="46.51902" lon="5.277">
        <ele>186</ele>
        <time>2021-11-04T15:04:01Z</time>
      </trkpt>
      <trkpt lat="46.51885" lon="5.27718">
        <ele>187.2</ele>
        <time>2021-11-04T15:04:05Z</time>
      </trkpt>
      <trkpt lat="46.51869" lon="5.27735">
        <ele>188.2</ele>
        <time>2021-11-04T15:04:09Z</time>
      </trkpt>
      <trkpt lat="46.51865" lon="5.27739">
        <ele>188.2</ele>
        <time>2021-11-04T15:04:10Z</time>
      </trkpt>
      <trkpt lat="46.51847" lon="5.27756">
        <ele>189.6</ele>
        <time>2021-11-04T15:04:14Z</time>
      </trkpt>
      <trkpt lat="46.51842" lon="5.2776">
        <ele>189.6</ele>
        <time>2021-11-04T15:04:15Z</time>
      </trkpt>
      <trkpt lat="46.51826" lon="5.27777">
        <ele>190.4</ele>
        <time>2021-11-04T15:04:19Z</time>
      </trkpt>
      <trkpt lat="46.51822" lon="5.2778">
        <ele>190.8</ele>
        <time>2021-11-04T15:04:20Z</time>
      </trkpt>
      <trkpt lat="46.51815" lon="5.27787">
        <ele>191.2</ele>
        <time>2021-11-04T15:04:22Z</time>
      </trkpt>
      <trkpt lat="46.51796" lon="5.27806">
        <ele>192</ele>
        <time>2021-11-04T15:04:27Z</time>
      </trkpt>
      <trkpt lat="46.51789" lon="5.27814">
        <ele>192.6</ele>
        <time>2021-11-04T15:04:29Z</time>
      </trkpt>
      <trkpt lat="46.51782" lon="5.27823">
        <ele>192.8</ele>
        <time>2021-11-04T15:04:31Z</time>
      </trkpt>
      <trkpt lat="46.51778" lon="5.27827">
        <ele>193.4</ele>
        <time>2021-11-04T15:04:32Z</time>
      </trkpt>
      <trkpt lat="46.51755" lon="5.27851">
        <ele>194.6</ele>
        <time>2021-11-04T15:04:38Z</time>
      </trkpt>
      <trkpt lat="46.51739" lon="5.27867">
        <ele>195.4</ele>
        <time>2021-11-04T15:04:42Z</time>
      </trkpt>
      <trkpt lat="46.51735" lon="5.2787">
        <ele>195.6</ele>
        <time>2021-11-04T15:04:43Z</time>
      </trkpt>
      <trkpt lat="46.51716" lon="5.27889">
        <ele>196.6</ele>
        <time>2021-11-04T15:04:48Z</time>
      </trkpt>
      <trkpt lat="46.51693" lon="5.27912">
        <ele>197.4</ele>
        <time>2021-11-04T15:04:54Z</time>
      </trkpt>
      <trkpt lat="46.51684" lon="5.27921">
        <ele>197.6</ele>
        <time>2021-11-04T15:04:56Z</time>
      </trkpt>
      <trkpt lat="46.51659" lon="5.27947">
        <ele>198.6</ele>
        <time>2021-11-04T15:05:02Z</time>
      </trkpt>
      <trkpt lat="46.51655" lon="5.27951">
        <ele>198.6</ele>
        <time>2021-11-04T15:05:03Z</time>
      </trkpt>
      <trkpt lat="46.51614" lon="5.27996">
        <ele>199.6</ele>
        <time>2021-11-04T15:05:13Z</time>
      </trkpt>
      <trkpt lat="46.51594" lon="5.2803">
        <ele>199.6</ele>
        <time>2021-11-04T15:05:18Z</time>
      </trkpt>
      <trkpt lat="46.51575" lon="5.28087">
        <ele>198.6</ele>
        <time>2021-11-04T15:05:24Z</time>
      </trkpt>
      <trkpt lat="46.51562" lon="5.2813">
        <ele>197.6</ele>
        <time>2021-11-04T15:05:28Z</time>
      </trkpt>
      <trkpt lat="46.51552" lon="5.28163">
        <ele>196.4</ele>
        <time>2021-11-04T15:05:31Z</time>
      </trkpt>
      <trkpt lat="46.51541" lon="5.28197">
        <ele>195.4</ele>
        <time>2021-11-04T15:05:34Z</time>
      </trkpt>
      <trkpt lat="46.51522" lon="5.2824">
        <ele>194</ele>
        <time>2021-11-04T15:05:38Z</time>
      </trkpt>
      <trkpt lat="46.51502" lon="5.28281">
        <ele>192.6</ele>
        <time>2021-11-04T15:05:42Z</time>
      </trkpt>
      <trkpt lat="46.51485" lon="5.28316">
        <ele>191.4</ele>
        <time>2021-11-04T15:05:45Z</time>
      </trkpt>
      <trkpt lat="46.51463" lon="5.28358">
        <ele>190</ele>
        <time>2021-11-04T15:05:49Z</time>
      </trkpt>
      <trkpt lat="46.51446" lon="5.28392">
        <ele>188.4</ele>
        <time>2021-11-04T15:05:52Z</time>
      </trkpt>
      <trkpt lat="46.51428" lon="5.28428">
        <ele>187.2</ele>
        <time>2021-11-04T15:05:55Z</time>
      </trkpt>
      <trkpt lat="46.51423" lon="5.28439">
        <ele>186.4</ele>
        <time>2021-11-04T15:05:56Z</time>
      </trkpt>
      <trkpt lat="46.51419" lon="5.28452">
        <ele>185.8</ele>
        <time>2021-11-04T15:05:57Z</time>
      </trkpt>
      <trkpt lat="46.51417" lon="5.28465">
        <ele>185.6</ele>
        <time>2021-11-04T15:05:58Z</time>
      </trkpt>
      <trkpt lat="46.5142" lon="5.28503">
        <ele>184.4</ele>
        <time>2021-11-04T15:06:01Z</time>
      </trkpt>
      <trkpt lat="46.51444" lon="5.28575">
        <ele>183.4</ele>
        <time>2021-11-04T15:06:07Z</time>
      </trkpt>
      <trkpt lat="46.51448" lon="5.28587">
        <ele>183.2</ele>
        <time>2021-11-04T15:06:08Z</time>
      </trkpt>
      <trkpt lat="46.51476" lon="5.28668">
        <ele>182.6</ele>
        <time>2021-11-04T15:06:15Z</time>
      </trkpt>
      <trkpt lat="46.51483" lon="5.2869">
        <ele>182.6</ele>
        <time>2021-11-04T15:06:17Z</time>
      </trkpt>
      <trkpt lat="46.51501" lon="5.28753">
        <ele>182.6</ele>
        <time>2021-11-04T15:06:23Z</time>
      </trkpt>
      <trkpt lat="46.51506" lon="5.28807">
        <ele>182.8</ele>
        <time>2021-11-04T15:06:28Z</time>
      </trkpt>
      <trkpt lat="46.51506" lon="5.28821">
        <ele>182.8</ele>
        <time>2021-11-04T15:06:29Z</time>
      </trkpt>
      <trkpt lat="46.51502" lon="5.28853">
        <ele>182.8</ele>
        <time>2021-11-04T15:06:32Z</time>
      </trkpt>
      <trkpt lat="46.51488" lon="5.28931">
        <ele>182.6</ele>
        <time>2021-11-04T15:06:39Z</time>
      </trkpt>
      <trkpt lat="46.51483" lon="5.2896">
        <ele>182.6</ele>
        <time>2021-11-04T15:06:42Z</time>
      </trkpt>
      <trkpt lat="46.5147" lon="5.29038">
        <ele>183.4</ele>
        <time>2021-11-04T15:06:50Z</time>
      </trkpt>
      <trkpt lat="46.51469" lon="5.29046">
        <ele>183.4</ele>
        <time>2021-11-04T15:06:51Z</time>
      </trkpt>
      <trkpt lat="46.51455" lon="5.29122">
        <ele>184.2</ele>
        <time>2021-11-04T15:06:59Z</time>
      </trkpt>
      <trkpt lat="46.51454" lon="5.29131">
        <ele>184.4</ele>
        <time>2021-11-04T15:07:00Z</time>
      </trkpt>
      <trkpt lat="46.51443" lon="5.29184">
        <ele>185.2</ele>
        <time>2021-11-04T15:07:06Z</time>
      </trkpt>
      <trkpt lat="46.51435" lon="5.29211">
        <ele>185.4</ele>
        <time>2021-11-04T15:07:09Z</time>
      </trkpt>
      <trkpt lat="46.51427" lon="5.29226">
        <ele>185.4</ele>
        <time>2021-11-04T15:07:11Z</time>
      </trkpt>
      <trkpt lat="46.51413" lon="5.29246">
        <ele>185.6</ele>
        <time>2021-11-04T15:07:14Z</time>
      </trkpt>
      <trkpt lat="46.51378" lon="5.29306">
        <ele>185.6</ele>
        <time>2021-11-04T15:07:22Z</time>
      </trkpt>
      <trkpt lat="46.51354" lon="5.29341">
        <ele>185.4</ele>
        <time>2021-11-04T15:07:27Z</time>
      </trkpt>
      <trkpt lat="46.51321" lon="5.29363">
        <ele>185</ele>
        <time>2021-11-04T15:07:32Z</time>
      </trkpt>
      <trkpt lat="46.51275" lon="5.29388">
        <ele>184.6</ele>
        <time>2021-11-04T15:07:39Z</time>
      </trkpt>
      <trkpt lat="46.51237" lon="5.29399">
        <ele>184.4</ele>
        <time>2021-11-04T15:07:45Z</time>
      </trkpt>
      <trkpt lat="46.51192" lon="5.29409">
        <ele>184.8</ele>
        <time>2021-11-04T15:07:52Z</time>
      </trkpt>
      <trkpt lat="46.51141" lon="5.29424">
        <ele>185.8</ele>
        <time>2021-11-04T15:08:01Z</time>
      </trkpt>
      <trkpt lat="46.51104" lon="5.29435">
        <ele>186.2</ele>
        <time>2021-11-04T15:08:07Z</time>
      </trkpt>
      <trkpt lat="46.51074" lon="5.29445">
        <ele>186.4</ele>
        <time>2021-11-04T15:08:12Z</time>
      </trkpt>
      <trkpt lat="46.51036" lon="5.29468">
        <ele>186.8</ele>
        <time>2021-11-04T15:08:19Z</time>
      </trkpt>
      <trkpt lat="46.51026" lon="5.29475">
        <ele>187.2</ele>
        <time>2021-11-04T15:08:21Z</time>
      </trkpt>
      <trkpt lat="46.51008" lon="5.29489">
        <ele>188.2</ele>
        <time>2021-11-04T15:08:25Z</time>
      </trkpt>
      <trkpt lat="46.51" lon="5.29495">
        <ele>188.6</ele>
        <time>2021-11-04T15:08:27Z</time>
      </trkpt>
      <trkpt lat="46.5098" lon="5.29511">
        <ele>189.2</ele>
        <time>2021-11-04T15:08:32Z</time>
      </trkpt>
      <trkpt lat="46.50973" lon="5.29517">
        <ele>189.6</ele>
        <time>2021-11-04T15:08:34Z</time>
      </trkpt>
      <trkpt lat="46.50961" lon="5.29526">
        <ele>190.4</ele>
        <time>2021-11-04T15:08:37Z</time>
      </trkpt>
      <trkpt lat="46.50947" lon="5.29537">
        <ele>191.6</ele>
        <time>2021-11-04T15:08:41Z</time>
      </trkpt>
      <trkpt lat="46.50944" lon="5.2954">
        <ele>192</ele>
        <time>2021-11-04T15:08:42Z</time>
      </trkpt>
      <trkpt lat="46.50935" lon="5.29548">
        <ele>192.8</ele>
        <time>2021-11-04T15:08:45Z</time>
      </trkpt>
      <trkpt lat="46.5092" lon="5.29558">
        <ele>193.8</ele>
        <time>2021-11-04T15:08:49Z</time>
      </trkpt>
      <trkpt lat="46.50917" lon="5.2956">
        <ele>194.2</ele>
        <time>2021-11-04T15:08:50Z</time>
      </trkpt>
      <trkpt lat="46.50907" lon="5.29566">
        <ele>194.8</ele>
        <time>2021-11-04T15:08:53Z</time>
      </trkpt>
      <trkpt lat="46.50892" lon="5.29572">
        <ele>196</ele>
        <time>2021-11-04T15:08:57Z</time>
      </trkpt>
      <trkpt lat="46.50889" lon="5.29572">
        <ele>196.2</ele>
        <time>2021-11-04T15:08:58Z</time>
      </trkpt>
      <trkpt lat="46.50878" lon="5.29572">
        <ele>197.2</ele>
        <time>2021-11-04T15:09:01Z</time>
      </trkpt>
      <trkpt lat="46.50864" lon="5.29571">
        <ele>198.2</ele>
        <time>2021-11-04T15:09:05Z</time>
      </trkpt>
      <trkpt lat="46.5086" lon="5.29571">
        <ele>198.4</ele>
        <time>2021-11-04T15:09:06Z</time>
      </trkpt>
      <trkpt lat="46.50849" lon="5.2957">
        <ele>199.4</ele>
        <time>2021-11-04T15:09:09Z</time>
      </trkpt>
      <trkpt lat="46.50825" lon="5.29567">
        <ele>200.6</ele>
        <time>2021-11-04T15:09:15Z</time>
      </trkpt>
      <trkpt lat="46.50817" lon="5.29566">
        <ele>201</ele>
        <time>2021-11-04T15:09:17Z</time>
      </trkpt>
      <trkpt lat="46.50799" lon="5.29565">
        <ele>201.8</ele>
        <time>2021-11-04T15:09:22Z</time>
      </trkpt>
      <trkpt lat="46.50773" lon="5.29564">
        <ele>203</ele>
        <time>2021-11-04T15:09:29Z</time>
      </trkpt>
      <trkpt lat="46.5075" lon="5.29559">
        <ele>204.2</ele>
        <time>2021-11-04T15:09:35Z</time>
      </trkpt>
      <trkpt lat="46.50735" lon="5.29554">
        <ele>205</ele>
        <time>2021-11-04T15:09:39Z</time>
      </trkpt>
      <trkpt lat="46.50731" lon="5.29552">
        <ele>205.4</ele>
        <time>2021-11-04T15:09:40Z</time>
      </trkpt>
      <trkpt lat="46.50707" lon="5.29541">
        <ele>206.4</ele>
        <time>2021-11-04T15:09:46Z</time>
      </trkpt>
      <trkpt lat="46.50703" lon="5.29539">
        <ele>206.8</ele>
        <time>2021-11-04T15:09:47Z</time>
      </trkpt>
      <trkpt lat="46.50683" lon="5.29529">
        <ele>207.6</ele>
        <time>2021-11-04T15:09:52Z</time>
      </trkpt>
      <trkpt lat="46.50662" lon="5.29523">
        <ele>208.2</ele>
        <time>2021-11-04T15:09:57Z</time>
      </trkpt>
      <trkpt lat="46.50648" lon="5.29524">
        <ele>208.6</ele>
        <time>2021-11-04T15:10:00Z</time>
      </trkpt>
      <trkpt lat="46.50639" lon="5.29527">
        <ele>209</ele>
        <time>2021-11-04T15:10:02Z</time>
      </trkpt>
      <trkpt lat="46.50634" lon="5.29529">
        <ele>209.2</ele>
        <time>2021-11-04T15:10:03Z</time>
      </trkpt>
      <trkpt lat="46.50621" lon="5.29539">
        <ele>209.6</ele>
        <time>2021-11-04T15:10:06Z</time>
      </trkpt>
      <trkpt lat="46.50603" lon="5.29554">
        <ele>210.2</ele>
        <time>2021-11-04T15:10:10Z</time>
      </trkpt>
      <trkpt lat="46.50568" lon="5.2958">
        <ele>210.4</ele>
        <time>2021-11-04T15:10:17Z</time>
      </trkpt>
      <trkpt lat="46.50533" lon="5.29607">
        <ele>210.6</ele>
        <time>2021-11-04T15:10:24Z</time>
      </trkpt>
      <trkpt lat="46.50518" lon="5.29618">
        <ele>210.6</ele>
        <time>2021-11-04T15:10:27Z</time>
      </trkpt>
      <trkpt lat="46.50466" lon="5.29655">
        <ele>211</ele>
        <time>2021-11-04T15:10:37Z</time>
      </trkpt>
      <trkpt lat="46.50418" lon="5.29687">
        <ele>211</ele>
        <time>2021-11-04T15:10:46Z</time>
      </trkpt>
      <trkpt lat="46.50369" lon="5.29717">
        <ele>210.8</ele>
        <time>2021-11-04T15:10:55Z</time>
      </trkpt>
      <trkpt lat="46.50314" lon="5.29741">
        <ele>211.2</ele>
        <time>2021-11-04T15:11:04Z</time>
      </trkpt>
      <trkpt lat="46.50302" lon="5.29746">
        <ele>211.2</ele>
        <time>2021-11-04T15:11:06Z</time>
      </trkpt>
      <trkpt lat="46.50255" lon="5.29765">
        <ele>210.4</ele>
        <time>2021-11-04T15:11:13Z</time>
      </trkpt>
      <trkpt lat="46.50213" lon="5.2977">
        <ele>210</ele>
        <time>2021-11-04T15:11:19Z</time>
      </trkpt>
      <trkpt lat="46.50159" lon="5.29769">
        <ele>209.6</ele>
        <time>2021-11-04T15:11:27Z</time>
      </trkpt>
      <trkpt lat="46.50152" lon="5.29771">
        <ele>209.6</ele>
        <time>2021-11-04T15:11:28Z</time>
      </trkpt>
      <trkpt lat="46.50105" lon="5.29783">
        <ele>208.6</ele>
        <time>2021-11-04T15:11:34Z</time>
      </trkpt>
      <trkpt lat="46.50098" lon="5.29786">
        <ele>208.4</ele>
        <time>2021-11-04T15:11:35Z</time>
      </trkpt>
      <trkpt lat="46.50075" lon="5.29794">
        <ele>207.6</ele>
        <time>2021-11-04T15:11:38Z</time>
      </trkpt>
      <trkpt lat="46.50053" lon="5.29807">
        <ele>206.2</ele>
        <time>2021-11-04T15:11:41Z</time>
      </trkpt>
      <trkpt lat="46.50046" lon="5.29813">
        <ele>206</ele>
        <time>2021-11-04T15:11:42Z</time>
      </trkpt>
      <trkpt lat="46.50029" lon="5.29835">
        <ele>204.8</ele>
        <time>2021-11-04T15:11:45Z</time>
      </trkpt>
      <trkpt lat="46.50018" lon="5.2985">
        <ele>204.4</ele>
        <time>2021-11-04T15:11:47Z</time>
      </trkpt>
      <trkpt lat="46.50005" lon="5.29857">
        <ele>204.2</ele>
        <time>2021-11-04T15:11:49Z</time>
      </trkpt>
      <trkpt lat="46.49972" lon="5.29854">
        <ele>203.8</ele>
        <time>2021-11-04T15:11:54Z</time>
      </trkpt>
      <trkpt lat="46.49931" lon="5.29843">
        <ele>204</ele>
        <time>2021-11-04T15:12:00Z</time>
      </trkpt>
      <trkpt lat="46.4989" lon="5.29829">
        <ele>205</ele>
        <time>2021-11-04T15:12:07Z</time>
      </trkpt>
      <trkpt lat="46.49862" lon="5.29815">
        <ele>205.8</ele>
        <time>2021-11-04T15:12:12Z</time>
      </trkpt>
      <trkpt lat="46.49851" lon="5.29811">
        <ele>206.4</ele>
        <time>2021-11-04T15:12:14Z</time>
      </trkpt>
      <trkpt lat="46.4984" lon="5.29807">
        <ele>206.8</ele>
        <time>2021-11-04T15:12:16Z</time>
      </trkpt>
      <trkpt lat="46.49795" lon="5.2979">
        <ele>207.8</ele>
        <time>2021-11-04T15:12:24Z</time>
      </trkpt>
      <trkpt lat="46.49785" lon="5.29788">
        <ele>208</ele>
        <time>2021-11-04T15:12:26Z</time>
      </trkpt>
      <trkpt lat="46.49766" lon="5.29787">
        <ele>208</ele>
        <time>2021-11-04T15:12:29Z</time>
      </trkpt>
      <trkpt lat="46.49755" lon="5.29786">
        <ele>208</ele>
        <time>2021-11-04T15:12:31Z</time>
      </trkpt>
      <trkpt lat="46.49744" lon="5.29791">
        <ele>208</ele>
        <time>2021-11-04T15:12:33Z</time>
      </trkpt>
      <trkpt lat="46.49718" lon="5.2982">
        <ele>208.2</ele>
        <time>2021-11-04T15:12:38Z</time>
      </trkpt>
      <trkpt lat="46.49702" lon="5.29847">
        <ele>208</ele>
        <time>2021-11-04T15:12:42Z</time>
      </trkpt>
      <trkpt lat="46.49695" lon="5.29864">
        <ele>208</ele>
        <time>2021-11-04T15:12:44Z</time>
      </trkpt>
      <trkpt lat="46.49682" lon="5.29916">
        <ele>207.4</ele>
        <time>2021-11-04T15:12:49Z</time>
      </trkpt>
      <trkpt lat="46.49675" lon="5.29949">
        <ele>206.6</ele>
        <time>2021-11-04T15:12:52Z</time>
      </trkpt>
      <trkpt lat="46.49663" lon="5.30003">
        <ele>205.6</ele>
        <time>2021-11-04T15:12:57Z</time>
      </trkpt>
      <trkpt lat="46.49652" lon="5.30046">
        <ele>205.8</ele>
        <time>2021-11-04T15:13:02Z</time>
      </trkpt>
      <trkpt lat="46.49641" lon="5.30074">
        <ele>206.6</ele>
        <time>2021-11-04T15:13:06Z</time>
      </trkpt>
      <trkpt lat="46.49637" lon="5.30079">
        <ele>206.6</ele>
        <time>2021-11-04T15:13:07Z</time>
      </trkpt>
      <trkpt lat="46.49632" lon="5.30086">
        <ele>207.2</ele>
        <time>2021-11-04T15:13:08Z</time>
      </trkpt>
      <trkpt lat="46.49624" lon="5.30094">
        <ele>207.8</ele>
        <time>2021-11-04T15:13:10Z</time>
      </trkpt>
      <trkpt lat="46.49616" lon="5.30103">
        <ele>208.4</ele>
        <time>2021-11-04T15:13:12Z</time>
      </trkpt>
      <trkpt lat="46.49608" lon="5.30112">
        <ele>209</ele>
        <time>2021-11-04T15:13:14Z</time>
      </trkpt>
      <trkpt lat="46.49594" lon="5.30125">
        <ele>209.8</ele>
        <time>2021-11-04T15:13:17Z</time>
      </trkpt>
      <trkpt lat="46.49589" lon="5.3013">
        <ele>210</ele>
        <time>2021-11-04T15:13:18Z</time>
      </trkpt>
      <trkpt lat="46.49571" lon="5.30144">
        <ele>210</ele>
        <time>2021-11-04T15:13:21Z</time>
      </trkpt>
      <trkpt lat="46.49529" lon="5.30177">
        <ele>209.6</ele>
        <time>2021-11-04T15:13:28Z</time>
      </trkpt>
      <trkpt lat="46.49508" lon="5.30205">
        <ele>209.4</ele>
        <time>2021-11-04T15:13:32Z</time>
      </trkpt>
      <trkpt lat="46.49505" lon="5.30211">
        <ele>209.2</ele>
        <time>2021-11-04T15:13:33Z</time>
      </trkpt>
      <trkpt lat="46.49481" lon="5.30261">
        <ele>209.6</ele>
        <time>2021-11-04T15:13:40Z</time>
      </trkpt>
      <trkpt lat="46.49478" lon="5.30266">
        <ele>209.8</ele>
        <time>2021-11-04T15:13:41Z</time>
      </trkpt>
      <trkpt lat="46.49462" lon="5.30287">
        <ele>210.6</ele>
        <time>2021-11-04T15:13:45Z</time>
      </trkpt>
      <trkpt lat="46.49452" lon="5.30296">
        <ele>211</ele>
        <time>2021-11-04T15:13:47Z</time>
      </trkpt>
      <trkpt lat="46.49432" lon="5.3031">
        <ele>211.6</ele>
        <time>2021-11-04T15:13:51Z</time>
      </trkpt>
      <trkpt lat="46.49416" lon="5.30318">
        <ele>212</ele>
        <time>2021-11-04T15:13:54Z</time>
      </trkpt>
      <trkpt lat="46.49383" lon="5.30331">
        <ele>212.6</ele>
        <time>2021-11-04T15:14:00Z</time>
      </trkpt>
      <trkpt lat="46.49332" lon="5.30352">
        <ele>213.2</ele>
        <time>2021-11-04T15:14:09Z</time>
      </trkpt>
      <trkpt lat="46.4932" lon="5.30356">
        <ele>213.2</ele>
        <time>2021-11-04T15:14:11Z</time>
      </trkpt>
      <trkpt lat="46.49264" lon="5.30379">
        <ele>213.6</ele>
        <time>2021-11-04T15:14:21Z</time>
      </trkpt>
      <trkpt lat="46.49252" lon="5.30384">
        <ele>213.8</ele>
        <time>2021-11-04T15:14:23Z</time>
      </trkpt>
      <trkpt lat="46.492" lon="5.30405">
        <ele>214</ele>
        <time>2021-11-04T15:14:32Z</time>
      </trkpt>
      <trkpt lat="46.49194" lon="5.30407">
        <ele>214</ele>
        <time>2021-11-04T15:14:33Z</time>
      </trkpt>
      <trkpt lat="46.49171" lon="5.30416">
        <ele>214.2</ele>
        <time>2021-11-04T15:14:37Z</time>
      </trkpt>
      <trkpt lat="46.49135" lon="5.30431">
        <ele>214.4</ele>
        <time>2021-11-04T15:14:43Z</time>
      </trkpt>
      <trkpt lat="46.49079" lon="5.30454">
        <ele>214.6</ele>
        <time>2021-11-04T15:14:52Z</time>
      </trkpt>
      <trkpt lat="46.49073" lon="5.30457">
        <ele>214.6</ele>
        <time>2021-11-04T15:14:53Z</time>
      </trkpt>
      <trkpt lat="46.49015" lon="5.3048">
        <ele>215</ele>
        <time>2021-11-04T15:15:02Z</time>
      </trkpt>
      <trkpt lat="46.48989" lon="5.30491">
        <ele>215.2</ele>
        <time>2021-11-04T15:15:06Z</time>
      </trkpt>
      <trkpt lat="46.48944" lon="5.30508">
        <ele>215.6</ele>
        <time>2021-11-04T15:15:13Z</time>
      </trkpt>
      <trkpt lat="46.48891" lon="5.3053">
        <ele>215.6</ele>
        <time>2021-11-04T15:15:21Z</time>
      </trkpt>
      <trkpt lat="46.48878" lon="5.30534">
        <ele>215.6</ele>
        <time>2021-11-04T15:15:23Z</time>
      </trkpt>
      <trkpt lat="46.48836" lon="5.30537">
        <ele>215.8</ele>
        <time>2021-11-04T15:15:29Z</time>
      </trkpt>
      <trkpt lat="46.48782" lon="5.30527">
        <ele>216</ele>
        <time>2021-11-04T15:15:37Z</time>
      </trkpt>
      <trkpt lat="46.48744" lon="5.30509">
        <ele>215.8</ele>
        <time>2021-11-04T15:15:43Z</time>
      </trkpt>
      <trkpt lat="46.48698" lon="5.30495">
        <ele>215.6</ele>
        <time>2021-11-04T15:15:50Z</time>
      </trkpt>
      <trkpt lat="46.48691" lon="5.30495">
        <ele>215.6</ele>
        <time>2021-11-04T15:15:51Z</time>
      </trkpt>
      <trkpt lat="46.48656" lon="5.30498">
        <ele>215.4</ele>
        <time>2021-11-04T15:15:56Z</time>
      </trkpt>
      <trkpt lat="46.4861" lon="5.30491">
        <ele>215.6</ele>
        <time>2021-11-04T15:16:03Z</time>
      </trkpt>
      <trkpt lat="46.48572" lon="5.30487">
        <ele>215.8</ele>
        <time>2021-11-04T15:16:09Z</time>
      </trkpt>
      <trkpt lat="46.48561" lon="5.30496">
        <ele>216</ele>
        <time>2021-11-04T15:16:11Z</time>
      </trkpt>
      <trkpt lat="46.48557" lon="5.30503">
        <ele>216</ele>
        <time>2021-11-04T15:16:12Z</time>
      </trkpt>
      <trkpt lat="46.48556" lon="5.30512">
        <ele>216.2</ele>
        <time>2021-11-04T15:16:13Z</time>
      </trkpt>
      <trkpt lat="46.48554" lon="5.30542">
        <ele>216</ele>
        <time>2021-11-04T15:16:16Z</time>
      </trkpt>
      <trkpt lat="46.48545" lon="5.30616">
        <ele>215.6</ele>
        <time>2021-11-04T15:16:23Z</time>
      </trkpt>
      <trkpt lat="46.4854" lon="5.30663">
        <ele>214.4</ele>
        <time>2021-11-04T15:16:27Z</time>
      </trkpt>
      <trkpt lat="46.4854" lon="5.30675">
        <ele>214.2</ele>
        <time>2021-11-04T15:16:28Z</time>
      </trkpt>
      <trkpt lat="46.48542" lon="5.30687">
        <ele>213.8</ele>
        <time>2021-11-04T15:16:29Z</time>
      </trkpt>
      <trkpt lat="46.48546" lon="5.30712">
        <ele>213.2</ele>
        <time>2021-11-04T15:16:31Z</time>
      </trkpt>
      <trkpt lat="46.4855" lon="5.30723">
        <ele>213</ele>
        <time>2021-11-04T15:16:32Z</time>
      </trkpt>
      <trkpt lat="46.48555" lon="5.30734">
        <ele>212.4</ele>
        <time>2021-11-04T15:16:33Z</time>
      </trkpt>
      <trkpt lat="46.48567" lon="5.30752">
        <ele>212</ele>
        <time>2021-11-04T15:16:35Z</time>
      </trkpt>
      <trkpt lat="46.48574" lon="5.3076">
        <ele>211.6</ele>
        <time>2021-11-04T15:16:36Z</time>
      </trkpt>
      <trkpt lat="46.48582" lon="5.30767">
        <ele>211.2</ele>
        <time>2021-11-04T15:16:37Z</time>
      </trkpt>
      <trkpt lat="46.48589" lon="5.30774">
        <ele>210.6</ele>
        <time>2021-11-04T15:16:38Z</time>
      </trkpt>
      <trkpt lat="46.48622" lon="5.308">
        <ele>209.4</ele>
        <time>2021-11-04T15:16:42Z</time>
      </trkpt>
      <trkpt lat="46.48638" lon="5.3081">
        <ele>208.8</ele>
        <time>2021-11-04T15:16:44Z</time>
      </trkpt>
      <trkpt lat="46.48646" lon="5.30814">
        <ele>208</ele>
        <time>2021-11-04T15:16:45Z</time>
      </trkpt>
      <trkpt lat="46.48674" lon="5.30831">
        <ele>207.6</ele>
        <time>2021-11-04T15:16:49Z</time>
      </trkpt>
      <trkpt lat="46.48701" lon="5.30848">
        <ele>208</ele>
        <time>2021-11-04T15:16:53Z</time>
      </trkpt>
      <trkpt lat="46.48707" lon="5.30853">
        <ele>208.4</ele>
        <time>2021-11-04T15:16:54Z</time>
      </trkpt>
      <trkpt lat="46.48712" lon="5.3086">
        <ele>208.4</ele>
        <time>2021-11-04T15:16:55Z</time>
      </trkpt>
      <trkpt lat="46.48719" lon="5.30876">
        <ele>209</ele>
        <time>2021-11-04T15:16:57Z</time>
      </trkpt>
      <trkpt lat="46.4872" lon="5.30885">
        <ele>209.2</ele>
        <time>2021-11-04T15:16:58Z</time>
      </trkpt>
      <trkpt lat="46.4872" lon="5.30895">
        <ele>209.4</ele>
        <time>2021-11-04T15:16:59Z</time>
      </trkpt>
      <trkpt lat="46.48718" lon="5.30904">
        <ele>209.6</ele>
        <time>2021-11-04T15:17:00Z</time>
      </trkpt>
      <trkpt lat="46.48716" lon="5.30911">
        <ele>209.6</ele>
        <time>2021-11-04T15:17:01Z</time>
      </trkpt>
      <trkpt lat="46.48707" lon="5.30923">
        <ele>209.8</ele>
        <time>2021-11-04T15:17:03Z</time>
      </trkpt>
      <trkpt lat="46.48699" lon="5.30934">
        <ele>210</ele>
        <time>2021-11-04T15:17:05Z</time>
      </trkpt>
      <trkpt lat="46.48692" lon="5.30946">
        <ele>210.4</ele>
        <time>2021-11-04T15:17:07Z</time>
      </trkpt>
      <trkpt lat="46.48685" lon="5.30959">
        <ele>210.6</ele>
        <time>2021-11-04T15:17:09Z</time>
      </trkpt>
      <trkpt lat="46.48678" lon="5.30974">
        <ele>211.6</ele>
        <time>2021-11-04T15:17:11Z</time>
      </trkpt>
      <trkpt lat="46.48672" lon="5.30988">
        <ele>212.6</ele>
        <time>2021-11-04T15:17:13Z</time>
      </trkpt>
      <trkpt lat="46.48659" lon="5.31014">
        <ele>213.4</ele>
        <time>2021-11-04T15:17:17Z</time>
      </trkpt>
      <trkpt lat="46.48652" lon="5.31028">
        <ele>213.6</ele>
        <time>2021-11-04T15:17:19Z</time>
      </trkpt>
      <trkpt lat="46.48633" lon="5.31067">
        <ele>213.6</ele>
        <time>2021-11-04T15:17:24Z</time>
      </trkpt>
      <trkpt lat="46.48607" lon="5.3112">
        <ele>212.4</ele>
        <time>2021-11-04T15:17:30Z</time>
      </trkpt>
      <trkpt lat="46.48603" lon="5.31129">
        <ele>212</ele>
        <time>2021-11-04T15:17:31Z</time>
      </trkpt>
      <trkpt lat="46.48589" lon="5.31157">
        <ele>211.4</ele>
        <time>2021-11-04T15:17:34Z</time>
      </trkpt>
      <trkpt lat="46.48576" lon="5.31183">
        <ele>210.4</ele>
        <time>2021-11-04T15:17:37Z</time>
      </trkpt>
      <trkpt lat="46.48562" lon="5.31212">
        <ele>209.2</ele>
        <time>2021-11-04T15:17:40Z</time>
      </trkpt>
      <trkpt lat="46.48554" lon="5.3123">
        <ele>208.8</ele>
        <time>2021-11-04T15:17:42Z</time>
      </trkpt>
      <trkpt lat="46.48549" lon="5.31251">
        <ele>208.4</ele>
        <time>2021-11-04T15:17:44Z</time>
      </trkpt>
      <trkpt lat="46.48548" lon="5.31262">
        <ele>208.2</ele>
        <time>2021-11-04T15:17:45Z</time>
      </trkpt>
      <trkpt lat="46.48548" lon="5.31274">
        <ele>207.8</ele>
        <time>2021-11-04T15:17:46Z</time>
      </trkpt>
      <trkpt lat="46.4855" lon="5.31285">
        <ele>207.6</ele>
        <time>2021-11-04T15:17:47Z</time>
      </trkpt>
      <trkpt lat="46.48555" lon="5.3134">
        <ele>207.2</ele>
        <time>2021-11-04T15:17:52Z</time>
      </trkpt>
      <trkpt lat="46.48556" lon="5.31351">
        <ele>207</ele>
        <time>2021-11-04T15:17:53Z</time>
      </trkpt>
      <trkpt lat="46.48559" lon="5.31362">
        <ele>207</ele>
        <time>2021-11-04T15:17:54Z</time>
      </trkpt>
      <trkpt lat="46.48563" lon="5.31372">
        <ele>206.8</ele>
        <time>2021-11-04T15:17:55Z</time>
      </trkpt>
      <trkpt lat="46.48576" lon="5.31391">
        <ele>206.2</ele>
        <time>2021-11-04T15:17:57Z</time>
      </trkpt>
      <trkpt lat="46.48583" lon="5.31398">
        <ele>206</ele>
        <time>2021-11-04T15:17:58Z</time>
      </trkpt>
      <trkpt lat="46.48597" lon="5.31417">
        <ele>204.6</ele>
        <time>2021-11-04T15:18:00Z</time>
      </trkpt>
      <trkpt lat="46.48602" lon="5.31429">
        <ele>204.4</ele>
        <time>2021-11-04T15:18:01Z</time>
      </trkpt>
      <trkpt lat="46.48606" lon="5.31442">
        <ele>203.8</ele>
        <time>2021-11-04T15:18:02Z</time>
      </trkpt>
      <trkpt lat="46.48607" lon="5.31457">
        <ele>203.4</ele>
        <time>2021-11-04T15:18:03Z</time>
      </trkpt>
      <trkpt lat="46.48608" lon="5.31471">
        <ele>203</ele>
        <time>2021-11-04T15:18:04Z</time>
      </trkpt>
      <trkpt lat="46.48608" lon="5.31485">
        <ele>202</ele>
        <time>2021-11-04T15:18:05Z</time>
      </trkpt>
      <trkpt lat="46.48609" lon="5.31498">
        <ele>201.4</ele>
        <time>2021-11-04T15:18:06Z</time>
      </trkpt>
      <trkpt lat="46.48612" lon="5.3151">
        <ele>200.6</ele>
        <time>2021-11-04T15:18:07Z</time>
      </trkpt>
      <trkpt lat="46.48617" lon="5.31521">
        <ele>200.2</ele>
        <time>2021-11-04T15:18:08Z</time>
      </trkpt>
      <trkpt lat="46.48628" lon="5.31538">
        <ele>200</ele>
        <time>2021-11-04T15:18:10Z</time>
      </trkpt>
      <trkpt lat="46.48656" lon="5.31574">
        <ele>199.8</ele>
        <time>2021-11-04T15:18:15Z</time>
      </trkpt>
      <trkpt lat="46.48693" lon="5.31619">
        <ele>200</ele>
        <time>2021-11-04T15:18:21Z</time>
      </trkpt>
      <trkpt lat="46.48715" lon="5.31645">
        <ele>199.8</ele>
        <time>2021-11-04T15:18:25Z</time>
      </trkpt>
      <trkpt lat="46.48749" lon="5.31692">
        <ele>200</ele>
        <time>2021-11-04T15:18:31Z</time>
      </trkpt>
      <trkpt lat="46.48765" lon="5.31713">
        <ele>200</ele>
        <time>2021-11-04T15:18:34Z</time>
      </trkpt>
      <trkpt lat="46.48774" lon="5.3173">
        <ele>200.2</ele>
        <time>2021-11-04T15:18:36Z</time>
      </trkpt>
      <trkpt lat="46.48777" lon="5.31749">
        <ele>200.2</ele>
        <time>2021-11-04T15:18:38Z</time>
      </trkpt>
      <trkpt lat="46.48777" lon="5.31767">
        <ele>200.2</ele>
        <time>2021-11-04T15:18:40Z</time>
      </trkpt>
      <trkpt lat="46.48779" lon="5.31824">
        <ele>199.4</ele>
        <time>2021-11-04T15:18:46Z</time>
      </trkpt>
      <trkpt lat="46.48782" lon="5.31833">
        <ele>199.4</ele>
        <time>2021-11-04T15:18:47Z</time>
      </trkpt>
      <trkpt lat="46.48787" lon="5.3184">
        <ele>199.2</ele>
        <time>2021-11-04T15:18:48Z</time>
      </trkpt>
      <trkpt lat="46.48799" lon="5.3185">
        <ele>199.2</ele>
        <time>2021-11-04T15:18:50Z</time>
      </trkpt>
      <trkpt lat="46.48819" lon="5.3186">
        <ele>199.2</ele>
        <time>2021-11-04T15:18:53Z</time>
      </trkpt>
      <trkpt lat="46.4883" lon="5.31872">
        <ele>199.2</ele>
        <time>2021-11-04T15:18:55Z</time>
      </trkpt>
      <trkpt lat="46.48837" lon="5.3189">
        <ele>199.2</ele>
        <time>2021-11-04T15:18:57Z</time>
      </trkpt>
      <trkpt lat="46.48838" lon="5.319">
        <ele>199.2</ele>
        <time>2021-11-04T15:18:58Z</time>
      </trkpt>
      <trkpt lat="46.48845" lon="5.31972">
        <ele>199.6</ele>
        <time>2021-11-04T15:19:06Z</time>
      </trkpt>
      <trkpt lat="46.48841" lon="5.32023">
        <ele>200.4</ele>
        <time>2021-11-04T15:19:12Z</time>
      </trkpt>
      <trkpt lat="46.48829" lon="5.3209">
        <ele>201.6</ele>
        <time>2021-11-04T15:19:20Z</time>
      </trkpt>
      <trkpt lat="46.48821" lon="5.32156">
        <ele>202.2</ele>
        <time>2021-11-04T15:19:28Z</time>
      </trkpt>
      <trkpt lat="46.48822" lon="5.32181">
        <ele>202.6</ele>
        <time>2021-11-04T15:19:31Z</time>
      </trkpt>
      <trkpt lat="46.48826" lon="5.32212">
        <ele>203.4</ele>
        <time>2021-11-04T15:19:35Z</time>
      </trkpt>
      <trkpt lat="46.48828" lon="5.32219">
        <ele>203.6</ele>
        <time>2021-11-04T15:19:36Z</time>
      </trkpt>
      <trkpt lat="46.48836" lon="5.32241">
        <ele>204.4</ele>
        <time>2021-11-04T15:19:39Z</time>
      </trkpt>
      <trkpt lat="46.48843" lon="5.32255">
        <ele>204.8</ele>
        <time>2021-11-04T15:19:41Z</time>
      </trkpt>
      <trkpt lat="46.48853" lon="5.32269">
        <ele>204.8</ele>
        <time>2021-11-04T15:19:43Z</time>
      </trkpt>
      <trkpt lat="46.48858" lon="5.32276">
        <ele>205</ele>
        <time>2021-11-04T15:19:44Z</time>
      </trkpt>
      <trkpt lat="46.48889" lon="5.32321">
        <ele>204.4</ele>
        <time>2021-11-04T15:19:49Z</time>
      </trkpt>
      <trkpt lat="46.48895" lon="5.32332">
        <ele>203.6</ele>
        <time>2021-11-04T15:19:50Z</time>
      </trkpt>
      <trkpt lat="46.48901" lon="5.32343">
        <ele>203.2</ele>
        <time>2021-11-04T15:19:51Z</time>
      </trkpt>
      <trkpt lat="46.48906" lon="5.32355">
        <ele>202.4</ele>
        <time>2021-11-04T15:19:52Z</time>
      </trkpt>
      <trkpt lat="46.48911" lon="5.32367">
        <ele>201.8</ele>
        <time>2021-11-04T15:19:53Z</time>
      </trkpt>
      <trkpt lat="46.48915" lon="5.32379">
        <ele>200.6</ele>
        <time>2021-11-04T15:19:54Z</time>
      </trkpt>
      <trkpt lat="46.48918" lon="5.32391">
        <ele>199.8</ele>
        <time>2021-11-04T15:19:55Z</time>
      </trkpt>
      <trkpt lat="46.48921" lon="5.32403">
        <ele>198.8</ele>
        <time>2021-11-04T15:19:56Z</time>
      </trkpt>
      <trkpt lat="46.48924" lon="5.32414">
        <ele>198</ele>
        <time>2021-11-04T15:19:57Z</time>
      </trkpt>
      <trkpt lat="46.48931" lon="5.32436">
        <ele>197.6</ele>
        <time>2021-11-04T15:19:59Z</time>
      </trkpt>
      <trkpt lat="46.4895" lon="5.32499">
        <ele>196.8</ele>
        <time>2021-11-04T15:20:05Z</time>
      </trkpt>
      <trkpt lat="46.48955" lon="5.3252">
        <ele>196.8</ele>
        <time>2021-11-04T15:20:07Z</time>
      </trkpt>
      <trkpt lat="46.48956" lon="5.32542">
        <ele>196.8</ele>
        <time>2021-11-04T15:20:09Z</time>
      </trkpt>
      <trkpt lat="46.48951" lon="5.32562">
        <ele>196.8</ele>
        <time>2021-11-04T15:20:11Z</time>
      </trkpt>
      <trkpt lat="46.48947" lon="5.3257">
        <ele>196.8</ele>
        <time>2021-11-04T15:20:12Z</time>
      </trkpt>
      <trkpt lat="46.48942" lon="5.32577">
        <ele>197</ele>
        <time>2021-11-04T15:20:13Z</time>
      </trkpt>
      <trkpt lat="46.48928" lon="5.32595">
        <ele>197.2</ele>
        <time>2021-11-04T15:20:16Z</time>
      </trkpt>
      <trkpt lat="46.48921" lon="5.32608">
        <ele>197.4</ele>
        <time>2021-11-04T15:20:18Z</time>
      </trkpt>
      <trkpt lat="46.48917" lon="5.32623">
        <ele>197.8</ele>
        <time>2021-11-04T15:20:20Z</time>
      </trkpt>
      <trkpt lat="46.48917" lon="5.32637">
        <ele>198.8</ele>
        <time>2021-11-04T15:20:22Z</time>
      </trkpt>
      <trkpt lat="46.4892" lon="5.3265">
        <ele>199.4</ele>
        <time>2021-11-04T15:20:24Z</time>
      </trkpt>
      <trkpt lat="46.48925" lon="5.32661">
        <ele>199.6</ele>
        <time>2021-11-04T15:20:26Z</time>
      </trkpt>
      <trkpt lat="46.48931" lon="5.32671">
        <ele>200.4</ele>
        <time>2021-11-04T15:20:28Z</time>
      </trkpt>
      <trkpt lat="46.48934" lon="5.32675">
        <ele>201</ele>
        <time>2021-11-04T15:20:29Z</time>
      </trkpt>
      <trkpt lat="46.4894" lon="5.32684">
        <ele>202</ele>
        <time>2021-11-04T15:20:31Z</time>
      </trkpt>
      <trkpt lat="46.48947" lon="5.32692">
        <ele>202.8</ele>
        <time>2021-11-04T15:20:33Z</time>
      </trkpt>
      <trkpt lat="46.48954" lon="5.32699">
        <ele>203.2</ele>
        <time>2021-11-04T15:20:35Z</time>
      </trkpt>
      <trkpt lat="46.48961" lon="5.32704">
        <ele>203.8</ele>
        <time>2021-11-04T15:20:37Z</time>
      </trkpt>
      <trkpt lat="46.48969" lon="5.32708">
        <ele>204.2</ele>
        <time>2021-11-04T15:20:39Z</time>
      </trkpt>
      <trkpt lat="46.48977" lon="5.32711">
        <ele>204.8</ele>
        <time>2021-11-04T15:20:41Z</time>
      </trkpt>
      <trkpt lat="46.48981" lon="5.32712">
        <ele>205.2</ele>
        <time>2021-11-04T15:20:42Z</time>
      </trkpt>
      <trkpt lat="46.48985" lon="5.32712">
        <ele>205.6</ele>
        <time>2021-11-04T15:20:43Z</time>
      </trkpt>
      <trkpt lat="46.48989" lon="5.32712">
        <ele>206</ele>
        <time>2021-11-04T15:20:44Z</time>
      </trkpt>
      <trkpt lat="46.48993" lon="5.32712">
        <ele>206.4</ele>
        <time>2021-11-04T15:20:45Z</time>
      </trkpt>
      <trkpt lat="46.49001" lon="5.32712">
        <ele>206.8</ele>
        <time>2021-11-04T15:20:47Z</time>
      </trkpt>
      <trkpt lat="46.49009" lon="5.32711">
        <ele>207.6</ele>
        <time>2021-11-04T15:20:49Z</time>
      </trkpt>
      <trkpt lat="46.49029" lon="5.32709">
        <ele>208.6</ele>
        <time>2021-11-04T15:20:54Z</time>
      </trkpt>
      <trkpt lat="46.49049" lon="5.32706">
        <ele>209.6</ele>
        <time>2021-11-04T15:20:59Z</time>
      </trkpt>
      <trkpt lat="46.49066" lon="5.32702">
        <ele>210.6</ele>
        <time>2021-11-04T15:21:03Z</time>
      </trkpt>
      <trkpt lat="46.4909" lon="5.32698">
        <ele>211.8</ele>
        <time>2021-11-04T15:21:09Z</time>
      </trkpt>
      <trkpt lat="46.49099" lon="5.32696">
        <ele>212.2</ele>
        <time>2021-11-04T15:21:11Z</time>
      </trkpt>
      <trkpt lat="46.49107" lon="5.32697">
        <ele>212.6</ele>
        <time>2021-11-04T15:21:13Z</time>
      </trkpt>
      <trkpt lat="46.49112" lon="5.32699">
        <ele>212.8</ele>
        <time>2021-11-04T15:21:14Z</time>
      </trkpt>
      <trkpt lat="46.49116" lon="5.32701">
        <ele>213</ele>
        <time>2021-11-04T15:21:15Z</time>
      </trkpt>
      <trkpt lat="46.49123" lon="5.32709">
        <ele>213.4</ele>
        <time>2021-11-04T15:21:17Z</time>
      </trkpt>
      <trkpt lat="46.49128" lon="5.3272">
        <ele>214</ele>
        <time>2021-11-04T15:21:19Z</time>
      </trkpt>
      <trkpt lat="46.4913" lon="5.32726">
        <ele>214.2</ele>
        <time>2021-11-04T15:21:20Z</time>
      </trkpt>
      <trkpt lat="46.49133" lon="5.32739">
        <ele>214.6</ele>
        <time>2021-11-04T15:21:22Z</time>
      </trkpt>
      <trkpt lat="46.49141" lon="5.32782">
        <ele>215</ele>
        <time>2021-11-04T15:21:28Z</time>
      </trkpt>
      <trkpt lat="46.49142" lon="5.3279">
        <ele>215</ele>
        <time>2021-11-04T15:21:29Z</time>
      </trkpt>
      <trkpt lat="46.49143" lon="5.32808">
        <ele>215</ele>
        <time>2021-11-04T15:21:31Z</time>
      </trkpt>
      <trkpt lat="46.49142" lon="5.32827">
        <ele>214.8</ele>
        <time>2021-11-04T15:21:33Z</time>
      </trkpt>
      <trkpt lat="46.49131" lon="5.32873">
        <ele>214.2</ele>
        <time>2021-11-04T15:21:38Z</time>
      </trkpt>
      <trkpt lat="46.49128" lon="5.32881">
        <ele>214</ele>
        <time>2021-11-04T15:21:39Z</time>
      </trkpt>
      <trkpt lat="46.49124" lon="5.32907">
        <ele>213.8</ele>
        <time>2021-11-04T15:21:42Z</time>
      </trkpt>
      <trkpt lat="46.49124" lon="5.32917">
        <ele>213.8</ele>
        <time>2021-11-04T15:21:43Z</time>
      </trkpt>
      <trkpt lat="46.49125" lon="5.32971">
        <ele>213.8</ele>
        <time>2021-11-04T15:21:49Z</time>
      </trkpt>
      <trkpt lat="46.49131" lon="5.33022">
        <ele>214.4</ele>
        <time>2021-11-04T15:21:55Z</time>
      </trkpt>
      <trkpt lat="46.49132" lon="5.3303">
        <ele>214.6</ele>
        <time>2021-11-04T15:21:56Z</time>
      </trkpt>
      <trkpt lat="46.49137" lon="5.33054">
        <ele>215</ele>
        <time>2021-11-04T15:21:59Z</time>
      </trkpt>
      <trkpt lat="46.49138" lon="5.33062">
        <ele>215.2</ele>
        <time>2021-11-04T15:22:00Z</time>
      </trkpt>
      <trkpt lat="46.49148" lon="5.33087">
        <ele>215.6</ele>
        <time>2021-11-04T15:22:03Z</time>
      </trkpt>
      <trkpt lat="46.49159" lon="5.33113">
        <ele>215.8</ele>
        <time>2021-11-04T15:22:06Z</time>
      </trkpt>
      <trkpt lat="46.49169" lon="5.33127">
        <ele>215.8</ele>
        <time>2021-11-04T15:22:08Z</time>
      </trkpt>
      <trkpt lat="46.49199" lon="5.33157">
        <ele>215.6</ele>
        <time>2021-11-04T15:22:14Z</time>
      </trkpt>
      <trkpt lat="46.49231" lon="5.33183">
        <ele>215.8</ele>
        <time>2021-11-04T15:22:20Z</time>
      </trkpt>
      <trkpt lat="46.49242" lon="5.33191">
        <ele>216</ele>
        <time>2021-11-04T15:22:22Z</time>
      </trkpt>
      <trkpt lat="46.49251" lon="5.33201">
        <ele>216.2</ele>
        <time>2021-11-04T15:22:24Z</time>
      </trkpt>
      <trkpt lat="46.49255" lon="5.33208">
        <ele>216.4</ele>
        <time>2021-11-04T15:22:25Z</time>
      </trkpt>
      <trkpt lat="46.49265" lon="5.33229">
        <ele>216.6</ele>
        <time>2021-11-04T15:22:28Z</time>
      </trkpt>
      <trkpt lat="46.49269" lon="5.33244">
        <ele>216.8</ele>
        <time>2021-11-04T15:22:30Z</time>
      </trkpt>
      <trkpt lat="46.49277" lon="5.33292">
        <ele>218</ele>
        <time>2021-11-04T15:22:36Z</time>
      </trkpt>
      <trkpt lat="46.49278" lon="5.33301">
        <ele>218</ele>
        <time>2021-11-04T15:22:37Z</time>
      </trkpt>
      <trkpt lat="46.49292" lon="5.33367">
        <ele>219</ele>
        <time>2021-11-04T15:22:45Z</time>
      </trkpt>
      <trkpt lat="46.49293" lon="5.33375">
        <ele>219</ele>
        <time>2021-11-04T15:22:46Z</time>
      </trkpt>
      <trkpt lat="46.49307" lon="5.33446">
        <ele>220</ele>
        <time>2021-11-04T15:22:55Z</time>
      </trkpt>
      <trkpt lat="46.49309" lon="5.33463">
        <ele>220.2</ele>
        <time>2021-11-04T15:22:57Z</time>
      </trkpt>
      <trkpt lat="46.49317" lon="5.33532">
        <ele>220.6</ele>
        <time>2021-11-04T15:23:05Z</time>
      </trkpt>
      <trkpt lat="46.49313" lon="5.33569">
        <ele>220.6</ele>
        <time>2021-11-04T15:23:09Z</time>
      </trkpt>
      <trkpt lat="46.49312" lon="5.33578">
        <ele>220.6</ele>
        <time>2021-11-04T15:23:10Z</time>
      </trkpt>
      <trkpt lat="46.49301" lon="5.33653">
        <ele>220.6</ele>
        <time>2021-11-04T15:23:18Z</time>
      </trkpt>
      <trkpt lat="46.49297" lon="5.33738">
        <ele>221</ele>
        <time>2021-11-04T15:23:27Z</time>
      </trkpt>
      <trkpt lat="46.49296" lon="5.33747">
        <ele>221</ele>
        <time>2021-11-04T15:23:28Z</time>
      </trkpt>
      <trkpt lat="46.49286" lon="5.33799">
        <ele>221.4</ele>
        <time>2021-11-04T15:23:34Z</time>
      </trkpt>
      <trkpt lat="46.49275" lon="5.33855">
        <ele>222</ele>
        <time>2021-11-04T15:23:40Z</time>
      </trkpt>
      <trkpt lat="46.49271" lon="5.33883">
        <ele>222.2</ele>
        <time>2021-11-04T15:23:43Z</time>
      </trkpt>
      <trkpt lat="46.4926" lon="5.3394">
        <ele>222.2</ele>
        <time>2021-11-04T15:23:49Z</time>
      </trkpt>
      <trkpt lat="46.49246" lon="5.34016">
        <ele>222.2</ele>
        <time>2021-11-04T15:23:57Z</time>
      </trkpt>
      <trkpt lat="46.4923" lon="5.34094">
        <ele>222.2</ele>
        <time>2021-11-04T15:24:05Z</time>
      </trkpt>
      <trkpt lat="46.49227" lon="5.34105">
        <ele>222.2</ele>
        <time>2021-11-04T15:24:06Z</time>
      </trkpt>
      <trkpt lat="46.49214" lon="5.34178">
        <ele>220.4</ele>
        <time>2021-11-04T15:24:12Z</time>
      </trkpt>
      <trkpt lat="46.49212" lon="5.3419">
        <ele>220</ele>
        <time>2021-11-04T15:24:13Z</time>
      </trkpt>
      <trkpt lat="46.49205" lon="5.34224">
        <ele>219.2</ele>
        <time>2021-11-04T15:24:16Z</time>
      </trkpt>
      <trkpt lat="46.49192" lon="5.34294">
        <ele>219.2</ele>
        <time>2021-11-04T15:24:22Z</time>
      </trkpt>
      <trkpt lat="46.49179" lon="5.34361">
        <ele>220.2</ele>
        <time>2021-11-04T15:24:29Z</time>
      </trkpt>
      <trkpt lat="46.49177" lon="5.34371">
        <ele>220.2</ele>
        <time>2021-11-04T15:24:30Z</time>
      </trkpt>
      <trkpt lat="46.49167" lon="5.34426">
        <ele>220.2</ele>
        <time>2021-11-04T15:24:35Z</time>
      </trkpt>
      <trkpt lat="46.49156" lon="5.34484">
        <ele>219.2</ele>
        <time>2021-11-04T15:24:40Z</time>
      </trkpt>
      <trkpt lat="46.49152" lon="5.34506">
        <ele>218.8</ele>
        <time>2021-11-04T15:24:42Z</time>
      </trkpt>
      <trkpt lat="46.49141" lon="5.34565">
        <ele>218.8</ele>
        <time>2021-11-04T15:24:48Z</time>
      </trkpt>
      <trkpt lat="46.49129" lon="5.34625">
        <ele>219.6</ele>
        <time>2021-11-04T15:24:55Z</time>
      </trkpt>
      <trkpt lat="46.49119" lon="5.34677">
        <ele>219.4</ele>
        <time>2021-11-04T15:25:00Z</time>
      </trkpt>
      <trkpt lat="46.49103" lon="5.34758">
        <ele>218.8</ele>
        <time>2021-11-04T15:25:08Z</time>
      </trkpt>
      <trkpt lat="46.49091" lon="5.34818">
        <ele>219.6</ele>
        <time>2021-11-04T15:25:15Z</time>
      </trkpt>
      <trkpt lat="46.49084" lon="5.34852">
        <ele>220</ele>
        <time>2021-11-04T15:25:19Z</time>
      </trkpt>
      <trkpt lat="46.49077" lon="5.34885">
        <ele>220.8</ele>
        <time>2021-11-04T15:25:23Z</time>
      </trkpt>
      <trkpt lat="46.49073" lon="5.34902">
        <ele>221</ele>
        <time>2021-11-04T15:25:25Z</time>
      </trkpt>
      <trkpt lat="46.49061" lon="5.34961">
        <ele>221.8</ele>
        <time>2021-11-04T15:25:32Z</time>
      </trkpt>
      <trkpt lat="46.49059" lon="5.34977">
        <ele>222</ele>
        <time>2021-11-04T15:25:34Z</time>
      </trkpt>
      <trkpt lat="46.49051" lon="5.35019">
        <ele>223.2</ele>
        <time>2021-11-04T15:25:39Z</time>
      </trkpt>
      <trkpt lat="46.49047" lon="5.35043">
        <ele>223.6</ele>
        <time>2021-11-04T15:25:42Z</time>
      </trkpt>
      <trkpt lat="46.4904" lon="5.35074">
        <ele>224.4</ele>
        <time>2021-11-04T15:25:46Z</time>
      </trkpt>
      <trkpt lat="46.49035" lon="5.35098">
        <ele>224.8</ele>
        <time>2021-11-04T15:25:49Z</time>
      </trkpt>
      <trkpt lat="46.49028" lon="5.35121">
        <ele>225.2</ele>
        <time>2021-11-04T15:25:52Z</time>
      </trkpt>
      <trkpt lat="46.49019" lon="5.35143">
        <ele>225.2</ele>
        <time>2021-11-04T15:25:55Z</time>
      </trkpt>
      <trkpt lat="46.49016" lon="5.3515">
        <ele>225.4</ele>
        <time>2021-11-04T15:25:56Z</time>
      </trkpt>
      <trkpt lat="46.48995" lon="5.352">
        <ele>225.6</ele>
        <time>2021-11-04T15:26:02Z</time>
      </trkpt>
      <trkpt lat="46.4897" lon="5.35256">
        <ele>225</ele>
        <time>2021-11-04T15:26:08Z</time>
      </trkpt>
      <trkpt lat="46.48962" lon="5.35275">
        <ele>224.4</ele>
        <time>2021-11-04T15:26:10Z</time>
      </trkpt>
      <trkpt lat="46.48938" lon="5.35331">
        <ele>223.2</ele>
        <time>2021-11-04T15:26:16Z</time>
      </trkpt>
      <trkpt lat="46.4893" lon="5.35349">
        <ele>223.2</ele>
        <time>2021-11-04T15:26:18Z</time>
      </trkpt>
      <trkpt lat="46.48901" lon="5.35416">
        <ele>223</ele>
        <time>2021-11-04T15:26:26Z</time>
      </trkpt>
      <trkpt lat="46.48875" lon="5.35477">
        <ele>223.8</ele>
        <time>2021-11-04T15:26:34Z</time>
      </trkpt>
      <trkpt lat="46.4886" lon="5.35509">
        <ele>224.2</ele>
        <time>2021-11-04T15:26:38Z</time>
      </trkpt>
      <trkpt lat="46.48847" lon="5.35539">
        <ele>224.4</ele>
        <time>2021-11-04T15:26:42Z</time>
      </trkpt>
      <trkpt lat="46.48817" lon="5.3561">
        <ele>224.8</ele>
        <time>2021-11-04T15:26:51Z</time>
      </trkpt>
      <trkpt lat="46.48787" lon="5.35679">
        <ele>224.4</ele>
        <time>2021-11-04T15:26:59Z</time>
      </trkpt>
      <trkpt lat="46.48776" lon="5.35704">
        <ele>224.4</ele>
        <time>2021-11-04T15:27:02Z</time>
      </trkpt>
      <trkpt lat="46.48746" lon="5.35771">
        <ele>224.4</ele>
        <time>2021-11-04T15:27:10Z</time>
      </trkpt>
      <trkpt lat="46.48735" lon="5.35797">
        <ele>224.4</ele>
        <time>2021-11-04T15:27:13Z</time>
      </trkpt>
      <trkpt lat="46.48709" lon="5.35857">
        <ele>225.4</ele>
        <time>2021-11-04T15:27:21Z</time>
      </trkpt>
      <trkpt lat="46.48689" lon="5.35906">
        <ele>226.2</ele>
        <time>2021-11-04T15:27:28Z</time>
      </trkpt>
      <trkpt lat="46.48687" lon="5.35913">
        <ele>226.2</ele>
        <time>2021-11-04T15:27:29Z</time>
      </trkpt>
      <trkpt lat="46.48684" lon="5.35919">
        <ele>226.4</ele>
        <time>2021-11-04T15:27:30Z</time>
      </trkpt>
      <trkpt lat="46.48677" lon="5.35928">
        <ele>227</ele>
        <time>2021-11-04T15:27:32Z</time>
      </trkpt>
      <trkpt lat="46.48669" lon="5.35937">
        <ele>227.6</ele>
        <time>2021-11-04T15:27:35Z</time>
      </trkpt>
      <trkpt lat="46.48668" lon="5.35938">
        <ele>228</ele>
        <time>2021-11-04T15:27:36Z</time>
      </trkpt>
      <trkpt lat="46.48667" lon="5.35939">
        <ele>228.8</ele>
        <time>2021-11-04T15:27:39Z</time>
      </trkpt>
      <trkpt lat="46.48666" lon="5.3594">
        <ele>229.4</ele>
        <time>2021-11-04T15:27:42Z</time>
      </trkpt>
      <trkpt lat="46.48669" lon="5.35938">
        <ele>229.6</ele>
        <time>2021-11-04T15:28:25Z</time>
      </trkpt>
      <trkpt lat="46.48672" lon="5.35937">
        <ele>229.6</ele>
        <time>2021-11-04T15:28:26Z</time>
      </trkpt>
      <trkpt lat="46.48676" lon="5.35937">
        <ele>229.6</ele>
        <time>2021-11-04T15:28:27Z</time>
      </trkpt>
      <trkpt lat="46.4868" lon="5.35946">
        <ele>229.6</ele>
        <time>2021-11-04T15:28:29Z</time>
      </trkpt>
      <trkpt lat="46.4868" lon="5.3596">
        <ele>229.2</ele>
        <time>2021-11-04T15:28:31Z</time>
      </trkpt>
      <trkpt lat="46.48677" lon="5.35976">
        <ele>228.8</ele>
        <time>2021-11-04T15:28:33Z</time>
      </trkpt>
      <trkpt lat="46.48667" lon="5.36031">
        <ele>228</ele>
        <time>2021-11-04T15:28:39Z</time>
      </trkpt>
      <trkpt lat="46.48657" lon="5.36075">
        <ele>227.6</ele>
        <time>2021-11-04T15:28:43Z</time>
      </trkpt>
      <trkpt lat="46.48655" lon="5.36086">
        <ele>227.4</ele>
        <time>2021-11-04T15:28:44Z</time>
      </trkpt>
      <trkpt lat="46.48647" lon="5.36121">
        <ele>226.4</ele>
        <time>2021-11-04T15:28:47Z</time>
      </trkpt>
      <trkpt lat="46.4864" lon="5.36164">
        <ele>225.4</ele>
        <time>2021-11-04T15:28:51Z</time>
      </trkpt>
      <trkpt lat="46.48637" lon="5.36216">
        <ele>225.6</ele>
        <time>2021-11-04T15:28:56Z</time>
      </trkpt>
      <trkpt lat="46.48629" lon="5.3628">
        <ele>226.4</ele>
        <time>2021-11-04T15:29:03Z</time>
      </trkpt>
      <trkpt lat="46.48626" lon="5.36297">
        <ele>227</ele>
        <time>2021-11-04T15:29:05Z</time>
      </trkpt>
      <trkpt lat="46.4862" lon="5.3631">
        <ele>227</ele>
        <time>2021-11-04T15:29:07Z</time>
      </trkpt>
      <trkpt lat="46.48612" lon="5.36318">
        <ele>227.6</ele>
        <time>2021-11-04T15:29:09Z</time>
      </trkpt>
      <trkpt lat="46.48602" lon="5.36321">
        <ele>228</ele>
        <time>2021-11-04T15:29:11Z</time>
      </trkpt>
      <trkpt lat="46.48593" lon="5.36322">
        <ele>228.6</ele>
        <time>2021-11-04T15:29:13Z</time>
      </trkpt>
      <trkpt lat="46.48573" lon="5.36325">
        <ele>229.6</ele>
        <time>2021-11-04T15:29:17Z</time>
      </trkpt>
      <trkpt lat="46.48558" lon="5.36328">
        <ele>230.6</ele>
        <time>2021-11-04T15:29:20Z</time>
      </trkpt>
      <trkpt lat="46.48554" lon="5.36329">
        <ele>230.8</ele>
        <time>2021-11-04T15:29:21Z</time>
      </trkpt>
      <trkpt lat="46.48528" lon="5.36332">
        <ele>232.2</ele>
        <time>2021-11-04T15:29:26Z</time>
      </trkpt>
      <trkpt lat="46.48502" lon="5.36337">
        <ele>232.8</ele>
        <time>2021-11-04T15:29:31Z</time>
      </trkpt>
      <trkpt lat="46.4848" lon="5.3634">
        <ele>233.2</ele>
        <time>2021-11-04T15:29:35Z</time>
      </trkpt>
      <trkpt lat="46.4844" lon="5.36346">
        <ele>233.4</ele>
        <time>2021-11-04T15:29:42Z</time>
      </trkpt>
      <trkpt lat="46.48418" lon="5.36353">
        <ele>233.6</ele>
        <time>2021-11-04T15:29:46Z</time>
      </trkpt>
      <trkpt lat="46.48407" lon="5.3636">
        <ele>233.6</ele>
        <time>2021-11-04T15:29:48Z</time>
      </trkpt>
      <trkpt lat="46.48377" lon="5.36389">
        <ele>233.6</ele>
        <time>2021-11-04T15:29:54Z</time>
      </trkpt>
      <trkpt lat="46.48372" lon="5.36394">
        <ele>234</ele>
        <time>2021-11-04T15:29:55Z</time>
      </trkpt>
      <trkpt lat="46.48358" lon="5.3641">
        <ele>234</ele>
        <time>2021-11-04T15:29:58Z</time>
      </trkpt>
      <trkpt lat="46.48344" lon="5.36425">
        <ele>234.4</ele>
        <time>2021-11-04T15:30:01Z</time>
      </trkpt>
      <trkpt lat="46.4831" lon="5.36463">
        <ele>235.4</ele>
        <time>2021-11-04T15:30:09Z</time>
      </trkpt>
      <trkpt lat="46.48285" lon="5.3649">
        <ele>236.4</ele>
        <time>2021-11-04T15:30:15Z</time>
      </trkpt>
      <trkpt lat="46.48268" lon="5.3651">
        <ele>237</ele>
        <time>2021-11-04T15:30:19Z</time>
      </trkpt>
      <trkpt lat="46.48259" lon="5.36519">
        <ele>237.4</ele>
        <time>2021-11-04T15:30:21Z</time>
      </trkpt>
      <trkpt lat="46.48229" lon="5.36552">
        <ele>238.2</ele>
        <time>2021-11-04T15:30:28Z</time>
      </trkpt>
      <trkpt lat="46.48225" lon="5.36556">
        <ele>238.8</ele>
        <time>2021-11-04T15:30:29Z</time>
      </trkpt>
      <trkpt lat="46.48214" lon="5.36559">
        <ele>239</ele>
        <time>2021-11-04T15:30:31Z</time>
      </trkpt>
      <trkpt lat="46.48208" lon="5.36559">
        <ele>239.2</ele>
        <time>2021-11-04T15:30:32Z</time>
      </trkpt>
      <trkpt lat="46.48203" lon="5.3656">
        <ele>239.2</ele>
        <time>2021-11-04T15:30:33Z</time>
      </trkpt>
      <trkpt lat="46.48193" lon="5.36567">
        <ele>239.4</ele>
        <time>2021-11-04T15:30:35Z</time>
      </trkpt>
      <trkpt lat="46.48187" lon="5.3658">
        <ele>239.8</ele>
        <time>2021-11-04T15:30:37Z</time>
      </trkpt>
      <trkpt lat="46.48185" lon="5.36587">
        <ele>239.8</ele>
        <time>2021-11-04T15:30:38Z</time>
      </trkpt>
      <trkpt lat="46.48182" lon="5.36595">
        <ele>240</ele>
        <time>2021-11-04T15:30:39Z</time>
      </trkpt>
      <trkpt lat="46.48179" lon="5.36602">
        <ele>240</ele>
        <time>2021-11-04T15:30:40Z</time>
      </trkpt>
      <trkpt lat="46.48167" lon="5.36618">
        <ele>240</ele>
        <time>2021-11-04T15:30:43Z</time>
      </trkpt>
      <trkpt lat="46.4815" lon="5.36636">
        <ele>240.4</ele>
        <time>2021-11-04T15:30:47Z</time>
      </trkpt>
      <trkpt lat="46.48139" lon="5.36643">
        <ele>240.4</ele>
        <time>2021-11-04T15:30:49Z</time>
      </trkpt>
      <trkpt lat="46.48127" lon="5.36656">
        <ele>240.8</ele>
        <time>2021-11-04T15:30:52Z</time>
      </trkpt>
      <trkpt lat="46.48112" lon="5.36675">
        <ele>241</ele>
        <time>2021-11-04T15:30:56Z</time>
      </trkpt>
      <trkpt lat="46.48108" lon="5.3668">
        <ele>241.2</ele>
        <time>2021-11-04T15:30:57Z</time>
      </trkpt>
      <trkpt lat="46.48104" lon="5.3669">
        <ele>241.2</ele>
        <time>2021-11-04T15:30:59Z</time>
      </trkpt>
      <trkpt lat="46.48104" lon="5.36696">
        <ele>241.6</ele>
        <time>2021-11-04T15:31:00Z</time>
      </trkpt>
      <trkpt lat="46.48105" lon="5.36702">
        <ele>241.8</ele>
        <time>2021-11-04T15:31:01Z</time>
      </trkpt>
      <trkpt lat="46.48112" lon="5.36711">
        <ele>242.4</ele>
        <time>2021-11-04T15:31:03Z</time>
      </trkpt>
      <trkpt lat="46.48129" lon="5.36724">
        <ele>243</ele>
        <time>2021-11-04T15:31:07Z</time>
      </trkpt>
      <trkpt lat="46.48145" lon="5.36736">
        <ele>243.8</ele>
        <time>2021-11-04T15:31:11Z</time>
      </trkpt>
      <trkpt lat="46.48149" lon="5.36739">
        <ele>244</ele>
        <time>2021-11-04T15:31:12Z</time>
      </trkpt>
      <trkpt lat="46.48169" lon="5.36756">
        <ele>245</ele>
        <time>2021-11-04T15:31:17Z</time>
      </trkpt>
      <trkpt lat="46.4818" lon="5.36765">
        <ele>246</ele>
        <time>2021-11-04T15:31:20Z</time>
      </trkpt>
      <trkpt lat="46.48186" lon="5.36771">
        <ele>246</ele>
        <time>2021-11-04T15:31:22Z</time>
      </trkpt>
      <trkpt lat="46.48202" lon="5.36784">
        <ele>247.2</ele>
        <time>2021-11-04T15:31:26Z</time>
      </trkpt>
      <trkpt lat="46.4822" lon="5.36798">
        <ele>248.4</ele>
        <time>2021-11-04T15:31:31Z</time>
      </trkpt>
      <trkpt lat="46.48234" lon="5.3681">
        <ele>249.4</ele>
        <time>2021-11-04T15:31:35Z</time>
      </trkpt>
      <trkpt lat="46.4825" lon="5.36824">
        <ele>250.6</ele>
        <time>2021-11-04T15:31:40Z</time>
      </trkpt>
      <trkpt lat="46.48255" lon="5.3683">
        <ele>251.2</ele>
        <time>2021-11-04T15:31:42Z</time>
      </trkpt>
    </trkseg>
  </trk>
</gpx>